[[{"header":{"parameterUnit":"m.s-1","parameterCategory":1,"la1":31.0,"la2":29.5877,"lo1":-88.7671,"lo2":-86.6584,"dy":0.0162,"dx":0.0185,"nx":115,"ny":88,"refTime":"2024-03-15T00:00:00:Z","depth":0,"parameterNumber":2,"parameterNumberName":"U-component_of_WINDS"},"data":[0.0,0.0,0.0,0.0,0.0,0.0,0.0,0.0,0.0,0.0,0.0,0.0,0.0,0.0,0.0,0.0,0.0,0.0,0.0,0.0,0.0,0.0,0.0,0.0,0.0,0.0,0.0,0.0,0.0,0.0,0.0,0.0,0.0,0.0,0.0,0.0,0.0,0.0,0.0,0.0,0.0,0.0,0.0,0.0,0.0,0.0,0.0,0.0,0.0,0.0,0.0,0.0,0.0,0.0,0.0,0.0,0.0,0.0,0.0,0.0,0.0,0.0,0.0,0.0,0.0,0.0,0.0,0.0,0.0,0.0,0.0,0.0,0.0,0.0,0.0,0.0,0.0,0.0,0.0,0.0,0.0,0.0,0.0,0.0,0.0,0.0,0.0,0.0,0.0,0.0,0.0,0.0,0.0,0.0,0.0,0.0,0.0,0.0,0.0,0.0,0.0,0.0,0.0,0.0,0.0,0.0,0.0,0.0,0.0,0.0,0.0,0.0,0.0,0.0,0.0,0.0,0.0,0.0,0.0,0.0,0.0,0.0,0.0,0.0,0.0,0.0,0.0,0.0,0.0,0.0,0.0,0.0,0.0,0.0,0.0,0.0,0.0,0.0,0.0,0.0,0.0,0.0,0.0,0.0,0.0,0.0,0.0,0.0,0.0,0.0,0.0,0.0,0.0,0.0,0.0,0.0,0.0,0.0,0.0,0.0,0.0,0.0,0.0,0.0,0.0,0.0,0.0,0.0,0.0,0.0,0.0,0.0,0.0,0.0,0.0,0.0,0.0,0.0,0.0,0.0,0.0,0.0,0.0,0.0,0.0,0.0,0.0,0.0,0.0,0.0,0.0,0.0,0.0,0.0,0.0,0.0,0.0,0.0,0.0,0.0,0.0,0.0,0.0,0.0,0.0,0.0,0.0,0.0,0.0,0.0,0.0,0.0,0.0,0.0,0.0,0.0,0.0,0.0,0.0,0.0,0.0,0.0,0.0,0.0,0.0,0.0,0.0,0.0,0.0,0.0,0.0,0.0,0.0,0.0,0.0,0.0,0.0,0.0,0.0,0.0,0.0,0.0,0.0,0.0,0.0,0.0,0.0,0.0,0.0,0.0,0.0,0.0,0.0,0.0,0.0,0.0,0.0,0.0,0.0,0.0,0.0,0.0,0.0,0.0,0.0,0.0,0.0,0.0,0.0,0.0,0.0,0.0,0.0,0.0,0.0,0.0,0.0,0.0,0.0,0.0,0.0,0.0,0.0,0.0,0.0,0.0,0.0,0.0,0.0,0.0,0.0,0.0,0.0,0.0,0.0,0.0,0.0,0.0,0.0,0.0,0.0,0.0,0.0,0.0,0.0,0.0,0.0,0.0,0.0,0.0,0.0,0.0,0.0,0.0,0.0,0.0,0.0,0.0,0.0,0.0,0.0,0.0,0.0,0.0,0.0,0.0,0.0,0.0,0.0,0.0,0.0,0.0,0.0,0.0,0.0,0.0,0.0,0.0,0.0,0.0,0.0,0.0,0.0,0.0,0.0,0.0,0.0,0.0,0.0,0.0,0.0,0.0,0.0,0.0,0.0,0.0,0.0,0.0,0.0,0.0,0.0,0.0,0.0,0.0,0.0,0.0,0.0,0.0,0.0,0.0,0.0,0.0,0.0,0.0,0.0,0.0,0.0,0.0,0.0,0.0,0.0,0.0,0.0,0.0,0.0,0.0,0.0,0.0,0.0,0.0,0.0,0.0,0.0,0.0,0.0,0.0,0.0,0.0,0.0,0.0,0.0,0.0,0.0,0.0,0.0,0.0,0.0,0.0,0.0,0.0,0.0,0.0,0.0,0.0,0.0,0.0,0.0,0.0,0.0,0.0,0.0,0.0,0.0,0.0,0.0,0.0,0.0,0.0,0.0,0.0,0.0,0.0,0.0,0.0,0.0,0.0,0.0,0.0,0.0,0.0,0.0,0.0,0.0,0.0,0.0,0.0,0.0,0.0,0.0,0.0,0.0,0.0,0.0,0.0,0.0,0.0,0.0,0.0,0.0,0.0,0.0,0.0,0.0,0.0,0.0,0.0,0.0,0.0,0.0,0.0,0.0,0.0,0.0,0.0,0.0,0.0,0.0,0.0,0.0,0.0,0.0,0.0,0.0,0.0,0.0,0.0,0.0,0.0,0.0,0.0,0.0,0.0,0.0,0.0,0.0,0.0,0.0,0.0,0.0,0.0,0.0,0.0,0.0,0.0,0.0,0.0,0.0,0.0,0.0,0.0,0.0,0.0,0.0,0.0,0.0,0.0,0.0,0.0,0.0,0.0,0.0,0.0,0.0,0.0,0.0,0.0,0.0,0.0,0.0,0.0,0.0,0.0,0.0,0.0,0.0,0.0,0.0,0.0,0.0,0.0,0.0,0.0,0.0,0.0,0.0,0.0,0.0,0.0,0.0,0.0,0.0,0.0,0.0,0.0,0.0,0.0,0.0,0.0,0.0,0.0,0.0,0.0,0.0,0.0,0.0,0.0,0.0,0.0,0.0,0.0,0.0,0.0,0.0,0.0,0.0,0.0,0.0,0.0,0.0,0.0,0.0,0.0,0.0,0.0,0.0,0.0,0.0,0.0,0.0,0.0,0.0,0.0,0.0,0.0,0.0,0.0,0.0,0.0,0.0,0.0,0.0,0.0,0.0,0.0,0.0,0.0,0.0,0.0,0.0,0.0,0.0,0.0,0.0,0.0,0.0,0.0,0.0,0.0,0.0,0.0,0.0,0.0,0.0,0.0,0.0,0.0,0.0,0.0,0.0,0.0,0.0,0.0,0.0,0.0,0.0,0.0,0.0,0.0,0.0,0.0,0.0,0.0,0.0,0.0,0.0,0.0,0.0,0.0,0.0,0.0,0.0,0.0,0.0,0.0,0.0,0.0,0.0,0.0,0.0,0.0,0.0,0.0,0.0,0.0,0.0,0.0,0.0,0.0,0.0,0.0,0.0,0.0,0.0,0.0,0.0,0.0,0.0,0.0,0.0,0.0,0.0,0.0,0.0,0.0,0.0,0.0,0.0,0.0,0.0,0.0,0.0,0.0,0.0,0.0,0.0,0.0,0.0,0.0,0.0,0.0,0.0,0.0,0.0,0.0,0.0,0.0,0.0,0.0,0.0,0.0,0.0,0.0,0.0,0.0,0.0,0.0,0.0,0.0,0.0,0.0,0.0,0.0,0.0,0.0,0.0,0.0,0.0,0.0,0.0,0.0,0.0,0.0,0.0,0.0,0.0,0.0,0.0,0.0,0.0,0.0,0.0,0.0,0.0,0.0,0.0,0.0,0.0,0.0,0.0,0.0,0.0,0.0,0.0,0.0,0.0,0.0,0.0,0.0,0.0,0.0,0.0,0.0,0.0,0.0,0.0,0.0,0.0,0.0,0.0,0.0,0.0,0.0,0.0,0.0,0.0,0.0,0.0,0.0,0.0,0.0,0.0,0.0,0.0,0.0,0.0,0.0,0.0,0.0,0.0,0.0,0.0,0.0,0.0,0.0,0.0,0.0,0.0,0.0,0.0,0.0,0.0,0.0,0.0,0.0,0.0,0.0,0.0,0.0,0.0,0.0,0.0,0.0,0.0,0.0,0.0,0.0,0.0,0.0,0.0,0.0,0.0,0.0,0.0,0.0,0.0,0.0,0.0,0.0,0.0,0.0,0.0,0.0,0.0,0.0,0.0,0.0,0.0,0.0,0.0,0.0,0.0,0.0,0.0,0.0,0.0,0.0,0.0,0.0,0.0,0.0,0.0,0.0,0.0,0.0,0.0,0.0,0.0,0.0,0.0,0.0,0.0,0.0,0.0,0.0,0.0,0.0,0.0,0.0,0.0,0.0,0.0,0.0,0.0,0.0,0.0,0.0,0.0,0.0,0.0,0.0,0.0,0.0,0.0,0.0,0.0,0.0,0.0,0.0,0.0,0.0,0.0,0.0,0.0,0.0,0.0,0.0,0.0,0.0,0.0,0.0,0.0,0.0,0.0,0.0,0.0,0.0,0.0,0.0,0.0,0.0,0.0,0.0,0.0,0.0,0.0,0.0,0.0,0.0,0.0,0.0,0.0,0.0,0.0,0.0,0.0,0.0,0.0,0.0,0.0,0.0,0.0,0.0,0.0,0.0,0.0,0.0,0.0,0.0,0.0,0.0,0.0,0.0,0.0,0.0,0.0,0.0,0.0,0.0,0.0,0.0,0.0,0.0,0.0,0.0,0.0,0.0,0.0,0.0,0.0,0.0,0.0,0.0,0.0,0.0,0.0,0.0,1.8647,0.0,0.0,0.0,0.0,0.0,0.0,0.0,0.0,0.0,0.0,0.0,0.0,0.0,0.0,0.0,0.0,0.0,0.0,0.0,0.0,0.0,0.0,0.0,0.0,0.0,0.0,0.0,0.0,0.0,0.0,0.0,0.0,0.0,0.0,0.0,0.0,0.0,0.0,0.0,0.0,0.0,0.0,0.0,0.0,0.0,0.0,0.0,0.0,0.0,0.0,0.0,0.0,0.0,0.0,0.0,0.0,0.0,0.0,0.0,0.0,0.0,0.0,0.0,0.0,0.0,0.0,0.0,0.0,0.0,0.0,0.0,0.0,0.0,0.0,0.0,0.0,0.0,0.0,0.0,0.0,0.0,0.0,0.0,0.0,0.0,0.0,0.0,0.0,0.0,0.0,0.0,0.0,0.0,0.0,0.0,0.0,0.0,0.0,0.0,0.0,0.0,0.0,0.0,0.0,0.0,0.0,0.0,0.0,0.0,0.0,1.6317,1.8499,1.5949,1.5885,1.8735,0.0,0.0,0.0,0.0,0.0,0.0,0.0,0.0,0.0,0.0,0.0,0.0,0.0,0.0,0.0,0.0,0.0,0.0,0.0,0.0,0.0,0.0,0.0,0.0,0.0,0.0,0.0,0.0,0.0,0.0,0.0,0.0,0.0,0.0,0.0,0.0,0.0,0.0,0.0,0.0,0.0,0.0,0.0,0.0,0.0,0.0,0.0,0.0,0.0,0.0,0.0,0.0,0.0,0.0,0.0,0.0,0.0,0.0,0.0,0.0,0.0,0.0,0.0,0.0,0.0,0.0,0.0,0.0,0.0,0.0,0.0,0.0,0.0,0.0,0.0,0.0,0.0,0.0,0.0,0.0,0.0,0.0,0.0,0.0,0.0,0.0,0.0,0.0,0.0,0.0,0.0,0.0,0.0,0.0,0.0,0.0,0.0,0.0,0.0,0.0,0.0,0.0,0.0,0.0,0.0,0.0,0.0,0.0,0.0,0.0,0.0,0.0,1.6186,1.6185,1.8933,0.0,0.0,0.0,0.0,0.0,0.0,0.0,0.0,0.0,0.0,0.0,0.0,0.0,0.0,0.0,0.0,0.0,0.0,0.0,0.0,0.0,0.0,0.0,0.0,0.0,0.0,0.0,0.0,0.0,0.0,0.0,0.0,0.0,0.0,0.0,0.0,0.0,0.0,0.0,0.0,0.0,0.0,0.0,0.0,0.0,0.0,0.0,0.0,0.0,0.0,0.0,0.0,0.0,0.0,0.0,0.0,0.0,0.0,0.0,0.0,0.0,0.0,0.0,0.0,0.0,0.0,0.0,0.0,0.0,0.0,0.0,0.0,0.0,0.0,0.0,0.0,0.0,0.0,0.0,0.0,0.0,0.0,0.0,0.0,0.0,0.0,0.0,0.0,0.0,0.0,0.0,0.0,0.0,0.0,0.0,0.0,0.0,0.0,0.0,0.0,0.0,0.0,0.0,0.0,0.0,0.0,0.0,0.0,0.0,0.0,1.6132,1.9011,1.8253,0.0,2.0061,0.0,0.0,0.0,0.0,0.0,0.0,0.0,0.0,0.0,0.0,0.0,0.0,0.0,0.0,0.0,0.0,0.0,0.0,0.0,0.0,0.0,0.0,0.0,0.0,0.0,0.0,0.0,0.0,0.0,0.0,0.0,0.0,0.0,0.0,0.0,0.0,0.0,0.0,0.0,0.0,0.0,0.0,0.0,0.0,0.0,0.0,0.0,0.0,0.0,0.0,0.0,0.0,0.0,0.0,0.0,0.0,0.0,0.0,0.0,0.0,0.0,0.0,0.0,0.0,0.0,0.0,0.0,0.0,0.0,0.0,0.0,0.0,0.0,0.0,0.0,0.0,0.0,0.0,0.0,0.0,0.0,0.0,0.0,0.0,0.0,0.0,0.0,0.0,0.0,0.0,0.0,0.0,0.0,0.0,0.0,0.0,0.0,0.0,0.0,0.0,0.0,0.0,0.0,0.0,0.0,0.0,0.0,0.0,0.0,0.0,1.6517,1.8171,1.8512,1.8978,0.0,0.0,0.0,0.0,0.0,0.0,0.0,0.0,0.0,0.0,0.0,0.0,0.0,0.0,0.0,0.0,0.0,0.0,0.0,0.0,0.0,0.0,0.0,0.0,0.0,0.0,0.0,0.0,0.0,0.0,0.0,0.0,0.0,0.0,0.0,0.0,0.0,0.0,0.0,0.0,0.0,0.0,0.0,0.0,0.0,0.0,0.0,0.0,0.0,0.0,0.0,0.0,0.0,0.0,0.0,0.0,0.0,0.0,0.0,0.0,0.0,0.0,0.0,0.0,0.0,0.0,0.0,0.0,0.0,0.0,0.0,0.0,0.0,0.0,0.0,0.0,0.0,0.0,0.0,0.0,0.0,0.0,0.0,0.0,0.0,0.0,0.0,0.0,0.0,0.0,0.0,0.0,0.0,0.0,0.0,0.0,0.0,0.0,0.0,0.0,0.0,0.0,0.0,0.0,0.0,0.0,0.0,0.0,0.0,0.0,1.6198,1.6714,1.7793,1.834,1.875,1.9092,0.0,0.0,0.0,0.0,0.0,0.0,0.0,0.0,0.0,0.0,0.0,0.0,0.0,0.0,0.0,0.0,0.0,0.0,0.0,0.0,0.0,0.0,0.0,0.0,0.0,0.0,0.0,0.0,0.0,0.0,0.0,0.0,0.0,0.0,0.0,0.0,0.0,0.0,0.0,0.0,0.0,0.0,0.0,0.0,0.0,0.0,0.0,0.0,0.0,0.0,0.0,0.0,0.0,0.0,0.0,0.0,0.0,0.0,0.0,0.0,0.0,0.0,0.0,0.0,0.0,0.0,0.0,0.0,0.0,0.0,0.0,0.0,0.0,0.0,0.0,0.0,0.0,0.0,0.0,0.0,0.0,0.0,0.0,0.0,0.0,0.0,0.0,0.0,0.0,0.0,0.0,0.0,0.0,0.0,0.0,0.0,0.0,0.0,0.0,0.0,0.0,0.0,0.0,0.0,0.0,0.0,0.0,0.0,1.7315,1.6082,1.6403,1.8483,1.8014,1.8027,0.0,0.0,0.0,0.0,0.0,0.0,0.0,0.0,0.0,0.0,0.0,0.0,0.0,0.0,0.0,0.0,0.0,0.0,0.0,0.0,0.0,0.0,0.0,0.0,0.0,0.0,0.0,0.0,0.0,0.0,0.0,0.0,0.0,0.0,0.0,0.0,0.0,0.0,0.0,0.0,0.0,0.0,0.0,0.0,0.0,0.0,0.0,0.0,0.0,0.0,0.0,0.0,0.0,0.0,0.0,0.0,0.0,0.0,0.0,0.0,0.0,0.0,0.0,0.0,0.0,0.0,0.0,0.0,0.0,0.0,0.0,0.0,0.0,0.0,0.0,0.0,0.0,0.0,0.0,0.0,0.0,0.0,0.0,0.0,0.0,0.0,0.0,0.0,0.0,0.0,0.0,0.0,0.0,0.0,0.0,0.0,0.0,0.0,0.0,0.0,0.0,0.0,0.0,0.0,0.0,0.0,0.0,0.0,0.0,1.4836,1.5604,1.6425,1.7389,1.79,1.8046,0.0,0.0,0.0,0.0,0.0,0.0,0.0,0.0,0.0,0.0,0.0,0.0,0.0,0.0,0.0,0.0,0.0,0.0,0.0,0.0,0.0,0.0,0.0,0.0,0.0,0.0,0.0,0.0,0.0,0.0,0.0,0.0,0.0,0.0,0.0,0.0,0.0,0.0,0.0,0.0,0.0,0.0,0.0,0.0,0.0,0.0,0.0,0.0,0.0,0.0,0.0,0.0,0.0,0.0,0.0,0.0,0.0,0.0,0.0,0.0,0.0,0.0,0.0,0.0,0.0,0.0,0.0,0.0,0.0,0.0,0.0,0.0,0.0,0.0,0.0,0.0,0.0,0.0,0.0,0.0,0.0,0.0,0.0,0.0,0.0,0.0,0.0,0.0,0.0,0.0,0.0,0.0,0.0,0.0,0.0,0.0,0.0,0.0,0.0,0.0,0.0,0.0,0.0,0.0,0.0,0.0,0.0,0.0,0.0,1.3274,0.0,1.5462,1.5841,1.6726,1.7003,0.0,0.0,0.0,0.0,0.0,0.0,0.0,0.0,0.0,0.0,0.0,0.0,0.0,0.0,0.0,0.0,0.0,0.0,0.0,0.0,0.0,0.0,0.0,0.0,0.0,0.0,0.0,0.0,0.0,0.0,0.0,0.0,0.0,0.0,0.0,0.0,0.0,0.0,0.0,0.0,0.0,0.0,0.0,0.0,0.0,0.0,0.0,0.0,0.0,0.0,0.0,0.0,0.0,0.0,0.0,0.0,0.0,0.0,0.0,0.0,0.0,0.0,0.0,0.0,0.0,0.0,0.0,0.0,0.0,0.0,0.0,0.0,0.0,0.0,0.0,0.0,0.0,0.0,0.0,0.0,0.0,0.0,0.0,0.0,0.0,0.0,0.0,0.0,0.0,0.0,0.0,0.0,0.0,0.0,0.0,0.0,0.0,0.0,0.0,0.0,0.0,0.0,0.0,0.0,0.0,0.0,0.0,0.0,1.2993,1.3008,1.2936,1.3345,1.3985,1.4453,1.4822,0.0,0.0,0.0,0.0,0.0,0.0,0.0,0.0,0.0,0.0,0.0,0.0,0.0,0.0,0.0,0.0,0.0,0.0,0.0,0.0,0.0,0.0,0.0,0.0,0.0,0.0,0.0,0.0,0.0,0.0,0.0,0.0,0.0,0.0,0.0,0.0,0.0,0.0,0.0,0.0,0.0,0.0,0.0,0.0,0.0,0.0,0.0,0.0,0.0,0.0,0.0,0.0,0.0,0.0,0.0,0.0,0.0,0.0,0.0,0.0,0.0,0.0,0.0,0.0,0.0,0.0,0.0,0.0,0.0,0.0,0.0,0.0,0.0,0.0,0.0,0.0,0.0,0.0,0.0,0.0,0.0,0.0,0.0,0.0,0.0,0.0,0.0,0.0,0.0,0.0,0.0,0.0,0.0,0.0,0.0,0.0,0.0,0.0,0.0,0.0,0.0,0.0,0.0,0.0,0.0,0.0,0.0,0.0,0.0,1.2708,1.2254,1.278,1.432,1.4256,1.4571,0.0,0.0,0.0,0.0,0.0,0.0,0.0,0.0,0.0,0.0,0.0,0.0,0.0,0.0,0.0,0.0,0.0,0.0,0.0,0.0,0.0,0.0,0.0,0.0,0.0,0.0,0.0,0.0,0.0,0.0,0.0,0.0,0.0,0.0,0.0,0.0,0.0,0.0,0.0,0.0,0.0,0.0,0.0,0.0,0.0,0.0,0.0,0.0,0.0,0.0,0.0,0.0,0.0,0.0,0.0,0.0,0.0,0.0,0.0,0.0,0.0,0.0,0.0,0.0,0.0,0.0,0.0,0.0,0.0,0.0,0.0,0.0,0.0,0.0,0.0,0.0,0.0,0.0,0.0,0.0,0.0,0.0,0.0,0.0,0.0,0.0,0.0,0.0,0.0,0.0,0.0,0.0,0.0,0.0,0.0,0.0,0.0,0.0,0.0,0.0,0.0,0.0,0.0,0.0,0.0,0.0,0.0,0.0,0.0,1.2137,1.1158,1.1197,1.2475,1.3008,1.3532,1.4109,0.0,0.0,0.0,0.0,0.0,0.0,0.0,0.0,0.0,0.0,0.0,0.0,0.0,0.0,0.0,0.0,0.0,0.0,0.0,0.0,0.0,0.0,0.0,0.0,0.0,0.0,0.0,0.0,0.0,0.0,0.0,0.0,0.0,0.0,0.0,0.0,0.0,0.0,0.0,0.0,0.0,0.0,0.0,0.0,0.0,0.0,0.0,0.0,0.0,0.0,0.0,0.0,0.0,0.0,0.0,0.0,0.0,0.0,0.0,0.0,0.0,0.0,0.0,0.0,0.0,0.0,0.0,0.0,0.0,0.0,0.0,0.0,0.0,0.0,0.0,0.0,0.0,0.0,0.0,0.0,0.0,0.0,0.0,0.0,0.0,0.0,0.0,0.0,0.0,0.0,0.0,0.0,0.0,0.0,0.0,0.0,0.0,0.0,0.0,0.0,0.0,0.0,0.0,0.0,0.0,0.0,0.0,0.0,1.1489,0.9828,0.9086,0.9315,1.1059,1.1908,0.0,0.0,0.0,0.0,0.0,0.0,0.0,0.0,0.0,0.0,0.0,0.0,0.0,0.0,0.0,0.0,0.0,0.0,0.0,0.0,0.0,0.0,0.0,0.0,0.0,0.0,0.0,0.0,0.0,0.0,0.0,0.0,0.0,0.0,0.0,0.0,0.0,0.0,0.0,0.0,0.0,0.0,0.0,0.0,0.0,0.0,0.0,0.0,0.0,0.0,0.0,0.0,0.0,0.0,0.0,0.0,0.0,0.0,0.0,0.0,0.0,0.0,0.0,0.0,0.0,0.0,0.0,0.0,0.0,0.0,0.0,0.0,0.0,0.0,0.0,0.0,0.0,0.0,0.0,0.0,0.0,0.0,0.0,0.0,0.0,0.0,0.0,0.0,0.0,0.0,0.0,0.0,0.0,0.0,0.0,0.0,0.0,0.0,0.0,0.0,0.0,0.0,0.0,0.0,0.0,0.0,0.0,0.0,0.0,1.1265,1.0113,1.0103,1.1373,1.1468,1.1903,0.0,0.0,0.0,0.0,0.0,0.0,0.0,0.0,0.0,0.0,0.0,0.0,0.0,0.0,0.0,0.0,0.0,0.0,0.0,0.0,0.0,0.0,0.0,0.0,0.0,0.0,0.0,0.0,0.0,0.0,0.0,0.0,0.0,0.0,0.0,0.0,0.0,0.0,0.0,0.0,0.0,0.0,0.0,0.0,0.0,0.0,0.0,0.0,0.0,0.0,0.0,0.0,0.0,0.0,0.0,0.0,0.0,0.0,0.0,0.0,0.0,0.0,0.0,0.0,0.0,0.0,0.0,0.0,0.0,0.0,0.0,0.0,0.0,0.0,0.0,0.0,0.0,0.0,0.0,0.0,0.0,0.0,0.0,0.0,0.0,0.0,0.0,0.0,0.0,0.0,0.0,0.0,0.0,0.0,0.0,0.0,0.0,0.0,0.0,0.0,0.0,0.0,0.0,0.0,0.0,0.0,0.0,0.0,1.2308,1.1407,1.0561,1.0796,1.2192,1.1957,1.1985,0.0,0.0,0.0,0.0,0.0,0.0,0.0,0.0,0.0,0.0,0.0,0.0,0.0,0.0,0.0,0.0,0.0,0.0,0.0,0.0,0.0,0.0,0.0,0.0,0.0,0.0,0.0,0.0,0.0,0.0,0.0,0.0,0.0,0.0,0.0,0.0,0.0,0.0,0.0,0.0,0.0,0.0,0.0,0.0,0.0,0.0,0.0,0.0,0.0,0.0,0.0,0.0,0.0,0.0,0.0,0.0,0.0,0.0,0.0,0.0,0.0,0.0,0.0,0.0,0.0,0.0,0.0,0.0,0.0,0.0,0.0,0.0,0.0,0.0,0.0,0.0,0.0,0.0,0.0,0.0,0.0,0.0,0.0,0.0,0.0,0.0,0.0,0.0,0.0,0.0,0.0,0.0,0.0,0.0,0.0,0.0,0.0,0.0,0.0,0.0,0.0,0.0,0.0,0.0,0.0,0.0,0.0,0.0,1.2386,1.1681,1.1159,1.1243,1.1943,1.2194,1.2071,0.0,0.0,0.0,0.0,0.0,0.0,0.0,0.0,0.0,0.0,0.0,0.0,0.0,0.0,0.0,0.0,0.0,0.0,0.0,0.0,0.0,0.0,0.0,0.0,0.0,0.0,0.0,0.0,0.0,0.0,0.0,0.0,0.0,0.0,0.0,0.0,0.0,0.0,0.0,0.0,0.0,0.0,0.0,0.0,0.0,0.0,0.0,0.0,0.0,0.0,0.0,0.0,0.0,0.0,0.0,0.0,0.0,0.0,0.0,0.0,0.0,0.0,0.0,0.0,0.0,0.0,0.0,0.0,0.0,0.0,0.0,0.0,0.0,0.0,0.0,0.0,0.0,0.0,0.0,0.0,0.0,0.0,0.0,0.0,0.0,0.0,0.0,0.0,0.0,0.0,0.0,0.0,0.0,0.0,0.0,0.0,0.0,0.0,0.0,0.0,0.0,0.0,0.0,0.0,0.0,0.0,0.0,0.0,1.2539,1.1571,1.1913,1.1812,1.1156,1.1223,1.1525,0.0,0.0,0.0,0.0,0.0,0.0,0.0,0.0,0.0,0.0,0.0,0.0,0.0,0.0,0.0,0.0,0.0,0.0,0.0,0.0,0.0,0.0,0.0,0.0,0.0,0.0,0.0,0.0,0.0,0.0,0.0,0.0,0.0,0.0,0.0,0.0,0.0,0.0,0.0,0.0,0.0,0.0,0.0,0.0,0.0,0.0,0.0,0.0,1.0498,0.0,0.0,0.0,0.0,0.0,0.0,0.0,0.0,0.0,0.0,0.0,0.0,0.0,0.0,0.0,0.0,0.0,0.0,0.0,0.0,0.0,0.0,0.0,0.0,0.0,0.0,0.0,0.0,0.0,0.0,0.0,0.0,0.0,0.0,0.0,0.0,0.0,0.0,0.0,0.0,0.0,0.0,0.0,0.0,0.0,0.0,0.0,0.0,0.0,0.0,0.0,0.0,0.0,0.0,0.0,0.0,0.0,0.0,0.0,1.2403,1.1946,1.2336,1.2161,1.139,1.0898,1.1399,0.0,0.0,0.0,0.0,0.0,0.0,0.0,0.0,0.0,0.0,0.0,0.0,0.0,0.0,0.0,0.0,0.0,0.0,0.0,0.0,0.0,0.0,0.0,0.0,0.0,0.0,0.0,0.0,0.0,0.0,0.0,0.0,0.0,0.0,0.0,0.0,0.0,0.0,0.0,0.0,0.0,0.0,0.0,0.0,0.0,0.0,0.0,0.0,0.0,0.0,0.0,0.0,0.0,0.0,0.0,0.0,0.0,0.0,0.0,0.0,0.0,0.0,0.0,0.0,0.0,0.0,0.0,0.0,0.0,0.0,0.0,0.0,0.0,0.0,0.0,0.0,0.0,0.0,0.0,0.0,0.0,0.0,0.0,0.0,0.0,0.0,0.0,0.0,0.0,0.0,0.0,0.0,0.0,0.0,0.0,0.0,0.0,0.0,0.0,0.0,0.0,0.0,0.0,0.0,0.0,0.0,0.0,1.2266,1.222,1.2093,1.2441,1.2322,1.1581,1.0816,1.1462,1.3643,0.0,0.0,0.0,0.0,0.0,0.0,0.0,0.0,0.0,0.0,0.0,0.0,0.0,0.0,0.0,0.0,0.0,0.0,0.0,0.0,0.0,0.0,0.0,0.0,0.0,0.0,0.0,0.0,0.0,0.0,0.0,0.0,0.0,0.0,0.0,0.0,0.0,0.0,1.2407,1.216,0.0,0.0,0.0,0.0,0.0,0.0,0.0,0.0,1.0016,0.0,0.0,0.0,0.0,0.0,0.0,0.0,0.0,0.0,0.0,0.0,0.0,0.0,0.0,0.0,0.0,0.0,0.0,0.0,0.0,0.0,0.0,0.0,0.0,0.0,0.0,0.0,0.0,0.0,0.0,0.0,0.0,0.0,0.0,0.0,0.0,0.0,0.0,0.0,0.0,0.0,0.0,0.0,0.0,0.0,0.0,0.0,0.0,0.0,0.0,0.0,0.0,0.0,0.0,0.0,0.0,1.1362,1.2493,1.2271,1.0636,1.2124,1.2007,1.017,1.0271,1.1614,1.4067,0.0,0.0,0.0,0.0,0.0,0.0,0.0,0.0,0.0,0.0,0.0,0.0,0.0,0.0,0.0,0.0,0.0,0.0,0.0,0.0,0.0,0.0,0.0,0.0,0.0,0.0,0.0,0.0,0.0,0.0,0.0,0.0,0.0,0.0,0.0,0.0,0.0,0.0,0.0,1.2056,1.2506,0.0,0.0,0.0,0.0,0.0,0.0,0.0,0.0,0.9465,0.0,0.0,0.0,0.0,0.0,0.0,0.0,0.0,0.0,0.0,0.0,0.0,0.0,0.0,0.0,0.0,0.0,0.0,0.0,0.0,0.0,0.0,0.0,0.0,0.0,0.0,0.0,0.0,0.0,0.0,0.0,0.0,0.0,0.0,0.0,0.0,0.0,0.0,0.0,0.0,0.0,0.0,0.0,0.0,0.0,0.0,0.0,0.0,0.0,0.0,0.0,0.0,0.0,0.0,0.0,1.1931,1.1993,1.1447,1.0296,1.1603,1.1662,1.0275,1.0367,1.1605,0.0,0.0,0.0,0.0,0.0,0.0,0.0,0.0,0.0,0.0,0.0,0.0,0.0,0.0,0.0,0.0,0.0,0.0,0.0,0.0,0.0,0.0,0.0,0.0,0.0,0.0,0.0,0.0,0.0,0.0,0.0,0.0,0.0,0.0,0.0,0.0,0.0,0.0,0.0,0.0,1.1733,1.1633,1.1331,0.0,0.0,0.0,0.0,0.0,0.0,0.997,0.9947,0.0,0.0,0.0,0.0,0.0,0.0,0.0,0.0,0.0,0.0,0.0,0.0,0.0,0.0,0.0,0.0,0.0,0.0,0.0,0.0,0.0,0.0,0.0,0.0,0.0,0.0,0.0,0.0,0.0,0.0,0.0,0.0,0.0,0.0,0.0,0.0,0.0,0.0,0.0,0.0,0.0,0.0,0.0,0.0,0.0,0.0,0.0,0.0,0.0,0.0,0.0,0.0,0.0,0.0,0.0,1.2523,1.1601,1.0723,1.0048,1.0809,1.0978,1.0445,1.0399,1.1532,0.0,0.0,0.0,0.0,0.0,0.0,0.0,0.0,0.0,0.0,0.0,0.0,0.0,0.0,0.0,0.0,0.0,0.0,0.0,0.0,0.0,0.0,0.0,0.0,0.0,0.0,0.0,0.0,0.0,0.0,0.0,0.0,0.0,0.0,0.0,0.0,0.0,0.0,0.0,0.0,0.0,1.1217,1.133,1.0701,0.0,0.0,0.0,0.0,1.0284,1.0461,0.0,0.0,0.0,0.0,0.0,0.0,0.0,0.0,0.0,0.0,0.0,0.0,0.0,0.0,0.0,0.0,0.0,0.0,0.0,0.0,0.0,0.0,0.0,0.0,0.0,0.0,0.0,0.0,0.0,0.0,0.0,0.0,0.0,0.0,0.0,0.0,0.0,0.0,0.0,0.0,0.0,0.0,0.0,0.0,0.0,0.0,0.0,0.0,0.0,0.0,0.0,0.0,0.0,0.0,0.0,0.0,1.2507,1.2,1.0926,0.9255,0.9484,0.9604,0.9481,0.9803,1.1424,0.0,0.0,0.0,0.0,0.0,0.0,0.0,0.0,0.0,0.0,0.0,0.0,0.0,0.0,0.0,0.0,0.0,0.0,0.0,0.0,0.0,0.0,0.0,0.0,0.0,0.0,0.0,0.0,0.0,0.0,0.0,0.0,0.0,0.0,0.0,0.0,0.0,0.0,0.0,0.0,0.0,1.2708,1.1389,1.1369,1.1153,0.0,0.0,0.0,1.0337,1.0734,0.0,0.0,0.0,0.0,0.0,0.0,0.0,0.0,0.0,0.0,0.0,0.0,0.0,0.0,0.0,0.0,0.0,0.0,0.0,0.0,0.0,0.0,0.0,0.0,0.0,0.0,0.0,0.0,0.0,0.0,0.0,0.0,0.0,0.0,0.0,0.0,0.0,0.0,0.0,0.0,0.0,0.0,0.0,0.0,0.0,0.0,0.0,0.0,0.0,0.0,0.0,0.0,0.0,0.0,0.0,1.4213,1.2974,1.2138,1.0961,0.9493,0.9992,1.0301,1.0248,0.9982,1.1377,0.0,0.0,0.0,0.0,0.0,0.0,0.0,0.0,0.0,0.0,0.0,0.0,0.0,0.0,0.0,0.0,0.0,0.0,0.0,0.0,0.0,0.0,0.0,0.0,0.0,0.0,0.0,0.0,0.0,0.0,0.0,0.0,0.0,0.0,0.0,0.0,0.0,0.0,0.0,0.0,0.0,0.0,1.1707,1.1837,0.0,0.0,0.0,1.0984,1.1214,0.0,0.0,0.0,0.0,0.0,0.0,0.0,0.0,0.0,0.0,0.0,0.0,0.0,0.0,0.0,0.0,0.0,0.0,0.0,0.0,0.0,0.0,0.0,0.0,0.0,0.0,0.0,0.0,0.0,0.0,0.0,0.0,0.0,0.0,0.0,0.0,0.0,0.0,0.0,0.0,0.0,0.0,0.0,0.0,0.0,0.0,0.0,0.0,0.0,0.0,0.0,0.0,0.0,0.0,0.0,0.0,0.0,1.3624,1.2123,1.0902,0.9994,1.0428,1.0726,1.0877,1.0286,0.0,0.0,0.0,0.0,0.0,0.0,0.0,0.0,0.0,0.0,0.0,0.0,0.0,0.0,0.0,0.0,0.0,0.0,0.0,0.0,0.0,0.0,0.0,0.0,0.0,0.0,0.0,1.2307,0.0,0.0,0.0,0.0,0.0,0.0,0.0,0.0,0.0,0.0,0.0,0.0,0.0,0.0,1.2962,1.2305,1.2359,1.2268,0.0,0.0,1.1578,1.1631,1.175,1.1762,0.0,0.0,0.0,0.0,0.0,0.0,0.0,0.0,0.0,0.0,0.0,0.0,0.0,0.0,0.0,0.0,0.0,0.0,0.0,0.0,0.0,0.0,0.0,0.0,0.0,0.0,0.0,0.0,0.0,0.0,0.0,0.0,0.0,0.0,0.0,0.0,0.0,0.0,0.0,0.0,0.0,0.0,0.0,0.0,0.0,0.0,0.0,0.0,0.0,0.0,0.0,0.0,0.0,0.0,0.0,1.4162,1.1889,1.0681,1.0619,1.0072,1.0063,1.0611,1.05,1.1945,0.0,0.0,0.0,0.0,0.0,0.0,0.0,0.0,0.0,0.0,0.0,0.0,0.0,0.0,0.0,0.0,0.0,0.0,0.0,0.0,0.0,0.0,0.0,0.0,0.0,0.0,0.0,0.0,0.0,0.0,0.0,0.0,0.0,0.0,0.0,0.0,0.0,0.0,0.0,0.0,0.0,1.4161,1.3151,1.3021,1.2689,0.0,0.0,1.1417,1.0973,1.2061,1.256,1.1275,0.0,0.0,0.0,0.0,0.0,0.0,0.0,0.0,0.0,0.0,0.0,0.0,0.0,0.0,0.0,0.0,0.0,0.0,0.0,0.0,0.0,0.0,0.0,0.0,0.0,0.0,0.0,0.0,0.0,0.0,0.0,0.0,0.0,0.0,0.0,0.0,0.0,0.0,0.0,0.0,0.0,0.0,0.0,0.0,0.0,0.0,0.0,0.0,0.0,0.0,0.0,0.0,0.0,1.4994,1.4886,1.2596,1.14,1.1371,1.1127,1.1078,1.1268,1.0691,1.147,0.0,0.0,0.0,0.0,0.0,0.0,0.0,0.0,0.0,0.0,0.0,0.0,0.0,0.0,0.0,0.0,0.0,0.0,0.0,0.0,0.0,0.0,0.0,0.0,0.0,0.0,0.0,0.0,1.1019,1.1015,1.204,0.0,0.0,0.0,0.0,0.0,0.0,0.0,0.0,0.0,0.0,1.3938,1.3217,1.3542,0.0,0.0,1.1974,1.1816,1.137,1.1705,1.1837,1.125,1.1416,0.0,0.0,0.0,0.0,0.0,0.0,0.0,0.0,0.0,0.0,0.0,0.0,0.0,0.0,0.0,0.0,0.0,0.0,0.0,0.0,0.0,0.0,0.0,0.0,0.0,0.0,0.0,0.0,0.0,0.0,0.0,0.0,0.0,0.0,0.0,0.0,0.0,0.0,0.0,0.0,0.0,0.0,0.0,0.0,0.0,0.0,0.0,0.0,0.0,0.0,0.0,0.0,1.5381,1.5697,1.3391,1.2149,1.2091,1.1896,1.1696,1.1482,1.0842,1.1226,0.0,0.0,0.0,0.0,0.0,0.0,0.0,0.0,0.0,0.0,0.0,0.0,0.0,0.0,0.0,0.0,0.0,0.0,0.0,0.0,0.0,0.0,0.0,0.0,0.0,0.0,0.0,0.0,1.0975,1.1079,1.2148,0.0,0.0,0.0,0.0,0.0,0.0,0.0,0.0,0.0,0.0,1.351,1.2997,1.3357,1.3371,1.2338,1.2171,1.2044,1.178,1.1687,1.1572,1.1379,0.0,0.0,0.0,0.0,0.0,0.0,0.0,0.0,0.0,0.0,0.0,0.0,0.0,0.0,0.0,0.0,0.0,0.0,0.0,0.0,0.0,0.0,0.0,0.0,0.0,0.0,0.0,0.0,0.0,0.0,0.0,0.0,0.0,0.0,0.0,0.0,0.0,0.0,0.0,0.0,0.0,0.0,0.0,0.0,0.0,0.0,0.0,0.0,0.0,0.0,0.0,0.0,0.0,0.0,1.6611,1.4101,1.2788,1.2728,1.2087,1.1541,1.1076,1.1015,1.1538,1.2692,0.0,0.0,0.0,0.0,0.0,0.0,0.0,0.0,0.0,0.0,0.0,0.0,0.0,0.0,0.0,0.0,0.0,0.0,0.0,0.0,0.0,0.0,0.0,0.0,0.0,0.0,1.2952,1.184,1.1562,0.0,0.0,0.0,0.0,0.0,0.0,0.0,0.0,0.0,0.0,1.3398,1.3095,1.2584,1.2446,1.2364,1.223,1.2073,1.1976,1.1987,1.2119,1.2126,0.0,0.0,0.0,0.0,0.0,0.0,0.0,0.0,0.0,0.0,0.0,0.0,0.0,0.0,0.0,0.0,0.0,0.0,0.0,0.0,0.0,0.0,0.0,0.0,0.0,0.0,0.0,0.0,1.9101,0.0,0.0,0.0,0.0,0.0,0.0,0.0,0.0,0.0,0.0,0.0,1.729,1.7348,0.0,0.0,0.0,0.0,0.0,0.0,0.0,0.0,0.0,0.0,0.0,0.0,1.5984,1.6274,1.4498,1.3307,1.2894,1.2873,1.2629,1.2138,1.2006,1.2334,1.3174,0.0,0.0,0.0,0.0,0.0,0.0,0.0,0.0,0.0,0.0,0.0,0.0,0.0,0.0,0.0,0.0,0.0,0.0,0.0,0.0,0.0,0.0,0.0,0.0,0.0,1.2861,0.0,0.0,0.0,0.0,0.0,0.0,0.0,0.0,0.0,0.0,0.0,1.2543,1.2402,1.2613,1.256,1.1974,1.2382,1.2638,0.0,0.0,0.0,0.0,0.0,0.0,0.0,0.0,0.0,0.0,0.0,0.0,0.0,0.0,0.8076,0.7735,0.7652,0.7569,0.7478,0.0,0.0,0.0,0.0,0.0,0.0,0.0,0.0,0.0,0.0,0.0,0.0,0.0,0.0,0.0,0.0,1.9051,0.0,0.0,0.0,0.0,0.0,0.0,0.0,0.0,1.7819,1.7247,1.6545,1.6655,1.6895,0.0,1.7537,1.8124,0.0,0.0,0.0,0.0,0.0,0.0,0.0,0.0,1.6377,1.6268,1.4872,1.3853,1.337,1.3419,1.3197,1.2643,1.2458,1.2595,1.3101,1.2096,1.2492,0.0,0.0,0.0,0.0,0.0,0.0,0.0,0.0,0.0,0.0,0.0,0.0,0.0,0.0,0.0,0.0,0.0,0.0,0.0,0.0,0.0,0.0,0.0,1.2457,0.0,0.0,0.0,0.0,0.0,0.0,0.0,0.0,0.0,1.342,1.2892,1.2414,1.2158,1.2372,1.231,1.1723,0.0,0.0,0.0,0.0,0.0,0.0,0.0,1.1805,1.1697,1.1742,1.1309,1.002,0.9334,0.8911,0.8677,0.0,0.0,0.7648,0.7505,0.7514,0.7484,0.7139,0.6756,0.6756,0.6154,0.5618,0.0,0.0,0.0,0.0,0.0,0.0,0.0,0.0,1.8949,1.8874,0.0,1.8565,0.0,0.0,0.0,0.0,0.0,0.0,0.0,0.0,1.719,1.6502,1.5858,1.6285,1.6614,1.6817,1.734,1.8067,1.8962,1.893,0.0,0.0,0.0,0.0,0.0,0.0,1.6678,1.6568,1.5228,1.4411,1.4141,1.3694,1.3159,1.2607,1.2423,1.2384,1.2443,1.2797,1.2894,1.2603,1.4038,0.0,0.0,0.0,0.0,0.0,0.0,0.0,0.0,0.0,0.0,0.0,0.0,0.0,0.0,0.0,0.0,0.0,0.0,0.0,0.0,1.1694,0.0,0.0,0.0,0.0,0.0,0.0,0.0,0.0,0.0,0.0,1.3525,1.3188,1.2942,1.2807,0.0,0.0,0.0,0.0,1.1995,1.2014,1.2167,1.2323,1.2461,1.2372,1.2283,1.2302,0.0,0.0,0.9725,0.9969,0.9789,0.8265,0.8328,0.8369,0.7813,0.7779,0.7783,0.7566,0.7246,0.6923,0.649,0.605,0.5555,2.1131,0.0,0.0,0.0,0.0,1.934,1.9415,2.0044,1.9592,1.9656,2.0118,1.9645,0.0,0.0,0.0,0.0,0.0,0.0,1.7504,1.6642,1.6407,1.6203,1.5933,1.6085,1.6383,1.6823,1.7127,1.7228,1.7191,1.7541,1.818,1.9124,0.0,0.0,0.0,0.0,1.6819,1.6442,1.5395,1.46,1.4084,1.4106,1.3898,1.3438,1.3103,1.2991,1.3115,1.2303,1.2444,1.3634,1.289,0.0,0.0,0.0,0.0,0.0,0.0,0.0,0.0,0.0,0.0,0.0,0.0,0.0,0.0,0.0,0.0,0.0,0.0,0.0,1.2822,1.248,1.2539,0.0,0.0,0.0,0.0,0.0,0.0,0.0,0.0,0.0,1.3392,1.2882,1.2493,0.0,0.0,1.197,1.1921,1.1964,1.21,1.2359,0.0,0.0,0.0,1.248,1.2421,1.2442,1.1909,1.1469,1.136,1.0311,0.9461,0.9106,0.8461,0.7866,0.7629,0.7586,0.7601,0.758,0.702,0.6485,0.6381,0.5837,0.5289,2.1074,2.0343,2.0662,2.0757,2.0649,1.9878,1.9894,2.0401,1.9903,1.992,2.0352,1.9927,1.9775,1.9797,1.9009,0.0,0.0,0.0,1.749,1.6925,1.6815,1.6634,1.6355,1.6355,1.665,1.715,1.7076,1.7055,1.7022,1.7027,1.7603,1.868,0.0,0.0,1.8223,1.7722,1.6861,1.575,1.5396,1.4836,1.4007,1.4228,1.4241,1.3993,1.368,1.3498,1.3445,1.2513,1.2477,1.3536,1.2516,1.2767,0.0,0.0,0.0,0.0,0.0,0.0,0.0,0.0,0.0,0.0,0.0,1.4247,0.0,0.0,0.0,0.0,1.2926,1.2213,1.1863,1.2128,0.0,0.0,0.0,0.0,0.0,0.0,0.0,1.3488,1.3276,1.3228,1.3382,1.2932,1.2622,1.2799,1.2246,1.1947,1.2253,0.0,1.2196,1.2393,1.244,1.244,1.248,1.2529,1.2569,1.2579,1.2295,1.187,1.1477,1.0645,0.9858,0.9232,0.8567,0.8043,0.7735,0.7467,0.7354,0.7402,0.6858,0.6372,0.6273,0.5677,0.5183,2.0928,2.0888,2.2117,2.2429,2.2046,2.1117,2.0739,2.0739,2.0009,1.9902,2.0186,1.9767,1.9739,1.9889,1.8672,0.0,0.0,1.7885,1.7734,1.8135,1.7926,1.7512,1.6949,1.6949,1.7178,1.7644,1.722,1.7305,1.7748,1.7085,1.6994,1.75,1.7899,1.7654,1.6835,1.7534,1.686,1.4708,1.5222,1.5037,1.4013,1.4197,1.4308,1.4268,1.4118,1.3854,1.3514,1.3054,1.2838,1.283,1.2602,1.2782,1.3418,0.0,0.0,0.0,0.0,0.0,0.0,0.0,0.0,0.0,0.0,0.0,0.0,0.0,0.0,0.0,1.1582,0.0,1.0159,1.1156,0.0,0.0,0.0,1.3467,1.3573,1.3573,1.3563,1.3563,0.0,0.0,0.0,0.0,1.3027,1.3085,1.2529,1.2274,1.2627,1.2461,1.2323,1.2323,1.236,1.241,1.2539,1.2627,1.2676,1.2578,1.2733,1.2211,1.0963,1.0809,1.0371,0.8831,0.8573,0.8461,0.7955,0.7359,0.7031,0.6977,0.6701,0.6372,0.6055,0.5567,0.5242,2.2676,2.252,2.2686,2.1953,2.0611,2.0209,2.0327,2.0772,2.0494,2.0697,2.1205,2.0687,2.0073,1.9515,1.9053,1.8702,1.8467,1.7863,1.7595,1.767,1.7646,1.76,1.7519,1.741,1.7421,1.7465,1.7237,1.6826,1.6291,1.6357,1.6236,1.5992,1.6763,1.7455,1.7874,1.753,1.6578,1.5141,1.5073,1.466,1.3881,1.4283,1.4398,1.4078,1.4214,1.4046,1.3506,1.2684,1.2696,1.3653,1.1751,1.1493,1.3359,1.2469,0.0,0.0,0.0,0.0,0.0,0.0,0.0,0.0,0.0,1.4516,1.3952,0.0,1.4586,0.0,1.256,1.186,1.2624,1.2364,0.0,0.0,1.3573,1.3515,1.3467,1.3467,1.3409,1.3324,1.3266,1.3238,1.3192,1.2725,1.251,1.2735,1.2676,1.2578,1.2529,1.2471,1.2431,1.2382,1.2734,1.2978,1.2715,1.2744,1.2627,1.2129,1.1972,1.1547,1.0584,1.0029,0.9492,0.889,0.809,0.7509,0.73,0.681,0.6322,0.605,0.5996,0.5941,0.5727,0.5399,0.5128,2.3336,2.3217,2.2902,2.2212,2.1276,2.1042,2.1055,2.1311,2.1226,2.1345,2.1559,2.0991,2.0345,1.9681,1.9233,1.8969,1.8865,1.8366,1.8121,1.8133,1.8201,1.8098,1.7841,1.7765,1.7664,1.7509,1.7197,1.6694,1.6144,1.5952,1.5878,1.5813,1.6283,1.6877,1.7611,1.7408,1.6698,1.5545,1.524,1.4908,1.4572,1.4748,1.4797,1.4625,1.4531,1.4385,1.4082,1.3409,1.3481,1.4368,1.2615,1.2163,1.3459,1.2632,1.1875,0.0,0.0,0.0,0.0,0.0,0.0,0.0,0.0,0.0,0.0,0.0,1.5303,0.0,1.3314,0.0,1.3611,1.3073,1.2869,1.3369,1.3467,1.3467,1.3324,1.3314,1.3266,1.3218,1.318,1.3162,1.3105,1.2774,1.2569,1.2774,1.2725,1.2676,1.2529,1.2529,1.248,1.2431,1.2734,1.2959,1.2724,1.2537,1.2271,1.1801,1.1334,1.083,1.0174,0.9555,0.904,0.8672,0.7777,0.6918,0.6534,0.6095,0.5664,0.5285,0.523,0.5285,0.5289,0.5124,0.4956,2.343,2.3383,2.302,2.2816,2.2764,2.246,2.222,2.2044,2.1911,2.1768,2.1542,2.1038,2.0561,2.007,1.9349,1.9206,1.9471,1.9105,1.8905,1.893,1.8955,1.8556,1.7948,1.7908,1.7841,1.7598,1.7076,1.6678,1.6454,1.5789,1.5724,1.6187,1.6064,1.6306,1.6905,1.724,1.6901,1.5879,1.553,1.5424,1.5524,1.5426,1.5426,1.541,1.4979,1.4771,1.4812,1.4426,1.447,1.4929,1.3961,1.3564,1.3934,1.3271,1.3755,0.0,1.5819,0.0,0.0,0.0,0.0,0.0,0.0,0.0,0.0,1.6302,1.5995,1.5379,1.3936,1.3237,1.369,1.342,1.3218,1.3218,1.3314,1.3314,1.3228,1.317,1.318,1.317,1.3113,1.3075,1.3075,1.2978,1.2891,1.2832,1.2725,1.2627,1.248,1.248,1.252,1.2529,1.2656,1.2812,1.2719,1.2259,1.1802,1.1377,1.0779,1.0115,0.951,0.9145,0.8725,0.8209,0.7515,0.6696,0.5819,0.5437,0.5062,0.468,0.4629,0.4688,0.4794,0.4842,0.4736,2.3634,2.3458,2.3151,2.2944,2.279,2.2569,2.2377,2.2237,2.1945,2.1661,2.1417,2.099,2.0579,2.0174,1.9733,1.9626,1.9732,1.9472,1.9288,1.9132,1.8745,1.8279,1.776,1.7584,1.7461,1.7269,1.7011,1.6486,1.5787,1.5911,1.5868,1.5656,1.5886,1.628,0.0,0.0,0.0,0.0,1.5837,1.571,1.5761,1.6199,1.6161,1.566,1.5568,0.0,1.4824,1.4071,1.4057,1.4893,1.3624,0.0,0.0,0.0,0.0,0.0,0.0,0.0,0.0,0.0,0.0,0.0,1.7291,1.6847,1.6063,1.573,1.5291,1.4846,1.4176,1.3636,1.3341,1.3266,1.3218,1.3218,1.3208,1.3228,1.3113,1.3123,1.3065,1.2968,1.292,1.2929,1.2949,1.2832,1.2735,1.2656,1.2578,1.248,1.2372,1.2529,1.2627,1.2539,1.2812,1.2945,1.2905,1.2495,1.1644,1.0538,0.9969,0.9458,0.885,0.8527,0.8321,0.7967,0.7079,0.6367,0.6081,0.5328,0.4625,0.4519,0.4411,0.4304,0.4301,0.4463,0.446,2.3703,0.0,2.3206,2.302,0.0,2.2579,2.2321,2.2089,2.1928,2.1615,2.1182,2.0763,2.0444,2.015,2.0201,2.008,1.9826,1.9742,1.9511,1.921,1.8521,1.8158,1.8053,1.7444,1.7229,1.7334,1.6961,1.6522,1.6076,1.6238,1.6151,1.5836,1.6175,1.6436,1.6595,1.6876,1.697,1.6794,1.6652,1.6664,1.6832,1.6731,1.6557,1.6231,0.0,0.0,0.0,0.0,0.0,0.0,0.0,0.0,0.0,0.0,0.0,1.6442,1.5583,1.5624,1.679,1.6567,1.6629,1.7424,1.7063,1.6658,1.6444,1.6148,1.5739,1.5379,1.4617,1.4025,1.3779,1.342,1.3104,1.3055,1.3094,1.3104,1.3027,1.2988,1.2988,1.2959,1.3066,1.3184,1.3184,1.3143,1.3084,1.2974,1.2752,1.2588,1.2529,1.2578,1.2605,1.2789,1.295,1.314,1.3095,1.2314,1.1492,1.0453,0.9611,0.8964,0.8553,0.8189,0.7931,0.7882,0.6887,0.6041,0.591,0.505,0.4242,0.4242,0.4187,0.4079,0.4021,0.4132,0.419,2.3929,2.3894,2.3446,2.3257,2.3232,2.2681,2.2283,2.1991,0.0,0.0,0.0,2.0621,2.0408,2.0259,2.0633,2.046,1.9886,1.9852,1.9615,1.9075,1.8427,1.8248,1.841,1.7574,1.7326,1.7586,1.7182,1.6816,1.6529,1.6529,1.6449,1.62,1.6448,1.6565,1.6539,1.7002,1.735,1.7528,1.7569,1.7679,1.7922,1.7227,1.6837,1.6879,1.6132,1.5748,1.5792,1.576,1.5748,1.5748,1.5748,1.5939,1.6346,1.5545,1.5449,1.6211,1.5378,1.5269,1.6294,1.631,1.652,1.7107,1.6286,1.6091,1.6861,1.6488,1.6111,1.5848,1.4846,1.4165,1.4165,1.3488,1.3066,1.3027,1.3027,1.3076,1.3126,1.3018,1.3077,1.3126,1.3449,1.3594,1.3474,1.3394,1.3416,1.3268,1.2905,1.274,1.2779,1.2679,1.2789,1.324,1.3341,1.3255,1.3019,1.2259,1.1162,1.0514,0.937,0.8591,0.8478,0.8111,0.7905,0.8008,0.6794,0.6005,0.5747,0.4886,0.4076,0.3971,0.399,0.3937,0.386,0.3875,0.3943,2.4788,2.5248,2.42,2.4022,2.4296,2.3157,2.2557,2.2323,2.142,2.0893,2.0662,2.0921,2.0914,2.0803,2.0753,2.0335,1.9755,1.9795,1.9307,0.0,1.8782,1.8715,1.8414,1.8261,1.8143,1.8113,1.8003,1.7517,1.6706,1.6715,1.6508,1.6093,1.6139,1.6527,1.717,1.6947,1.7227,1.8083,1.8069,1.8109,1.8163,1.7652,1.731,1.7115,1.6392,1.5869,1.5715,1.5626,1.5558,1.5558,1.5546,1.5593,1.5619,1.5146,1.5114,1.5694,1.4524,1.4389,1.5829,1.5211,1.5107,1.5919,1.5455,1.5556,1.6513,1.5394,1.4799,1.5153,1.4337,1.3705,1.3658,1.3288,1.3116,1.334,1.3105,1.3164,1.3756,1.3623,1.3477,1.3807,1.3949,1.384,1.3594,1.3355,1.3141,1.2795,1.2804,1.2865,1.3106,1.3019,1.3212,1.3746,1.3867,1.3387,1.2655,1.2025,1.1125,0.9812,0.9272,0.8744,0.8482,0.8179,0.7987,0.7954,0.6839,0.6032,0.595,0.4956,0.4196,0.3987,0.3993,0.3918,0.3825,0.3815,0.38,2.513,2.54,2.4476,2.4103,2.4108,2.2909,2.2077,2.1588,2.0863,2.0662,2.0798,2.0818,2.0524,2.013,2.0498,2.023,1.9539,2.002,1.9811,1.9124,1.905,1.9108,1.9093,1.8576,1.8402,1.8618,1.8437,1.8053,1.7616,1.7511,1.7146,1.6495,1.6078,1.6225,1.6947,1.6934,1.7173,1.7814,1.7949,1.8069,1.8202,1.7557,1.7144,1.6934,1.6389,1.6075,1.5995,1.6221,1.6185,1.5903,1.5892,1.5892,1.5903,1.5173,1.5015,1.5618,1.4289,1.3906,1.4985,1.4607,1.4645,1.5295,1.4622,1.4559,1.5533,1.5056,1.4792,1.4993,1.4361,1.4037,1.4264,1.3861,1.3643,1.3776,1.361,1.3607,1.3864,1.3782,1.3695,1.3854,1.408,1.416,1.3971,1.3806,1.372,1.3468,1.3299,1.3284,1.3543,1.3516,1.3552,1.3856,1.3675,1.3229,1.2754,1.1853,1.0975,1.0032,0.9296,0.8822,0.861,0.8323,0.8108,0.8086,0.7158,0.636,0.6032,0.5094,0.4373,0.3825,0.3849,0.3812,0.3739,0.3685,0.3634,2.5227,2.5523,2.4396,2.3666,2.3183,2.2347,2.1598,2.0927,2.0522,2.0536,2.074,2.0555,2.0092,1.9687,2.022,2.0091,1.9536,2.0051,2.008,1.9597,1.9334,1.9422,1.9698,1.892,1.8794,1.912,1.8854,1.8637,1.8535,1.8319,1.7795,1.7078,1.6212,1.6114,1.6815,1.6816,1.7034,1.7434,1.7786,1.8072,1.8275,1.7655,1.7209,1.7042,1.657,1.6325,1.6349,1.6711,1.6734,1.6313,1.6278,1.6289,1.6337,1.5518,1.5227,1.5452,1.4386,1.3813,1.4094,1.4084,1.4285,1.4784,1.3971,1.381,1.4561,1.4681,1.4775,1.4849,1.4405,1.4276,1.4592,1.4314,1.4063,1.414,1.3974,1.3949,1.4122,1.3974,1.3874,1.3968,1.4298,1.4459,1.4374,1.4298,1.4242,1.4054,1.3728,1.3486,1.3738,1.3722,1.3531,1.3473,1.3174,1.2848,1.2813,1.1745,1.0742,1.0302,0.9484,0.895,0.8755,0.8336,0.8188,0.8182,0.7567,0.6657,0.5961,0.5274,0.4535,0.392,0.3759,0.3831,0.3708,0.3689,0.3542,2.5141,2.5532,2.3872,2.238,2.1399,2.1569,2.142,2.1015,2.0718,2.045,2.0247,2.0226,2.0174,2.0161,2.0182,1.9872,1.9428,1.9611,1.9407,1.9046,1.9484,1.9748,1.9798,1.9673,1.9673,1.9698,1.9623,1.9346,1.8908,1.8759,1.8339,1.7604,1.6739,1.6568,1.7008,1.6566,1.6607,1.7338,1.7853,1.8358,1.8598,1.8332,1.8177,1.813,1.7207,1.6776,1.6715,1.665,1.66,1.6554,1.6554,1.6554,1.6543,1.6148,1.5759,1.5322,1.4777,1.4288,1.3772,1.3403,1.3561,1.4246,1.394,1.3819,1.4275,1.4061,1.4086,1.4419,1.4212,1.4145,1.4387,1.417,1.4083,1.4278,1.4005,1.4014,1.4611,1.4516,1.4431,1.4819,1.4887,1.4897,1.4412,1.4289,1.4213,1.3947,1.3376,1.3072,1.3305,1.297,1.2538,1.2599,1.28,1.2534,1.1658,1.1051,1.0428,0.9762,0.9394,0.904,0.8669,0.8483,0.8337,0.8229,0.7649,0.6894,0.6142,0.5441,0.4683,0.4034,0.3829,0.3906,0.384,0.3761,0.3605,2.406,2.4141,2.3068,2.2045,2.1203,2.1021,2.0703,2.032,2.0029,1.967,1.9307,1.9343,1.9472,1.9636,1.971,1.9583,1.9318,1.9517,1.9453,1.9204,1.962,1.9747,1.9708,1.9798,1.9798,1.9798,1.9862,1.9659,1.9115,1.844,1.7808,1.7256,1.6741,1.6643,1.6896,1.6622,1.6832,1.7534,1.8109,1.8421,1.849,1.8084,1.7605,1.7168,1.6786,1.6658,1.6692,1.7044,1.7014,1.6629,1.6854,1.6882,1.6395,1.6131,1.5789,1.5279,1.4508,1.3883,1.3361,1.3417,1.3616,1.3938,1.3706,1.3727,1.412,1.3942,1.3931,1.4134,1.4141,1.4277,1.4675,1.461,1.4582,1.4658,1.4439,1.441,1.4777,1.4594,1.4517,1.4666,1.4743,1.4697,1.4421,1.4073,1.3829,1.3635,1.3093,1.2731,1.2749,1.252,1.202,1.1439,1.1468,1.1385,1.0795,1.0325,0.9824,0.9332,0.9087,0.8832,0.8717,0.8499,0.8435,0.8361,0.8001,0.7273,0.6363,0.5955,0.5326,0.4504,0.3902,0.3891,0.4026,0.392,0.3755,2.2893,2.2643,2.1945,2.1247,2.0594,2.013,1.9799,1.9488,1.9226,1.8922,1.8614,1.8679,1.8935,1.9245,1.9283,1.9283,1.9352,1.9429,1.9547,1.9617,1.9893,1.9945,1.9893,2.016,2.0263,2.0263,2.0195,1.9724,1.8994,1.8235,1.7543,1.7042,1.671,1.6616,1.6644,1.6603,1.6811,1.7314,1.8042,1.8258,1.7906,1.7716,1.7357,1.6802,1.6696,1.6667,1.6721,1.7236,1.7313,1.6743,1.7098,1.71,1.6532,1.6302,1.5998,1.5361,1.4409,1.3702,1.349,1.3633,1.3773,1.3867,1.3756,1.3802,1.4052,1.4013,1.3947,1.4096,1.4229,1.4484,1.4787,1.4911,1.4911,1.4852,1.4734,1.4656,1.4597,1.4565,1.4506,1.4506,1.4565,1.4437,1.4249,1.3674,1.3166,1.3105,1.2565,1.2081,1.1888,1.164,1.1142,1.0395,1.019,1.0121,1.0066,0.9722,0.9285,0.9087,0.8899,0.8835,0.877,0.8576,0.8517,0.8447,0.8366,0.7962,0.7001,0.6485,0.599,0.4955,0.4424,0.4287,0.4469,0.4239,0.3998,2.1904,2.1655,2.0445,1.9617,1.8905,1.881,1.8744,1.8839,1.8576,1.8553,1.8642,1.8534,1.8877,1.9555,1.9246,1.9287,1.9691,1.9461,1.967,2.0116,2.037,2.0532,2.0665,2.1154,2.138,2.1212,2.0741,1.9871,1.8555,1.8385,1.7934,1.7202,1.6786,1.6534,1.6543,1.641,1.6334,1.6621,1.7612,1.7709,1.6771,1.7396,1.7793,1.7587,1.7357,1.7069,1.7135,1.7168,1.7179,1.7157,1.718,1.7147,1.7137,1.7114,1.6669,1.5863,1.469,1.4107,1.4283,1.4029,1.3992,1.4277,1.4029,1.4029,1.4409,1.413,1.4102,1.4433,1.4433,1.4529,1.4556,1.4675,1.4666,1.4565,1.4515,1.4515,1.4515,1.4446,1.4515,1.4446,1.4419,1.4222,1.3743,1.307,1.2512,1.2274,1.1787,1.1288,1.0968,1.0275,0.9792,0.9582,0.9384,0.9075,0.9087,0.9168,0.9045,0.8846,0.877,0.877,0.8641,0.8517,0.8517,0.8382,0.8122,0.7832,0.739,0.6921,0.6311,0.5601,0.523,0.5117,0.4684,0.4495,0.4298,2.037,2.0105,1.9646,1.9383,1.9266,1.9317,1.9343,1.94,1.9309,1.9252,1.9298,1.9343,1.9574,1.9956,1.9856,1.9993,2.0273,2.0329,2.0465,2.0636,2.0983,2.1149,2.1119,2.1362,2.1481,2.1437,2.1256,2.0466,1.9158,1.8295,1.7727,1.7384,1.6989,1.6752,1.6686,1.6437,1.645,1.6721,1.72,1.7104,1.6675,1.7003,1.6989,1.6637,1.657,1.657,1.6648,1.6864,1.6864,1.6705,1.7022,1.7123,1.6944,1.6719,1.6425,1.5901,1.5003,1.4277,1.3977,1.3979,1.3911,1.3929,1.4114,1.4273,1.446,1.4378,1.4359,1.4478,1.4515,1.4515,1.4506,1.4556,1.4556,1.4515,1.4515,1.4515,1.4387,1.4139,1.3863,1.3802,1.3596,1.3124,1.281,1.2151,1.1655,1.1399,1.0787,1.0358,1.0066,0.9722,0.9462,0.9192,0.9087,0.8958,0.87,0.8851,0.8798,0.8722,0.8582,0.8582,0.8517,0.8517,0.8517,0.8517,0.8122,0.7787,0.7478,0.7006,0.6459,0.5834,0.546,0.5183,0.4704,0.4538,0.4339,1.9731,1.9468,1.9483,1.9582,1.9629,1.9703,1.9748,1.9795,1.9748,1.97,1.9748,1.9842,2.0041,2.0346,2.0535,2.0878,2.1296,2.1253,2.1272,2.1455,2.1745,2.1745,2.1559,2.1791,2.1663,2.1243,2.0996,2.0261,1.9116,1.8166,1.7517,1.7144,1.6927,1.6707,1.6509,1.6306,1.6353,1.6616,1.6708,1.6708,1.6492,1.6595,1.6446,1.5961,1.5904,1.6066,1.6306,1.6534,1.6591,1.6488,1.6761,1.6874,1.6648,1.6343,1.6046,1.5633,1.505,1.4418,1.3848,1.3918,1.3954,1.3821,1.4096,1.4327,1.4455,1.4515,1.4515,1.4524,1.4653,1.468,1.4598,1.4735,1.4781,1.4588,1.4515,1.4387,1.4198,1.3752,1.3416,1.3064,1.2501,1.2097,1.1819,1.1288,1.0905,1.0648,1.0046,0.9701,0.9568,0.9435,0.9359,0.8974,0.8955,0.8857,0.8646,0.8652,0.8722,0.8587,0.8582,0.8517,0.8517,0.8517,0.8517,0.8452,0.8252,0.7987,0.7591,0.706,0.6527,0.58,0.5404,0.5196,0.4803,0.4489,0.4348,2.0025,1.9845,2.0027,2.0006,1.9924,1.991,1.9757,1.9815,1.9803,1.9895,1.9987,1.9993,2.0472,2.085,2.1148,2.1808,2.2357,2.1933,2.2019,2.2604,2.258,2.2347,2.1954,2.2311,2.1834,2.0699,2.0095,1.9231,1.8219,1.8086,1.7561,1.6739,1.6628,1.6365,1.5944,1.5944,1.5904,1.6046,1.6436,1.6379,1.5864,1.6208,1.6161,1.573,1.574,1.5836,1.6066,1.6306,1.6384,1.6374,1.6384,1.6384,1.6374,1.6144,1.573,1.5294,1.4883,1.4469,1.4043,1.3932,1.401,1.4094,1.4207,1.4336,1.4414,1.4465,1.4455,1.4492,1.4757,1.4876,1.4684,1.5104,1.5241,1.468,1.4519,1.421,1.3744,1.3459,1.3139,1.232,1.1648,1.1226,1.0912,1.0524,1.0128,1.003,0.9735,0.9515,0.9558,0.9338,0.9131,0.9059,0.8992,0.8816,0.8657,0.8517,0.8517,0.8517,0.8517,0.8517,0.8517,0.8517,0.8517,0.8447,0.8222,0.7896,0.7767,0.7372,0.7051,0.6453,0.5932,0.5213,0.4818,0.4489,0.4353,2.0491,2.0222,2.0547,2.0521,2.0398,2.0611,2.0772,2.071,2.0699,2.0894,2.1181,2.1227,2.1426,2.1638,2.174,2.1822,2.1891,2.1788,2.2414,2.3301,2.2859,2.2412,2.2162,2.1591,2.1049,2.059,1.9955,1.9509,1.8937,1.8287,1.7714,1.7433,1.6727,1.6387,1.6267,1.5821,1.5594,1.5778,1.5826,1.569,1.5526,1.5633,1.5642,1.5536,1.5614,1.574,1.5846,1.5972,1.6077,1.6181,1.6181,1.6249,1.6374,1.6327,1.5951,1.5352,1.5001,1.4597,1.407,1.3821,1.3769,1.3967,1.4088,1.4148,1.4294,1.4363,1.4354,1.4243,1.4496,1.4666,1.4675,1.4988,1.5141,1.4912,1.4409,1.402,1.3543,1.2585,1.1571,1.0843,1.0548,1.0373,1.0276,0.9945,0.9916,0.9787,0.9428,0.9304,0.9259,0.9146,0.8847,0.8717,0.8727,0.8797,0.8685,0.8582,0.8517,0.8517,0.8517,0.8517,0.8517,0.8517,0.8517,0.842,0.8132,0.7953,0.7896,0.7548,0.7158,0.6597,0.5756,0.5156,0.4749,0.4478,0.4339,2.0983,2.0854,2.1252,2.1404,2.1389,2.167,2.1797,2.1786,2.1786,2.1916,2.2102,2.1912,2.1857,2.1898,2.1804,2.1695,2.1686,2.1754,2.2409,2.3327,2.248,2.1907,2.1587,2.0292,1.9814,1.9944,1.9431,1.911,1.8967,1.84,1.7935,1.7601,1.6849,1.6404,1.6297,1.5763,1.5478,1.5546,1.5478,1.542,1.542,1.542,1.542,1.541,1.5536,1.5604,1.5604,1.5672,1.5836,1.6056,1.6181,1.6249,1.6374,1.6488,1.6192,1.5468,1.5167,1.4815,1.4061,1.3761,1.3718,1.3961,1.4118,1.4188,1.4355,1.4469,1.4435,1.4107,1.4397,1.4448,1.4285,1.4503,1.4621,1.4465,1.4165,1.3631,1.305,1.1718,1.0718,1.024,1.0048,0.9922,0.9829,0.982,0.9782,0.967,0.9336,0.9179,0.9138,0.9043,0.8869,0.8743,0.8785,0.8778,0.8717,0.8587,0.8582,0.8582,0.8587,0.8517,0.8517,0.8517,0.8517,0.8506,0.8308,0.8299,0.8143,0.7278,0.6664,0.6056,0.5512,0.49,0.4422,0.4331,0.4259,2.1556,2.1741,2.2092,2.2367,2.2603,2.2581,2.2559,2.2627,2.2536,2.248,2.2411,2.1918,2.1754,2.1776,2.1338,2.1439,2.1962,2.1485,2.1745,2.2303,2.1655,2.0924,2.0418,1.9079,1.8745,1.8977,1.8647,1.8319,1.8202,1.822,1.8004,1.7507,1.7076,1.6553,1.6233,1.5684,1.5469,1.543,1.542,1.542,1.542,1.542,1.542,1.542,1.542,1.542,1.541,1.5478,1.571,1.6056,1.6249,1.6374,1.6488,1.6648,1.6343,1.5352,1.5449,1.4864,1.4121,1.3848,1.3917,1.4212,1.429,1.4397,1.4647,1.467,1.451,1.4013,1.4179,1.4112,1.3597,1.3721,1.3729,1.3422,1.3437,1.2998,1.1601,1.0823,1.0287,1.0047,0.9968,0.9921,0.9776,0.9729,0.9777,0.9724,0.9421,0.9291,0.9341,0.9249,0.8999,0.8921,0.8911,0.8756,0.8674,0.8587,0.8517,0.8517,0.8587,0.8528,0.8522,0.8522,0.8517,0.8506,0.8441,0.8493,0.8048,0.709,0.6416,0.5966,0.5319,0.4573,0.4284,0.4257,0.4117,2.2936,2.2749,2.2744,2.2682,2.2741,2.2673,2.2685,2.2617,2.2067,2.2081,2.2138,2.1693,2.1439,2.1416,2.1094,2.1219,2.1492,2.0765,2.0673,2.1344,2.0565,1.9682,1.9133,1.8674,1.836,1.8281,1.8429,1.8301,1.8027,1.8076,1.8007,1.7842,1.7393,1.6973,1.6553,1.6103,1.5723,1.5459,1.542,1.542,1.543,1.542,1.542,1.542,1.542,1.542,1.542,1.5662,1.5788,1.5961,1.6259,1.6488,1.6648,1.6705,1.6353,1.5662,1.542,1.501,1.4132,1.3925,1.4132,1.4262,1.4448,1.4789,1.4841,1.4345,1.3957,1.3613,1.353,1.32,1.2949,1.314,1.2991,1.2303,1.2317,1.1929,1.0672,1.0043,0.984,0.9776,0.9793,0.9814,0.979,0.978,0.9779,0.9742,0.9542,0.927,0.9389,0.9233,0.8988,0.8947,0.8864,0.8739,0.8619,0.8592,0.8517,0.8517,0.8528,0.8479,0.8473,0.8533,0.8522,0.8511,0.8414,0.8373,0.7676,0.6784,0.6298,0.5726,0.4979,0.4231,0.4204,0.4177,0.398,2.3522,2.3532,2.327,2.319,2.3305,2.2953,2.2812,2.2659,2.2088,2.1919,2.1997,2.1522,2.1302,2.1268,2.0927,2.0846,2.0842,2.0134,2.0063,2.0383,2.006,1.9481,1.8994,1.8835,1.8601,1.8182,1.8446,1.8379,1.8076,1.8008,1.8008,1.792,1.7598,1.7256,1.6982,1.6367,1.6055,1.5908,1.5654,1.5488,1.5664,1.5498,1.542,1.542,1.543,1.5488,1.5901,1.6157,1.6222,1.6128,1.6306,1.6534,1.6457,1.657,1.63,1.5576,1.5446,1.5093,1.4435,1.4221,1.4272,1.4311,1.4388,1.4187,1.4125,1.3697,1.3294,1.2772,1.2493,1.2267,1.2046,1.2032,1.1668,1.1001,1.1034,1.0803,0.9946,0.9963,0.988,0.9796,0.9807,0.9768,0.9849,0.986,0.9856,0.9809,0.9604,0.9502,0.9507,0.92,0.8974,0.8899,0.8826,0.8717,0.8651,0.8585,0.8569,0.8554,0.8317,0.8358,0.8362,0.8346,0.8254,0.8218,0.8281,0.8006,0.7191,0.6375,0.5778,0.5169,0.4431,0.3956,0.3803,0.3454,0.3385,2.3626,2.4061,2.3664,2.3715,2.3902,2.3372,2.2977,2.2798,2.2211,2.192,2.179,2.1375,2.1135,2.1318,2.0637,2.0362,2.0108,1.991,1.9949,2.0058,1.9934,1.9678,1.9512,1.9385,1.9039,1.8699,1.863,1.8486,1.8213,1.8076,1.8008,1.7939,1.7637,1.7441,1.7227,1.6621,1.6507,1.6478,1.5986,1.5838,1.6045,1.582,1.5625,1.5723,1.5772,1.6108,1.6567,1.6759,1.6646,1.6171,1.6613,1.6597,1.6199,1.6425,1.6147,1.5557,1.5396,1.5204,1.4815,1.4362,1.4288,1.4247,1.3654,1.3219,1.3271,1.2992,1.2499,1.1861,1.1565,1.1223,1.0931,1.0615,1.019,0.9755,0.9895,1.0137,1.0067,1.0143,1.0067,0.9916,0.983,0.9765,0.9846,0.9841,0.9765,0.9873,0.9696,0.962,0.9431,0.9129,0.8931,0.872,0.8685,0.8612,0.8594,0.858,0.8554,0.8597,0.8178,0.8069,0.8093,0.8023,0.7898,0.7829,0.7731,0.7284,0.6559,0.5866,0.5017,0.4287,0.3422,0.3155,0.295,0.2406,0.2135,2.4637,2.4613,2.4316,2.3868,2.3287,2.3224,2.2841,2.222,2.1614,2.1385,2.1242,2.0789,2.0566,2.0547,2.0203,2.0127,2.0599,2.0185,2.0236,2.0642,2.0127,2.0098,2.0117,1.9941,1.9477,1.9093,1.9078,1.8906,1.8535,1.8193,1.8008,1.7978,1.7881,1.7715,1.7383,1.7168,1.6963,1.675,1.6468,1.6398,1.6413,1.6179,1.6064,1.6328,1.6501,1.6957,1.7385,1.7409,1.7154,1.6888,1.691,1.6901,1.6687,1.6658,1.6263,1.5741,1.5332,1.4927,1.442,1.4201,1.3953,1.3553,1.3405,1.3417,1.2912,1.2225,1.171,1.1223,1.0668,1.0099,0.96,0.9573,0.9306,0.9003,0.9382,0.9765,0.9311,0.9614,0.9916,0.9846,0.9463,0.916,0.9771,0.9311,0.9377,0.9734,0.9734,0.9701,0.9348,0.9003,0.865,0.835,0.807,0.7979,0.8054,0.7886,0.7677,0.7402,0.7021,0.6438,0.6526,0.6429,0.5834,0.6316,0.7114,0.6398,0.5196,0.44,0.3405,0.2878,0.2278,0.1808,0.1338,0.1004,-0.0067,2.4743,2.4154,2.4116,2.3519,2.2606,2.2381,2.208,2.1614,2.1011,2.0789,2.0712,2.042,2.0264,2.0304,2.0051,2.0127,2.0163,1.9994,1.9984,2.0242,2.0098,2.0275,2.0324,2.0178,1.9858,1.949,1.9506,1.9258,1.8721,1.8428,1.8213,1.8018,1.8027,1.79,1.7656,1.75,1.739,1.7278,1.6909,1.6811,1.6912,1.6617,1.6498,1.6796,1.7001,1.7393,1.7887,1.7688,1.7406,1.716,1.6889,1.6661,1.6393,1.6157,1.5845,1.5384,1.4956,1.4656,1.436,1.3878,1.342,1.2892,1.249,1.187,1.1385,1.072,1.0276,0.9976,0.9599,0.916,0.8703,0.9089,0.8937,0.8775,0.9311,0.962,0.9468,0.962,0.9922,0.9846,0.9614,0.9311,0.9236,0.9123,0.9018,0.9392,0.9216,0.913,0.8905,0.8477,0.8013,0.7694,0.7396,0.7292,0.7447,0.7162,0.6526,0.5897,0.5075,0.4084,0.335,0.3272,0.3132,0.405,0.4925,0.4284,0.3189,0.2463,0.1265,0.0399,-0.0266,-0.0267,-0.0667,-0.1466,-0.3025,2.4432,2.3526,2.3508,2.2916,2.1993,2.1471,2.1242,2.1011,2.0566,2.0411,2.0342,2.0342,2.0264,2.0256,2.0129,1.9802,1.9564,1.9554,1.9705,1.9812,2.0043,2.0187,2.0245,2.0265,2.0139,1.9951,1.9863,1.9453,1.9043,1.8679,1.8613,1.8291,1.8242,1.8242,1.8066,1.7803,1.7695,1.7754,1.7324,1.7168,1.7373,1.707,1.6865,1.6718,1.6809,1.7084,1.7422,1.7375,1.7148,1.7016,1.6455,1.5907,1.5468,1.5257,1.5022,1.4794,1.4327,1.3995,1.3787,1.3331,1.2698,1.2198,1.1019,1.0056,0.9599,0.9296,0.9003,0.878,0.8632,0.8556,0.8178,0.8865,0.9032,0.8909,0.9372,0.984,0.9866,0.9948,1.0067,0.9937,0.972,0.9466,0.9329,0.9242,0.9101,0.8889,0.8718,0.8475,0.8327,0.7838,0.7291,0.6338,0.5872,0.4322,0.4215,0.3876,0.3499,0.2746,0.2071,0.107,-0.0304,-0.1703,-0.1724,0.134,0.2073,0.1218,-0.0,-0.1528,-0.2463,-0.2793,-0.2725,-0.2725,-0.3326,-0.4125,-0.5822,2.412,2.3779,2.3128,2.2241,2.1461,2.1415,2.1031,2.0489,2.0566,2.0566,2.0489,2.0342,2.0264,2.0226,1.9825,1.9681,1.949,1.9476,1.9534,1.9743,1.9894,2.0001,2.0264,2.0255,2.0198,1.9944,1.9941,1.9814,1.9551,1.9365,1.9092,1.9053,1.8994,1.8938,1.8684,1.8517,1.8115,1.7939,1.7649,1.761,1.7494,1.7225,1.6778,1.6383,1.6309,1.6365,1.6387,1.6312,1.6052,1.5556,1.5263,1.4869,1.4465,1.4495,1.4403,1.4316,1.3784,1.331,1.2858,1.2285,1.1316,1.0421,0.9825,0.9377,0.8998,0.8699,0.8489,0.8286,0.8286,0.82,0.8106,0.8851,0.8976,0.898,0.9448,1.0048,0.9851,1.0056,1.0412,1.0309,0.9994,0.9632,0.9468,0.9228,0.8857,0.8467,0.8082,0.7923,0.7769,0.7042,0.622,0.52,0.4119,0.2165,0.0383,-0.0076,-0.0614,-0.1529,-0.2298,-0.2983,-0.4636,-0.7286,-0.6828,-0.3593,-0.2109,-0.2681,-0.4014,-0.5473,-0.6187,-0.6465,-0.5962,-0.5262,-0.6184,-0.7194,-0.8096,2.2853,2.2414,2.2295,2.1548,2.0557,2.0876,2.0809,2.0333,2.0489,2.0576,2.0498,2.0264,2.0108,1.9942,1.9627,1.9478,1.9571,1.9547,1.9625,1.9696,1.9775,1.9844,2.0108,2.0255,2.0314,2.0303,2.0244,1.998,1.9648,1.9619,1.9492,1.9297,1.9277,1.9252,1.9056,1.8721,1.8283,1.7903,1.7584,1.7245,1.6881,1.6524,1.6178,1.586,1.5661,1.5703,1.5641,1.535,1.4996,1.4498,1.4083,1.3665,1.3237,1.3025,1.3171,1.355,1.3039,1.2445,1.1842,1.1248,1.0201,0.9448,0.9079,0.8623,0.8246,0.8025,0.8073,0.8091,0.8295,0.8405,0.8422,0.9173,0.9394,0.9458,0.9982,1.0199,1.0217,1.0495,1.055,1.0465,1.0288,0.9943,0.956,0.9242,0.8697,0.8124,0.7544,0.7122,0.6812,0.559,0.4231,0.1864,0.0311,-0.1157,-0.3228,-0.4194,-0.4596,-0.5527,-0.6359,-0.7048,-0.7731,-0.9707,-0.9911,-0.8153,-0.744,-0.6696,-0.7486,-0.8706,-0.9416,-0.9971,-0.9264,-0.8847,-0.9461,-1.0245,-1.104,2.1692,2.1211,2.1375,2.0779,1.9951,2.0342,2.0498,2.042,2.0566,2.0576,2.0566,2.0098,1.9951,1.9784,1.9539,1.939,1.9548,1.9539,1.9548,1.9636,1.9794,1.9863,2.002,2.0167,2.0343,2.0303,2.0469,2.0195,1.9873,1.9922,1.9834,1.9736,1.958,1.9556,1.9561,1.8962,1.826,1.7585,1.7027,1.6386,1.5794,1.535,1.5158,1.4958,1.4879,1.472,1.4569,1.4212,1.378,1.3281,1.2785,1.2291,1.1861,1.1234,1.1484,1.2371,1.1806,1.1403,1.0801,1.0201,0.9327,0.8712,0.8317,0.7932,0.7781,0.7815,0.7857,0.8037,0.8635,0.9045,0.9099,0.971,1.0065,1.0198,1.0458,1.0577,1.0429,1.0361,1.0273,1.0282,1.0435,0.9975,0.9381,0.8214,0.7428,0.663,0.6062,0.4811,0.4245,0.2695,0.0945,-0.2106,-0.4042,-0.5089,-0.6655,-0.8291,-0.8654,-0.9115,-1.0005,-1.0677,-1.0855,-1.1316,-1.1212,-1.1303,-1.0912,-1.0371,-1.1209,-1.1532,-1.1783,-1.1988,-1.2059,-1.2109,-1.2062,-1.2586,-1.3458,2.1192,2.1385,2.0479,2.0098,2.0186,2.0342,2.0411,2.0566,2.0566,2.0576,2.0566,2.0098,1.9863,1.9696,1.9371,1.9301,1.9301,1.939,1.9478,1.9566,1.9724,1.9951,2.0186,2.0264,2.0169,2.0187,2.0439,2.0585,2.0245,2.0294,2.0439,2.0322,2.0244,2.034,1.9932,1.8995,1.8282,1.7534,1.6721,1.5989,1.5283,1.4564,1.4109,1.3594,1.3157,1.2872,1.2931,1.2645,1.2278,1.2131,1.131,1.0789,1.0674,1.0324,1.0097,1.0286,1.0106,0.983,0.9347,0.8971,0.8672,0.8234,0.7949,0.7803,0.7944,0.822,0.8462,0.8625,0.9346,0.9784,0.9814,1.0182,1.0587,1.0611,1.0523,1.0373,1.0133,1.0008,0.9919,0.8595,0.8235,0.8708,0.8652,0.7354,0.6087,0.5283,0.4384,0.2971,0.1133,-0.0801,-0.2364,-0.5315,-0.7214,-0.825,-0.9195,-1.0979,-1.1832,-1.2331,-1.3051,-1.3696,-1.3375,-1.3162,-1.3882,-1.3935,-1.3562,-1.3304,-1.3394,-1.3577,-1.3815,-1.3886,-1.3898,-1.3978,-1.4042,-1.4806,-1.5554,2.0177,2.0789,2.0333,2.0098,2.0098,2.0333,2.042,2.0489,2.0566,2.0576,2.0411,2.002,1.9539,1.8966,1.8479,1.8479,1.8647,1.9054,1.939,1.9636,1.9715,2.0029,2.0264,2.0333,2.0178,1.983,2.013,2.0157,2.0167,2.0333,2.0576,2.0566,2.0401,2.0081,1.9657,1.8652,1.7433,1.6236,1.5027,1.4146,1.3622,1.3255,1.2797,1.2439,1.207,1.1929,1.1632,1.126,1.0962,1.0657,0.9981,0.9514,0.9458,0.9267,0.9118,0.9171,0.8946,0.8899,0.8974,0.8479,0.8145,0.7977,0.7909,0.7907,0.8268,0.8752,0.9137,0.9252,0.9952,1.0238,1.0159,1.0268,1.0234,1.0208,0.9762,0.957,0.9305,0.951,0.9161,0.7552,0.5937,0.5736,0.5444,0.434,0.3189,0.3023,0.1706,0.0084,-0.2623,-0.5669,-0.7089,-0.844,-0.9857,-1.0944,-1.1816,-1.3041,-1.3866,-1.4423,-1.4914,-1.5388,-1.5032,-1.5114,-1.558,-1.5581,-1.5035,-1.4972,-1.5284,-1.5196,-1.5043,-1.53,-1.5608,-1.5575,-1.5609,-1.61,-1.6788,1.9341,2.0169,2.0216,2.0108,2.002,2.0411,2.0333,2.0098,2.0489,2.0333,1.9942,1.9539,1.8886,1.8238,1.7827,1.7747,1.8336,1.8736,1.9222,1.9548,1.9863,2.0098,2.0342,2.0411,2.0089,1.9213,1.9659,1.945,1.9116,1.9274,1.959,2.0157,1.9432,1.9027,1.8391,1.7502,1.6293,1.4815,1.376,1.2942,1.2505,1.2311,1.1815,1.1465,1.118,1.1105,1.0657,1.0207,0.976,0.9539,0.8928,0.8627,0.8649,0.8493,0.8371,0.8478,0.8387,0.8508,0.863,0.8401,0.8037,0.8061,0.825,0.8449,0.8923,0.9387,0.9521,0.945,0.9637,0.9986,1.0212,0.9941,0.9749,0.9026,0.8138,0.8089,0.7661,0.6659,0.5396,0.3529,0.185,0.0703,0.0437,0.026,0.0087,0.035,-0.0864,-0.2801,-0.5758,-0.9157,-1.0274,-1.1029,-1.1941,-1.3051,-1.4126,-1.498,-1.5856,-1.6345,-1.6865,-1.694,-1.6533,-1.6422,-1.6624,-1.6488,-1.6253,-1.6307,-1.6394,-1.6325,-1.6184,-1.6269,-1.6405,-1.6849,-1.7129,-1.747,-1.7686,1.8971,1.9924,1.9917,2.0079,2.0264,2.0264,1.9942,1.9618,2.0255,2.0001,1.9116,1.8479,1.8327,1.8256,1.7261,1.7261,1.8754,1.8327,1.8807,1.946,1.9942,2.001,2.0089,2.001,1.9687,1.8877,1.8798,1.831,1.7602,1.7481,1.8175,1.8807,1.8074,1.744,1.6838,1.6055,1.4925,1.3761,1.3105,1.2713,1.2314,1.1945,1.1594,1.0394,1.0003,0.969,0.9003,0.8851,0.8803,0.8813,0.8164,0.7907,0.8015,0.7954,0.793,0.8082,0.8098,0.8235,0.8337,0.8271,0.8117,0.8283,0.859,0.8839,0.9239,0.9137,0.9141,0.9074,0.8678,0.854,0.8924,0.9306,0.786,0.6726,0.502,0.3666,0.3035,0.1946,0.0618,-0.0882,-0.2289,-0.3774,-0.4384,-0.4526,-0.3823,-0.3409,-0.48,-0.6711,-0.8113,-1.0865,-1.2061,-1.2986,-1.3853,-1.4902,-1.6092,-1.6826,-1.7018,-1.7446,-1.8001,-1.8106,-1.8017,-1.7953,-1.7555,-1.744,-1.7234,-1.7379,-1.7413,-1.7035,-1.681,-1.6894,-1.7056,-1.7292,-1.7517,-1.7734,-1.788,1.8757,1.9097,1.9442,1.9926,2.0489,2.0489,2.0333,2.0167,2.0333,1.9678,1.8541,1.7407,1.7017,1.6944,1.6198,1.6116,1.7359,1.8078,1.831,1.8638,1.9204,1.9362,1.9283,1.8948,1.847,1.7488,1.7334,1.7082,1.6198,1.6027,1.6049,1.64,1.6575,1.6491,1.5789,1.4649,1.3483,1.2826,1.2566,1.2242,1.2146,1.1894,1.1429,1.0335,1.0132,0.9658,0.8803,0.825,0.8082,0.7943,0.7482,0.745,0.7518,0.7624,0.7729,0.7899,0.782,0.7683,0.7793,0.7901,0.8151,0.7936,0.8369,0.869,0.8694,0.8858,0.8922,0.8444,0.6653,0.5692,0.5573,0.4497,0.3064,0.2638,0.1366,-0.0635,-0.1806,-0.2957,-0.4198,-0.5733,-0.7281,-0.8736,-0.9087,-0.9256,-0.8269,-0.7472,-0.9052,-1.0419,-1.1439,-1.2386,-1.3534,-1.4452,-1.5238,-1.6108,-1.7235,-1.7711,-1.8051,-1.8531,-1.8947,-1.8881,-1.874,-1.8552,-1.8261,-1.8163,-1.8064,-1.7935,-1.7761,-1.7495,-1.7355,-1.7232,-1.7297,-1.7436,-1.7722,-1.7948,-1.8115,1.8455,1.8592,1.8975,1.959,2.0322,2.0371,2.0294,2.0245,2.0264,1.9696,1.8461,1.7074,1.669,1.6624,1.5794,1.6116,1.7269,1.7917,1.8069,1.8559,1.9054,1.9054,1.8638,1.8069,1.7658,1.6273,1.5869,1.5794,1.4972,1.4819,1.4831,1.5014,1.5154,1.4952,1.4536,1.3392,1.2371,1.2003,1.1714,1.1528,1.1472,1.1148,1.0498,0.9551,0.9311,0.8805,0.8048,0.7438,0.7359,0.7209,0.6983,0.6847,0.6989,0.72,0.7346,0.7159,0.6946,0.6587,0.6377,0.7229,0.7826,0.8068,0.6663,0.6734,0.6973,0.6934,0.5563,0.5401,0.3367,0.1608,0.0996,-0.0634,-0.3282,-0.4416,-0.5438,-0.7011,-0.7269,-0.8155,-0.9341,-1.0641,-1.1811,-1.2505,-1.2139,-1.2034,-1.1435,-1.059,-1.1161,-1.236,-1.3194,-1.409,-1.494,-1.5728,-1.6348,-1.7259,-1.805,-1.8407,-1.8757,-1.8898,-1.9301,-1.9155,-1.9031,-1.8898,-1.8843,-1.8733,-1.8559,-1.8357,-1.8128,-1.7972,-1.7685,-1.7465,-1.7549,-1.7719,-1.7944,-1.8241,-1.8261,1.8262,1.8543,1.8643,1.9131,1.9863,1.9932,1.9755,1.9537,1.9906,1.9709,1.8868,1.773,1.7585,1.7772,1.637,1.6698,1.7683,1.8006,1.7997,1.8407,1.8638,1.9063,1.8479,1.7658,1.6332,1.6101,1.5115,1.4057,1.3722,1.3436,1.344,1.3271,1.3001,1.2739,1.2989,1.2595,1.2096,1.164,1.1139,1.057,1.0213,0.9679,0.8837,0.8057,0.7576,0.71,0.6317,0.5962,0.5794,0.582,0.559,0.5504,0.5789,0.5548,0.5331,0.478,0.4705,0.3993,0.2834,0.5422,0.6159,0.6427,0.4472,0.3232,0.3106,0.2172,0.0088,-0.0707,-0.2059,-0.3707,-0.4745,-0.5979,-0.8674,-1.0195,-1.0896,-1.1559,-1.1631,-1.2064,-1.3074,-1.386,-1.4919,-1.5599,-1.4926,-1.4467,-1.4117,-1.3782,-1.377,-1.43,-1.492,-1.5599,-1.628,-1.6726,-1.738,-1.8022,-1.8719,-1.9187,-1.9464,-1.9529,-1.9511,-1.9298,-1.9289,-1.9155,-1.9127,-1.9146,-1.8981,-1.8724,-1.8598,-1.8545,-1.8266,-1.8065,-1.7891,-1.8014,-1.8249,-1.8475,-1.8643,1.8096,1.8213,1.8213,1.8545,1.9082,1.9385,1.9303,1.9099,1.8929,1.8634,1.8125,1.7208,1.708,1.705,1.6585,1.6398,1.6911,1.7423,1.7423,1.6116,1.6895,1.6511,1.5921,1.5051,1.4232,1.325,1.2254,1.1757,1.1843,1.1232,1.2176,1.2467,0.9605,0.9688,1.067,1.0691,0.9901,0.968,0.9287,0.8772,0.8687,0.7899,0.7001,0.5894,0.5328,0.4691,0.3808,0.3433,0.3328,0.3387,0.3056,0.2908,0.2956,0.2619,0.2007,0.1229,0.0878,-0.0351,-0.1665,-0.1224,-0.0088,0.0873,0.0874,-0.105,-0.1997,-0.3005,-0.527,-0.7574,-0.8144,-0.9574,-1.0905,-1.0612,-1.1984,-1.2252,-1.2897,-1.3844,-1.4266,-1.4983,-1.5784,-1.6453,-1.7328,-1.7301,-1.6953,-1.6514,-1.6191,-1.6134,-1.6007,-1.5799,-1.6291,-1.687,-1.7454,-1.7777,-1.824,-1.8762,-1.932,-1.9546,-1.9663,-1.9663,-1.9482,-1.9353,-1.9283,-1.943,-1.9347,-1.9338,-1.9219,-1.916,-1.9439,-1.9535,-1.9061,-1.8803,-1.8994,-1.9039,-1.9265,-1.9272,-1.9199,1.7309,1.7226,1.7226,1.7376,1.7675,1.8366,1.8467,1.7989,1.7477,1.7081,1.6689,1.6166,1.6024,1.6038,1.5602,1.5256,1.536,1.5442,1.5383,1.3881,1.4331,1.4074,1.309,1.1629,1.065,0.9747,0.8525,0.7846,0.7665,0.7457,0.7032,0.6054,0.4643,0.3864,0.5075,0.5758,0.6825,0.6424,0.5757,0.5135,0.4619,0.3882,0.3011,0.2135,0.1469,0.0983,0.0493,0.0166,-0.0169,-0.0256,-0.0515,-0.0859,-0.0957,-0.1391,-0.2168,-0.3038,-0.4185,-0.5065,-0.5947,-0.7083,-0.5857,-0.4807,-0.4932,-0.6092,-0.7439,-0.8004,-0.9575,-1.1663,-1.3471,-1.3921,-1.3993,-1.3794,-1.4045,-1.4333,-1.5184,-1.6129,-1.6549,-1.7234,-1.7636,-1.849,-1.8856,-1.8869,-1.8792,-1.8584,-1.8248,-1.8185,-1.8228,-1.7912,-1.7622,-1.8141,-1.8571,-1.8869,-1.9093,-1.9606,-1.9832,-1.9806,-1.9815,-1.9742,-1.9749,-1.9836,-1.9751,-1.9952,-1.9732,-1.9691,-2.0042,-2.0282,-2.0605,-2.0629,-2.0527,-2.0545,-2.0833,-2.0675,-2.0436,-2.0202,-2.0012,1.5925,1.5624,1.557,1.5492,1.5647,1.6143,1.6275,1.5951,1.5707,1.5188,1.4739,1.4569,1.4258,1.4343,1.3775,1.3403,1.3186,1.2891,1.2243,1.1811,1.1061,1.07,0.9517,0.7897,0.6408,0.5373,0.4074,0.2346,0.2221,-0.0791,-0.2012,-0.2274,-0.3605,-0.3665,-0.2436,-0.061,0.1307,0.1466,0.1297,0.0515,-0.0421,-0.1677,-0.2331,-0.3046,-0.3524,-0.3702,-0.3975,-0.4105,-0.4075,-0.427,-0.4685,-0.4957,-0.5381,-0.6014,-0.6922,-0.7858,-0.9,-0.9411,-0.988,-1.0875,-1.1359,-1.0507,-1.1591,-1.2569,-1.2294,-1.1893,-1.2756,-1.3459,-1.4393,-1.495,-1.5332,-1.5671,-1.6021,-1.6821,-1.7654,-1.8218,-1.8588,-1.8983,-1.9348,-1.9819,-2.024,-2.0219,-2.0084,-1.9998,-1.9763,-1.9869,-1.9852,-2.0004,-1.9689,-1.9291,-1.9704,-1.9952,-2.0199,-2.042,-2.0467,-2.0623,-2.0759,-2.0866,-2.0778,-2.0768,-2.0689,-2.0689,-2.0876,-2.0999,-2.1213,-2.144,-2.1563,-2.1985,-2.2296,-2.2368,-2.2083,-2.1903,-2.1416,-2.1209,-2.1115,1.3324,1.3329,1.281,1.2168,1.1427,1.0279,1.1186,1.3374,1.2587,1.1974,1.2217,1.12,1.0789,1.1061,1.0548,0.9897,0.938,0.8783,0.7646,0.686,0.6024,0.4935,0.3585,0.2057,0.0943,-0.0427,-0.1964,-0.3677,-0.5783,-0.9208,-1.2093,-1.3392,-1.1742,-1.1702,-1.0642,-0.9083,-0.6326,-0.4265,-0.4126,-0.4584,-0.5607,-0.6589,-0.7219,-0.7651,-0.8191,-0.8229,-0.8357,-0.8655,-0.8586,-0.87,-0.9235,-0.9459,-0.9284,-0.9923,-1.0645,-1.1373,-1.2238,-1.2928,-1.3485,-1.3824,-1.4089,-1.4548,-1.5184,-1.479,-1.4559,-1.441,-1.4826,-1.5134,-1.5616,-1.6387,-1.6714,-1.7022,-1.749,-1.8133,-1.888,-1.9247,-1.9613,-2.0158,-2.0529,-2.0555,-2.0905,-2.1059,-2.1051,-2.1203,-2.1076,-2.1298,-2.1438,-2.1658,-2.1586,-2.1126,-2.0866,-2.1097,-2.1403,-2.162,-2.1768,-2.1924,-2.1977,-2.205,-2.1899,-2.1845,-2.1963,-2.1997,-2.2116,-2.2312,-2.2594,-2.251,-2.2402,-2.2903,-2.3526,-2.3103,-2.2826,-2.2668,-2.2518,-2.2393,-2.2529,0.9423,0.9072,0.8594,0.7717,0.6511,0.4987,0.5631,0.7032,0.7455,0.7639,0.7386,0.6601,0.6311,0.6281,0.5488,0.4734,0.4245,0.3066,0.1879,0.074,-0.0,-0.1352,-0.2803,-0.4498,-0.5759,-0.7021,-0.8438,-1.0213,-1.2288,-1.5078,-1.8177,-1.8305,-1.8057,-1.7554,-1.6424,-1.502,-1.3824,-1.1569,-1.0305,-0.9912,-1.0346,-1.1148,-1.1537,-1.1894,-1.2457,-1.25,-1.2537,-1.2945,-1.2906,-1.3015,-1.3477,-1.3593,-1.3613,-1.43,-1.4176,-1.4706,-1.4703,-1.5081,-1.5297,-1.5408,-1.5881,-1.6359,-1.6764,-1.6332,-1.6076,-1.591,-1.6281,-1.6707,-1.7387,-1.7956,-1.8048,-1.8241,-1.8696,-1.9155,-1.9613,-1.9985,-2.0529,-2.1168,-2.1266,-2.1186,-2.1284,-2.1562,-2.1722,-2.2008,-2.2176,-2.2277,-2.2503,-2.2795,-2.2861,-2.2609,-2.2318,-2.2242,-2.2611,-2.2844,-2.2962,-2.3016,-2.2992,-2.2948,-2.2794,-2.2859,-2.3109,-2.335,-2.3649,-2.3807,-2.3929,-2.3927,-2.3931,-2.418,-2.4557,-2.4219,-2.42,-2.4457,-2.4411,-2.4103,-2.4319,0.4689,0.392,0.3377,0.257,0.1351,0.0512,-0.0515,-0.1666,0.0904,0.2046,0.1441,0.129,0.1216,0.1069,-0.0076,-0.0764,-0.1477,-0.261,-0.4079,-0.5527,-0.6309,-0.7579,-0.9417,-1.1062,-1.1962,-1.3507,-1.4853,-1.5818,-1.7046,-1.8906,-2.0168,-2.0554,-2.0285,-1.9828,-1.9358,-1.9016,-1.8083,-1.7414,-1.5367,-1.4151,-1.5021,-1.5744,-1.5988,-1.6514,-1.653,-1.6464,-1.6487,-1.6519,-1.6609,-1.6846,-1.6919,-1.6927,-1.7335,-1.7581,-1.7334,-1.7258,-1.6931,-1.6991,-1.7045,-1.7047,-1.6973,-1.7145,-1.6981,-1.7379,-1.7576,-1.7294,-1.7535,-1.7757,-1.8319,-1.8788,-1.8964,-1.9155,-1.9521,-2.0059,-2.052,-2.097,-2.1526,-2.2008,-2.2251,-2.2162,-2.2232,-2.241,-2.2422,-2.2696,-2.2872,-2.3047,-2.3387,-2.38,-2.3932,-2.3927,-2.3744,-2.3459,-2.3739,-2.3926,-2.3737,-2.3757,-2.3866,-2.3786,-2.3861,-2.4237,-2.4764,-2.4992,-2.5107,-2.5622,-2.6036,-2.5757,-2.578,-2.6034,-2.6226,-2.6223,-2.6313,-2.6509,-2.6352,-2.5828,-2.5812,0.1614,0.1314,-0.0568,-0.1874,-0.2817,-0.4025,-0.5587,-0.7187,-0.6726,-0.4919,-0.326,-0.3503,-0.3734,-0.3951,-0.5295,-0.6006,-0.6594,-0.8016,-0.9813,-1.0958,-1.1988,-1.3207,-1.5431,-1.6118,-1.7405,-1.8614,-1.9716,-2.0576,-2.1186,-2.173,-2.1889,-2.1952,-2.1876,-2.1725,-2.1211,-2.0991,-2.1088,-2.0896,-1.974,-1.8426,-1.8976,-1.8795,-1.878,-1.8559,-1.8318,-1.7691,-1.7538,-1.7538,-1.7853,-1.8167,-1.8167,-1.8232,-1.8408,-1.8229,-1.8118,-1.8235,-1.8584,-1.8594,-1.8684,-1.871,-1.884,-1.9085,-1.92,-1.9348,-1.9232,-1.8756,-1.8603,-1.8872,-1.9147,-1.9687,-2.0051,-2.024,-2.043,-2.106,-2.1507,-2.205,-2.2511,-2.2861,-2.3222,-2.3213,-2.3193,-2.3193,-2.3193,-2.3377,-2.3551,-2.382,-2.4251,-2.468,-2.4925,-2.5041,-2.5009,-2.4892,-2.4966,-2.5041,-2.4851,-2.483,-2.5104,-2.5242,-2.5368,-2.5797,-2.6389,-2.6748,-2.7102,-2.7842,-2.8251,-2.7692,-2.7466,-2.7893,-2.8045,-2.7875,-2.7736,-2.7752,-2.778,-2.7417,-2.7372,-0.1836,-0.2596,-0.4308,-0.5669,-0.6658,-0.7743,-0.9205,-1.0762,-1.1384,-1.0879,-0.9531,-0.9015,-0.8613,-0.8891,-1.0217,-1.0827,-1.1304,-1.2977,-1.4471,-1.579,-1.6581,-1.7791,-1.9257,-2.0222,-2.0762,-2.1771,-2.3033,-2.3954,-2.435,-2.4181,-2.3963,-2.3559,-2.3497,-2.3001,-2.2413,-2.2488,-2.2283,-2.1859,-2.1807,-2.1787,-2.1548,-2.0537,-1.9599,-1.9213,-1.8665,-1.8121,-1.7959,-1.7959,-1.8112,-1.8576,-1.8727,-1.8545,-1.8516,-1.8496,-1.8625,-1.8939,-1.9245,-1.9684,-1.9884,-2.0162,-2.0404,-2.0503,-2.0836,-2.0676,-2.0935,-2.0622,-2.0882,-2.1069,-2.1176,-2.1621,-2.2161,-2.2435,-2.2551,-2.2911,-2.3008,-2.3193,-2.329,-2.3416,-2.3553,-2.3553,-2.3531,-2.3559,-2.3644,-2.4104,-2.4286,-2.4584,-2.5105,-2.5768,-2.6019,-2.6257,-2.6246,-2.6279,-2.6396,-2.6517,-2.658,-2.6569,-2.6625,-2.6753,-2.667,-2.7383,-2.7968,-2.8631,-2.9202,-2.9352,-2.9298,-2.8953,-2.892,-2.9215,-2.9223,-2.8905,-2.875,-2.8743,-2.8781,-2.8826,-2.8679,-0.5262,-0.67,-0.7688,-0.881,-1.0012,-1.0639,-1.1755,-1.3119,-1.4046,-1.5027,-1.548,-1.3816,-1.3371,-1.3675,-1.46,-1.5155,-1.5817,-1.6643,-1.8238,-1.9193,-1.9697,-2.0642,-2.149,-2.2423,-2.2971,-2.3759,-2.4872,-2.5692,-2.6208,-2.5779,-2.5276,-2.5087,-2.4455,-2.3666,-2.3457,-2.3235,-2.2724,-2.2585,-2.2488,-2.2478,-2.17,-2.0779,-1.9991,-1.9292,-1.8629,-1.8181,-1.7946,-1.7792,-1.7946,-1.846,-1.8967,-1.8966,-1.9068,-1.9178,-1.9645,-1.9945,-2.0367,-2.0518,-2.0492,-2.1042,-2.1078,-2.1194,-2.1603,-2.2124,-2.2475,-2.265,-2.2911,-2.3172,-2.3278,-2.3384,-2.3922,-2.4114,-2.4221,-2.4241,-2.4155,-2.4241,-2.4155,-2.4069,-2.4155,-2.4166,-2.4152,-2.4158,-2.443,-2.4798,-2.5126,-2.5421,-2.6019,-2.6753,-2.7325,-2.7545,-2.7602,-2.7731,-2.7859,-2.8032,-2.7971,-2.7917,-2.779,-2.7775,-2.7763,-2.873,-2.9564,-3.0036,-3.0271,-3.0103,-3.0017,-3.0059,-3.0019,-3.0131,-3.0026,-2.9895,-2.986,-2.9837,-2.9749,-2.9726,-2.9578,-0.7477,-0.9087,-1.0147,-1.0996,-1.1803,-1.2251,-1.3034,-1.4085,-1.4971,-1.593,-1.6958,-1.7612,-1.7189,-1.6396,-1.7252,-1.7803,-1.8245,-1.9401,-2.0385,-2.133,-2.1621,-2.2701,-2.3418,-2.3639,-2.4616,-2.53,-2.5777,-2.6155,-2.6604,-2.6352,-2.5779,-2.4921,-2.4719,-2.4009,-2.315,-2.2927,-2.2852,-2.2713,-2.2563,-2.2488,-2.2056,-2.1272,-2.0769,-2.0017,-1.9192,-1.8646,-1.8228,-1.767,-1.7904,-1.8391,-1.886,-1.9227,-1.966,-2.0014,-2.0482,-2.1019,-2.1553,-2.1907,-2.207,-2.2621,-2.2795,-2.3153,-2.375,-2.418,-2.4361,-2.4265,-2.4607,-2.5031,-2.5041,-2.4617,-2.4808,-2.4563,-2.4498,-2.4498,-2.4509,-2.4935,-2.52,-2.5274,-2.5443,-2.5432,-2.5535,-2.5583,-2.5677,-2.5964,-2.6152,-2.6517,-2.6987,-2.773,-2.8267,-2.8652,-2.9032,-2.9126,-2.9309,-2.8575,-2.8143,-2.8617,-2.8608,-2.8594,-2.8851,-2.9743,-3.0532,-3.1294,-3.1456,-3.1063,-3.1263,-3.1495,-3.1455,-3.0977,-3.1168,-3.1106,-3.1074,-3.0972,-3.0771,-3.0486,-3.0242]},{"header":{"parameterUnit":"m.s-1","parameterCategory":1,"la1":31.0,"la2":29.5877,"lo1":-88.7671,"lo2":-86.6584,"dy":0.0162,"dx":0.0185,"nx":115,"ny":88,"refTime":"2024-03-15T00:00:00:Z","depth":0,"parameterNumber":3,"parameterNumberName":"V-component_of_WINDS"},"data":[0.0,0.0,0.0,0.0,0.0,0.0,0.0,0.0,0.0,0.0,0.0,0.0,0.0,0.0,0.0,0.0,0.0,0.0,0.0,0.0,0.0,0.0,0.0,0.0,0.0,0.0,0.0,0.0,0.0,0.0,0.0,0.0,0.0,0.0,0.0,0.0,0.0,0.0,0.0,0.0,0.0,0.0,0.0,0.0,0.0,0.0,0.0,0.0,0.0,0.0,0.0,0.0,0.0,0.0,0.0,0.0,0.0,0.0,0.0,0.0,0.0,0.0,0.0,0.0,0.0,0.0,0.0,0.0,0.0,0.0,0.0,0.0,0.0,0.0,0.0,0.0,0.0,0.0,0.0,0.0,0.0,0.0,0.0,0.0,0.0,0.0,0.0,0.0,0.0,0.0,0.0,0.0,0.0,0.0,0.0,0.0,0.0,0.0,0.0,0.0,0.0,0.0,0.0,0.0,0.0,0.0,0.0,0.0,0.0,0.0,0.0,0.0,0.0,0.0,0.0,0.0,0.0,0.0,0.0,0.0,0.0,0.0,0.0,0.0,0.0,0.0,0.0,0.0,0.0,0.0,0.0,0.0,0.0,0.0,0.0,0.0,0.0,0.0,0.0,0.0,0.0,0.0,0.0,0.0,0.0,0.0,0.0,0.0,0.0,0.0,0.0,0.0,0.0,0.0,0.0,0.0,0.0,0.0,0.0,0.0,0.0,0.0,0.0,0.0,0.0,0.0,0.0,0.0,0.0,0.0,0.0,0.0,0.0,0.0,0.0,0.0,0.0,0.0,0.0,0.0,0.0,0.0,0.0,0.0,0.0,0.0,0.0,0.0,0.0,0.0,0.0,0.0,0.0,0.0,0.0,0.0,0.0,0.0,0.0,0.0,0.0,0.0,0.0,0.0,0.0,0.0,0.0,0.0,0.0,0.0,0.0,0.0,0.0,0.0,0.0,0.0,0.0,0.0,0.0,0.0,0.0,0.0,0.0,0.0,0.0,0.0,0.0,0.0,0.0,0.0,0.0,0.0,0.0,0.0,0.0,0.0,0.0,0.0,0.0,0.0,0.0,0.0,0.0,0.0,0.0,0.0,0.0,0.0,0.0,0.0,0.0,0.0,0.0,0.0,0.0,0.0,0.0,0.0,0.0,0.0,0.0,0.0,0.0,0.0,0.0,0.0,0.0,0.0,0.0,0.0,0.0,0.0,0.0,0.0,0.0,0.0,0.0,0.0,0.0,0.0,0.0,0.0,0.0,0.0,0.0,0.0,0.0,0.0,0.0,0.0,0.0,0.0,0.0,0.0,0.0,0.0,0.0,0.0,0.0,0.0,0.0,0.0,0.0,0.0,0.0,0.0,0.0,0.0,0.0,0.0,0.0,0.0,0.0,0.0,0.0,0.0,0.0,0.0,0.0,0.0,0.0,0.0,0.0,0.0,0.0,0.0,0.0,0.0,0.0,0.0,0.0,0.0,0.0,0.0,0.0,0.0,0.0,0.0,0.0,0.0,0.0,0.0,0.0,0.0,0.0,0.0,0.0,0.0,0.0,0.0,0.0,0.0,0.0,0.0,0.0,0.0,0.0,0.0,0.0,0.0,0.0,0.0,0.0,0.0,0.0,0.0,0.0,0.0,0.0,0.0,0.0,0.0,0.0,0.0,0.0,0.0,0.0,0.0,0.0,0.0,0.0,0.0,0.0,0.0,0.0,0.0,0.0,0.0,0.0,0.0,0.0,0.0,0.0,0.0,0.0,0.0,0.0,0.0,0.0,0.0,0.0,0.0,0.0,0.0,0.0,0.0,0.0,0.0,0.0,0.0,0.0,0.0,0.0,0.0,0.0,0.0,0.0,0.0,0.0,0.0,0.0,0.0,0.0,0.0,0.0,0.0,0.0,0.0,0.0,0.0,0.0,0.0,0.0,0.0,0.0,0.0,0.0,0.0,0.0,0.0,0.0,0.0,0.0,0.0,0.0,0.0,0.0,0.0,0.0,0.0,0.0,0.0,0.0,0.0,0.0,0.0,0.0,0.0,0.0,0.0,0.0,0.0,0.0,0.0,0.0,0.0,0.0,0.0,0.0,0.0,0.0,0.0,0.0,0.0,0.0,0.0,0.0,0.0,0.0,0.0,0.0,0.0,0.0,0.0,0.0,0.0,0.0,0.0,0.0,0.0,0.0,0.0,0.0,0.0,0.0,0.0,0.0,0.0,0.0,0.0,0.0,0.0,0.0,0.0,0.0,0.0,0.0,0.0,0.0,0.0,0.0,0.0,0.0,0.0,0.0,0.0,0.0,0.0,0.0,0.0,0.0,0.0,0.0,0.0,0.0,0.0,0.0,0.0,0.0,0.0,0.0,0.0,0.0,0.0,0.0,0.0,0.0,0.0,0.0,0.0,0.0,0.0,0.0,0.0,0.0,0.0,0.0,0.0,0.0,0.0,0.0,0.0,0.0,0.0,0.0,0.0,0.0,0.0,0.0,0.0,0.0,0.0,0.0,0.0,0.0,0.0,0.0,0.0,0.0,0.0,0.0,0.0,0.0,0.0,0.0,0.0,0.0,0.0,0.0,0.0,0.0,0.0,0.0,0.0,0.0,0.0,0.0,0.0,0.0,0.0,0.0,0.0,0.0,0.0,0.0,0.0,0.0,0.0,0.0,0.0,0.0,0.0,0.0,0.0,0.0,0.0,0.0,0.0,0.0,0.0,0.0,0.0,0.0,0.0,0.0,0.0,0.0,0.0,0.0,0.0,0.0,0.0,0.0,0.0,0.0,0.0,0.0,0.0,0.0,0.0,0.0,0.0,0.0,0.0,0.0,0.0,0.0,0.0,0.0,0.0,0.0,0.0,0.0,0.0,0.0,0.0,0.0,0.0,0.0,0.0,0.0,0.0,0.0,0.0,0.0,0.0,0.0,0.0,0.0,0.0,0.0,0.0,0.0,0.0,0.0,0.0,0.0,0.0,0.0,0.0,0.0,0.0,0.0,0.0,0.0,0.0,0.0,0.0,0.0,0.0,0.0,0.0,0.0,0.0,0.0,0.0,0.0,0.0,0.0,0.0,0.0,0.0,0.0,0.0,0.0,0.0,0.0,0.0,0.0,0.0,0.0,0.0,0.0,0.0,0.0,0.0,0.0,0.0,0.0,0.0,0.0,0.0,0.0,0.0,0.0,0.0,0.0,0.0,0.0,0.0,0.0,0.0,0.0,0.0,0.0,0.0,0.0,0.0,0.0,0.0,0.0,0.0,0.0,0.0,0.0,0.0,0.0,0.0,0.0,0.0,0.0,0.0,0.0,0.0,0.0,0.0,0.0,0.0,0.0,0.0,0.0,0.0,0.0,0.0,0.0,0.0,0.0,0.0,0.0,0.0,0.0,0.0,0.0,0.0,0.0,0.0,0.0,0.0,0.0,0.0,0.0,0.0,0.0,0.0,0.0,0.0,0.0,0.0,0.0,0.0,0.0,0.0,0.0,0.0,0.0,0.0,0.0,0.0,0.0,0.0,0.0,0.0,0.0,0.0,0.0,0.0,0.0,0.0,0.0,0.0,0.0,0.0,0.0,0.0,0.0,0.0,0.0,0.0,0.0,0.0,0.0,0.0,0.0,0.0,0.0,0.0,0.0,0.0,0.0,0.0,0.0,0.0,0.0,0.0,0.0,0.0,0.0,0.0,0.0,0.0,0.0,0.0,0.0,0.0,0.0,0.0,0.0,0.0,0.0,0.0,0.0,0.0,0.0,0.0,0.0,0.0,0.0,0.0,0.0,0.0,0.0,0.0,0.0,0.0,0.0,0.0,0.0,0.0,0.0,0.0,0.0,0.0,0.0,0.0,0.0,0.0,0.0,0.0,0.0,0.0,0.0,0.0,0.0,0.0,0.0,0.0,0.0,0.0,0.0,0.0,0.0,0.0,0.0,0.0,0.0,0.0,0.0,0.0,0.0,0.0,0.0,0.0,0.0,0.0,0.0,0.0,0.0,0.0,0.0,0.0,0.0,0.0,0.0,0.0,0.0,0.0,0.0,0.0,0.0,0.0,0.0,0.0,0.0,0.0,0.0,0.0,0.0,0.0,0.0,0.0,0.0,0.0,0.0,0.0,0.0,0.0,0.0,0.0,0.0,0.0,0.0,0.0,0.0,0.0,0.0,0.0,0.0,0.0,0.0,0.0,0.0,0.0,0.0,0.0,0.0,0.0,0.0,0.0,0.0,0.0,0.0,0.0,0.0,0.0,0.0,0.0,0.0,0.0,0.0,0.0,0.0,0.0,0.0,0.0,0.0,0.0,-0.7392,0.0,0.0,0.0,0.0,0.0,0.0,0.0,0.0,0.0,0.0,0.0,0.0,0.0,0.0,0.0,0.0,0.0,0.0,0.0,0.0,0.0,0.0,0.0,0.0,0.0,0.0,0.0,0.0,0.0,0.0,0.0,0.0,0.0,0.0,0.0,0.0,0.0,0.0,0.0,0.0,0.0,0.0,0.0,0.0,0.0,0.0,0.0,0.0,0.0,0.0,0.0,0.0,0.0,0.0,0.0,0.0,0.0,0.0,0.0,0.0,0.0,0.0,0.0,0.0,0.0,0.0,0.0,0.0,0.0,0.0,0.0,0.0,0.0,0.0,0.0,0.0,0.0,0.0,0.0,0.0,0.0,0.0,0.0,0.0,0.0,0.0,0.0,0.0,0.0,0.0,0.0,0.0,0.0,0.0,0.0,0.0,0.0,0.0,0.0,0.0,0.0,0.0,0.0,0.0,0.0,0.0,0.0,0.0,0.0,0.0,-0.7479,-0.8577,-0.7437,-0.7155,-0.8049,0.0,0.0,0.0,0.0,0.0,0.0,0.0,0.0,0.0,0.0,0.0,0.0,0.0,0.0,0.0,0.0,0.0,0.0,0.0,0.0,0.0,0.0,0.0,0.0,0.0,0.0,0.0,0.0,0.0,0.0,0.0,0.0,0.0,0.0,0.0,0.0,0.0,0.0,0.0,0.0,0.0,0.0,0.0,0.0,0.0,0.0,0.0,0.0,0.0,0.0,0.0,0.0,0.0,0.0,0.0,0.0,0.0,0.0,0.0,0.0,0.0,0.0,0.0,0.0,0.0,0.0,0.0,0.0,0.0,0.0,0.0,0.0,0.0,0.0,0.0,0.0,0.0,0.0,0.0,0.0,0.0,0.0,0.0,0.0,0.0,0.0,0.0,0.0,0.0,0.0,0.0,0.0,0.0,0.0,0.0,0.0,0.0,0.0,0.0,0.0,0.0,0.0,0.0,0.0,0.0,0.0,0.0,0.0,0.0,0.0,0.0,0.0,-0.807,-0.7894,-0.9031,0.0,0.0,0.0,0.0,0.0,0.0,0.0,0.0,0.0,0.0,0.0,0.0,0.0,0.0,0.0,0.0,0.0,0.0,0.0,0.0,0.0,0.0,0.0,0.0,0.0,0.0,0.0,0.0,0.0,0.0,0.0,0.0,0.0,0.0,0.0,0.0,0.0,0.0,0.0,0.0,0.0,0.0,0.0,0.0,0.0,0.0,0.0,0.0,0.0,0.0,0.0,0.0,0.0,0.0,0.0,0.0,0.0,0.0,0.0,0.0,0.0,0.0,0.0,0.0,0.0,0.0,0.0,0.0,0.0,0.0,0.0,0.0,0.0,0.0,0.0,0.0,0.0,0.0,0.0,0.0,0.0,0.0,0.0,0.0,0.0,0.0,0.0,0.0,0.0,0.0,0.0,0.0,0.0,0.0,0.0,0.0,0.0,0.0,0.0,0.0,0.0,0.0,0.0,0.0,0.0,0.0,0.0,0.0,0.0,0.0,-0.8805,-1.0215,-0.9603,0.0,-1.0779,0.0,0.0,0.0,0.0,0.0,0.0,0.0,0.0,0.0,0.0,0.0,0.0,0.0,0.0,0.0,0.0,0.0,0.0,0.0,0.0,0.0,0.0,0.0,0.0,0.0,0.0,0.0,0.0,0.0,0.0,0.0,0.0,0.0,0.0,0.0,0.0,0.0,0.0,0.0,0.0,0.0,0.0,0.0,0.0,0.0,0.0,0.0,0.0,0.0,0.0,0.0,0.0,0.0,0.0,0.0,0.0,0.0,0.0,0.0,0.0,0.0,0.0,0.0,0.0,0.0,0.0,0.0,0.0,0.0,0.0,0.0,0.0,0.0,0.0,0.0,0.0,0.0,0.0,0.0,0.0,0.0,0.0,0.0,0.0,0.0,0.0,0.0,0.0,0.0,0.0,0.0,0.0,0.0,0.0,0.0,0.0,0.0,0.0,0.0,0.0,0.0,0.0,0.0,0.0,0.0,0.0,0.0,0.0,0.0,0.0,-0.9633,-1.0597,-1.0314,-1.0358,0.0,0.0,0.0,0.0,0.0,0.0,0.0,0.0,0.0,0.0,0.0,0.0,0.0,0.0,0.0,0.0,0.0,0.0,0.0,0.0,0.0,0.0,0.0,0.0,0.0,0.0,0.0,0.0,0.0,0.0,0.0,0.0,0.0,0.0,0.0,0.0,0.0,0.0,0.0,0.0,0.0,0.0,0.0,0.0,0.0,0.0,0.0,0.0,0.0,0.0,0.0,0.0,0.0,0.0,0.0,0.0,0.0,0.0,0.0,0.0,0.0,0.0,0.0,0.0,0.0,0.0,0.0,0.0,0.0,0.0,0.0,0.0,0.0,0.0,0.0,0.0,0.0,0.0,0.0,0.0,0.0,0.0,0.0,0.0,0.0,0.0,0.0,0.0,0.0,0.0,0.0,0.0,0.0,0.0,0.0,0.0,0.0,0.0,0.0,0.0,0.0,0.0,0.0,0.0,0.0,0.0,0.0,0.0,0.0,0.0,-0.9637,-1.0142,-1.085,-1.0695,-1.0608,-1.0637,0.0,0.0,0.0,0.0,0.0,0.0,0.0,0.0,0.0,0.0,0.0,0.0,0.0,0.0,0.0,0.0,0.0,0.0,0.0,0.0,0.0,0.0,0.0,0.0,0.0,0.0,0.0,0.0,0.0,0.0,0.0,0.0,0.0,0.0,0.0,0.0,0.0,0.0,0.0,0.0,0.0,0.0,0.0,0.0,0.0,0.0,0.0,0.0,0.0,0.0,0.0,0.0,0.0,0.0,0.0,0.0,0.0,0.0,0.0,0.0,0.0,0.0,0.0,0.0,0.0,0.0,0.0,0.0,0.0,0.0,0.0,0.0,0.0,0.0,0.0,0.0,0.0,0.0,0.0,0.0,0.0,0.0,0.0,0.0,0.0,0.0,0.0,0.0,0.0,0.0,0.0,0.0,0.0,0.0,0.0,0.0,0.0,0.0,0.0,0.0,0.0,0.0,0.0,0.0,0.0,0.0,0.0,0.0,-1.0507,-0.9903,-1.0052,-1.1105,-1.0824,-1.0725,0.0,0.0,0.0,0.0,0.0,0.0,0.0,0.0,0.0,0.0,0.0,0.0,0.0,0.0,0.0,0.0,0.0,0.0,0.0,0.0,0.0,0.0,0.0,0.0,0.0,0.0,0.0,0.0,0.0,0.0,0.0,0.0,0.0,0.0,0.0,0.0,0.0,0.0,0.0,0.0,0.0,0.0,0.0,0.0,0.0,0.0,0.0,0.0,0.0,0.0,0.0,0.0,0.0,0.0,0.0,0.0,0.0,0.0,0.0,0.0,0.0,0.0,0.0,0.0,0.0,0.0,0.0,0.0,0.0,0.0,0.0,0.0,0.0,0.0,0.0,0.0,0.0,0.0,0.0,0.0,0.0,0.0,0.0,0.0,0.0,0.0,0.0,0.0,0.0,0.0,0.0,0.0,0.0,0.0,0.0,0.0,0.0,0.0,0.0,0.0,0.0,0.0,0.0,0.0,0.0,0.0,0.0,0.0,0.0,-0.887,-0.9562,-1.0016,-1.0192,-1.0862,-1.1221,0.0,0.0,0.0,0.0,0.0,0.0,0.0,0.0,0.0,0.0,0.0,0.0,0.0,0.0,0.0,0.0,0.0,0.0,0.0,0.0,0.0,0.0,0.0,0.0,0.0,0.0,0.0,0.0,0.0,0.0,0.0,0.0,0.0,0.0,0.0,0.0,0.0,0.0,0.0,0.0,0.0,0.0,0.0,0.0,0.0,0.0,0.0,0.0,0.0,0.0,0.0,0.0,0.0,0.0,0.0,0.0,0.0,0.0,0.0,0.0,0.0,0.0,0.0,0.0,0.0,0.0,0.0,0.0,0.0,0.0,0.0,0.0,0.0,0.0,0.0,0.0,0.0,0.0,0.0,0.0,0.0,0.0,0.0,0.0,0.0,0.0,0.0,0.0,0.0,0.0,0.0,0.0,0.0,0.0,0.0,0.0,0.0,0.0,0.0,0.0,0.0,0.0,0.0,0.0,0.0,0.0,0.0,0.0,0.0,-0.8055,0.0,-0.9568,-0.9472,-1.0605,-1.1254,0.0,0.0,0.0,0.0,0.0,0.0,0.0,0.0,0.0,0.0,0.0,0.0,0.0,0.0,0.0,0.0,0.0,0.0,0.0,0.0,0.0,0.0,0.0,0.0,0.0,0.0,0.0,0.0,0.0,0.0,0.0,0.0,0.0,0.0,0.0,0.0,0.0,0.0,0.0,0.0,0.0,0.0,0.0,0.0,0.0,0.0,0.0,0.0,0.0,0.0,0.0,0.0,0.0,0.0,0.0,0.0,0.0,0.0,0.0,0.0,0.0,0.0,0.0,0.0,0.0,0.0,0.0,0.0,0.0,0.0,0.0,0.0,0.0,0.0,0.0,0.0,0.0,0.0,0.0,0.0,0.0,0.0,0.0,0.0,0.0,0.0,0.0,0.0,0.0,0.0,0.0,0.0,0.0,0.0,0.0,0.0,0.0,0.0,0.0,0.0,0.0,0.0,0.0,0.0,0.0,0.0,0.0,0.0,-0.8358,-0.8407,-0.8481,-0.8749,-0.9126,-1.0073,-1.0868,0.0,0.0,0.0,0.0,0.0,0.0,0.0,0.0,0.0,0.0,0.0,0.0,0.0,0.0,0.0,0.0,0.0,0.0,0.0,0.0,0.0,0.0,0.0,0.0,0.0,0.0,0.0,0.0,0.0,0.0,0.0,0.0,0.0,0.0,0.0,0.0,0.0,0.0,0.0,0.0,0.0,0.0,0.0,0.0,0.0,0.0,0.0,0.0,0.0,0.0,0.0,0.0,0.0,0.0,0.0,0.0,0.0,0.0,0.0,0.0,0.0,0.0,0.0,0.0,0.0,0.0,0.0,0.0,0.0,0.0,0.0,0.0,0.0,0.0,0.0,0.0,0.0,0.0,0.0,0.0,0.0,0.0,0.0,0.0,0.0,0.0,0.0,0.0,0.0,0.0,0.0,0.0,0.0,0.0,0.0,0.0,0.0,0.0,0.0,0.0,0.0,0.0,0.0,0.0,0.0,0.0,0.0,0.0,0.0,-0.8612,-0.8343,-0.8784,-0.9888,-1.0549,-1.1487,0.0,0.0,0.0,0.0,0.0,0.0,0.0,0.0,0.0,0.0,0.0,0.0,0.0,0.0,0.0,0.0,0.0,0.0,0.0,0.0,0.0,0.0,0.0,0.0,0.0,0.0,0.0,0.0,0.0,0.0,0.0,0.0,0.0,0.0,0.0,0.0,0.0,0.0,0.0,0.0,0.0,0.0,0.0,0.0,0.0,0.0,0.0,0.0,0.0,0.0,0.0,0.0,0.0,0.0,0.0,0.0,0.0,0.0,0.0,0.0,0.0,0.0,0.0,0.0,0.0,0.0,0.0,0.0,0.0,0.0,0.0,0.0,0.0,0.0,0.0,0.0,0.0,0.0,0.0,0.0,0.0,0.0,0.0,0.0,0.0,0.0,0.0,0.0,0.0,0.0,0.0,0.0,0.0,0.0,0.0,0.0,0.0,0.0,0.0,0.0,0.0,0.0,0.0,0.0,0.0,0.0,0.0,0.0,0.0,-0.9271,-0.8332,-0.8247,-0.9147,-1.0534,-1.1763,-1.276,0.0,0.0,0.0,0.0,0.0,0.0,0.0,0.0,0.0,0.0,0.0,0.0,0.0,0.0,0.0,0.0,0.0,0.0,0.0,0.0,0.0,0.0,0.0,0.0,0.0,0.0,0.0,0.0,0.0,0.0,0.0,0.0,0.0,0.0,0.0,0.0,0.0,0.0,0.0,0.0,0.0,0.0,0.0,0.0,0.0,0.0,0.0,0.0,0.0,0.0,0.0,0.0,0.0,0.0,0.0,0.0,0.0,0.0,0.0,0.0,0.0,0.0,0.0,0.0,0.0,0.0,0.0,0.0,0.0,0.0,0.0,0.0,0.0,0.0,0.0,0.0,0.0,0.0,0.0,0.0,0.0,0.0,0.0,0.0,0.0,0.0,0.0,0.0,0.0,0.0,0.0,0.0,0.0,0.0,0.0,0.0,0.0,0.0,0.0,0.0,0.0,0.0,0.0,0.0,0.0,0.0,0.0,0.0,-1.0299,-0.8431,-0.7524,-0.7645,-1.0134,-1.1651,0.0,0.0,0.0,0.0,0.0,0.0,0.0,0.0,0.0,0.0,0.0,0.0,0.0,0.0,0.0,0.0,0.0,0.0,0.0,0.0,0.0,0.0,0.0,0.0,0.0,0.0,0.0,0.0,0.0,0.0,0.0,0.0,0.0,0.0,0.0,0.0,0.0,0.0,0.0,0.0,0.0,0.0,0.0,0.0,0.0,0.0,0.0,0.0,0.0,0.0,0.0,0.0,0.0,0.0,0.0,0.0,0.0,0.0,0.0,0.0,0.0,0.0,0.0,0.0,0.0,0.0,0.0,0.0,0.0,0.0,0.0,0.0,0.0,0.0,0.0,0.0,0.0,0.0,0.0,0.0,0.0,0.0,0.0,0.0,0.0,0.0,0.0,0.0,0.0,0.0,0.0,0.0,0.0,0.0,0.0,0.0,0.0,0.0,0.0,0.0,0.0,0.0,0.0,0.0,0.0,0.0,0.0,0.0,0.0,-1.0458,-0.9026,-0.886,-1.0195,-1.0555,-1.1148,0.0,0.0,0.0,0.0,0.0,0.0,0.0,0.0,0.0,0.0,0.0,0.0,0.0,0.0,0.0,0.0,0.0,0.0,0.0,0.0,0.0,0.0,0.0,0.0,0.0,0.0,0.0,0.0,0.0,0.0,0.0,0.0,0.0,0.0,0.0,0.0,0.0,0.0,0.0,0.0,0.0,0.0,0.0,0.0,0.0,0.0,0.0,0.0,0.0,0.0,0.0,0.0,0.0,0.0,0.0,0.0,0.0,0.0,0.0,0.0,0.0,0.0,0.0,0.0,0.0,0.0,0.0,0.0,0.0,0.0,0.0,0.0,0.0,0.0,0.0,0.0,0.0,0.0,0.0,0.0,0.0,0.0,0.0,0.0,0.0,0.0,0.0,0.0,0.0,0.0,0.0,0.0,0.0,0.0,0.0,0.0,0.0,0.0,0.0,0.0,0.0,0.0,0.0,0.0,0.0,0.0,0.0,0.0,-1.0699,-1.0361,-0.9344,-0.9343,-1.0505,-1.0625,-1.0887,0.0,0.0,0.0,0.0,0.0,0.0,0.0,0.0,0.0,0.0,0.0,0.0,0.0,0.0,0.0,0.0,0.0,0.0,0.0,0.0,0.0,0.0,0.0,0.0,0.0,0.0,0.0,0.0,0.0,0.0,0.0,0.0,0.0,0.0,0.0,0.0,0.0,0.0,0.0,0.0,0.0,0.0,0.0,0.0,0.0,0.0,0.0,0.0,0.0,0.0,0.0,0.0,0.0,0.0,0.0,0.0,0.0,0.0,0.0,0.0,0.0,0.0,0.0,0.0,0.0,0.0,0.0,0.0,0.0,0.0,0.0,0.0,0.0,0.0,0.0,0.0,0.0,0.0,0.0,0.0,0.0,0.0,0.0,0.0,0.0,0.0,0.0,0.0,0.0,0.0,0.0,0.0,0.0,0.0,0.0,0.0,0.0,0.0,0.0,0.0,0.0,0.0,0.0,0.0,0.0,0.0,0.0,0.0,-1.0579,-1.0021,-0.9489,-0.9268,-0.9458,-1.0323,-1.0586,0.0,0.0,0.0,0.0,0.0,0.0,0.0,0.0,0.0,0.0,0.0,0.0,0.0,0.0,0.0,0.0,0.0,0.0,0.0,0.0,0.0,0.0,0.0,0.0,0.0,0.0,0.0,0.0,0.0,0.0,0.0,0.0,0.0,0.0,0.0,0.0,0.0,0.0,0.0,0.0,0.0,0.0,0.0,0.0,0.0,0.0,0.0,0.0,0.0,0.0,0.0,0.0,0.0,0.0,0.0,0.0,0.0,0.0,0.0,0.0,0.0,0.0,0.0,0.0,0.0,0.0,0.0,0.0,0.0,0.0,0.0,0.0,0.0,0.0,0.0,0.0,0.0,0.0,0.0,0.0,0.0,0.0,0.0,0.0,0.0,0.0,0.0,0.0,0.0,0.0,0.0,0.0,0.0,0.0,0.0,0.0,0.0,0.0,0.0,0.0,0.0,0.0,0.0,0.0,0.0,0.0,0.0,0.0,-1.0336,-1.0148,-0.9433,-0.9022,-0.9034,-0.9292,-0.9416,0.0,0.0,0.0,0.0,0.0,0.0,0.0,0.0,0.0,0.0,0.0,0.0,0.0,0.0,0.0,0.0,0.0,0.0,0.0,0.0,0.0,0.0,0.0,0.0,0.0,0.0,0.0,0.0,0.0,0.0,0.0,0.0,0.0,0.0,0.0,0.0,0.0,0.0,0.0,0.0,0.0,0.0,0.0,0.0,0.0,0.0,0.0,0.0,-1.64,0.0,0.0,0.0,0.0,0.0,0.0,0.0,0.0,0.0,0.0,0.0,0.0,0.0,0.0,0.0,0.0,0.0,0.0,0.0,0.0,0.0,0.0,0.0,0.0,0.0,0.0,0.0,0.0,0.0,0.0,0.0,0.0,0.0,0.0,0.0,0.0,0.0,0.0,0.0,0.0,0.0,0.0,0.0,0.0,0.0,0.0,0.0,0.0,0.0,0.0,0.0,0.0,0.0,0.0,0.0,0.0,0.0,0.0,0.0,-0.9821,-0.9673,-0.917,-0.8714,-0.8314,-0.8287,-0.8629,0.0,0.0,0.0,0.0,0.0,0.0,0.0,0.0,0.0,0.0,0.0,0.0,0.0,0.0,0.0,0.0,0.0,0.0,0.0,0.0,0.0,0.0,0.0,0.0,0.0,0.0,0.0,0.0,0.0,0.0,0.0,0.0,0.0,0.0,0.0,0.0,0.0,0.0,0.0,0.0,0.0,0.0,0.0,0.0,0.0,0.0,0.0,0.0,0.0,0.0,0.0,0.0,0.0,0.0,0.0,0.0,0.0,0.0,0.0,0.0,0.0,0.0,0.0,0.0,0.0,0.0,0.0,0.0,0.0,0.0,0.0,0.0,0.0,0.0,0.0,0.0,0.0,0.0,0.0,0.0,0.0,0.0,0.0,0.0,0.0,0.0,0.0,0.0,0.0,0.0,0.0,0.0,0.0,0.0,0.0,0.0,0.0,0.0,0.0,0.0,0.0,0.0,0.0,0.0,0.0,0.0,0.0,-1.0022,-0.9292,-0.8908,-0.8792,-0.8311,-0.7449,-0.7469,-0.8214,-0.9731,0.0,0.0,0.0,0.0,0.0,0.0,0.0,0.0,0.0,0.0,0.0,0.0,0.0,0.0,0.0,0.0,0.0,0.0,0.0,0.0,0.0,0.0,0.0,0.0,0.0,0.0,0.0,0.0,0.0,0.0,0.0,0.0,0.0,0.0,0.0,0.0,0.0,0.0,-1.3132,-1.3624,0.0,0.0,0.0,0.0,0.0,0.0,0.0,0.0,-1.8163,0.0,0.0,0.0,0.0,0.0,0.0,0.0,0.0,0.0,0.0,0.0,0.0,0.0,0.0,0.0,0.0,0.0,0.0,0.0,0.0,0.0,0.0,0.0,0.0,0.0,0.0,0.0,0.0,0.0,0.0,0.0,0.0,0.0,0.0,0.0,0.0,0.0,0.0,0.0,0.0,0.0,0.0,0.0,0.0,0.0,0.0,0.0,0.0,0.0,0.0,0.0,0.0,0.0,0.0,0.0,0.0,-1.0782,-1.0207,-0.9289,-0.8051,-0.8255,-0.7797,-0.6573,-0.7159,-0.8438,-1.0409,0.0,0.0,0.0,0.0,0.0,0.0,0.0,0.0,0.0,0.0,0.0,0.0,0.0,0.0,0.0,0.0,0.0,0.0,0.0,0.0,0.0,0.0,0.0,0.0,0.0,0.0,0.0,0.0,0.0,0.0,0.0,0.0,0.0,0.0,0.0,0.0,0.0,0.0,0.0,-1.5712,-1.6597,0.0,0.0,0.0,0.0,0.0,0.0,0.0,0.0,-1.8676,0.0,0.0,0.0,0.0,0.0,0.0,0.0,0.0,0.0,0.0,0.0,0.0,0.0,0.0,0.0,0.0,0.0,0.0,0.0,0.0,0.0,0.0,0.0,0.0,0.0,0.0,0.0,0.0,0.0,0.0,0.0,0.0,0.0,0.0,0.0,0.0,0.0,0.0,0.0,0.0,0.0,0.0,0.0,0.0,0.0,0.0,0.0,0.0,0.0,0.0,0.0,0.0,0.0,0.0,0.0,-1.1572,-1.0198,-0.8983,-0.8044,-0.8049,-0.7646,-0.6769,-0.7192,-0.8548,0.0,0.0,0.0,0.0,0.0,0.0,0.0,0.0,0.0,0.0,0.0,0.0,0.0,0.0,0.0,0.0,0.0,0.0,0.0,0.0,0.0,0.0,0.0,0.0,0.0,0.0,0.0,0.0,0.0,0.0,0.0,0.0,0.0,0.0,0.0,0.0,0.0,0.0,0.0,0.0,-1.6149,-1.646,-1.5668,0.0,0.0,0.0,0.0,0.0,0.0,-1.9996,-2.0508,0.0,0.0,0.0,0.0,0.0,0.0,0.0,0.0,0.0,0.0,0.0,0.0,0.0,0.0,0.0,0.0,0.0,0.0,0.0,0.0,0.0,0.0,0.0,0.0,0.0,0.0,0.0,0.0,0.0,0.0,0.0,0.0,0.0,0.0,0.0,0.0,0.0,0.0,0.0,0.0,0.0,0.0,0.0,0.0,0.0,0.0,0.0,0.0,0.0,0.0,0.0,0.0,0.0,0.0,0.0,-1.2252,-1.0173,-0.8761,-0.8137,-0.7817,-0.7475,-0.7078,-0.7384,-0.8809,0.0,0.0,0.0,0.0,0.0,0.0,0.0,0.0,0.0,0.0,0.0,0.0,0.0,0.0,0.0,0.0,0.0,0.0,0.0,0.0,0.0,0.0,0.0,0.0,0.0,0.0,0.0,0.0,0.0,0.0,0.0,0.0,0.0,0.0,0.0,0.0,0.0,0.0,0.0,0.0,0.0,-1.6629,-1.5957,-1.6479,0.0,0.0,0.0,0.0,-1.924,-2.1213,0.0,0.0,0.0,0.0,0.0,0.0,0.0,0.0,0.0,0.0,0.0,0.0,0.0,0.0,0.0,0.0,0.0,0.0,0.0,0.0,0.0,0.0,0.0,0.0,0.0,0.0,0.0,0.0,0.0,0.0,0.0,0.0,0.0,0.0,0.0,0.0,0.0,0.0,0.0,0.0,0.0,0.0,0.0,0.0,0.0,0.0,0.0,0.0,0.0,0.0,0.0,0.0,0.0,0.0,0.0,0.0,-1.1817,-1.034,-0.9007,-0.787,-0.7179,-0.685,-0.692,-0.7693,-0.9417,0.0,0.0,0.0,0.0,0.0,0.0,0.0,0.0,0.0,0.0,0.0,0.0,0.0,0.0,0.0,0.0,0.0,0.0,0.0,0.0,0.0,0.0,0.0,0.0,0.0,0.0,0.0,0.0,0.0,0.0,0.0,0.0,0.0,0.0,0.0,0.0,0.0,0.0,0.0,0.0,0.0,-1.9109,-1.7289,-1.7675,-1.8111,0.0,0.0,0.0,-1.9544,-2.1295,0.0,0.0,0.0,0.0,0.0,0.0,0.0,0.0,0.0,0.0,0.0,0.0,0.0,0.0,0.0,0.0,0.0,0.0,0.0,0.0,0.0,0.0,0.0,0.0,0.0,0.0,0.0,0.0,0.0,0.0,0.0,0.0,0.0,0.0,0.0,0.0,0.0,0.0,0.0,0.0,0.0,0.0,0.0,0.0,0.0,0.0,0.0,0.0,0.0,0.0,0.0,0.0,0.0,0.0,0.0,-1.3254,-1.1889,-1.0598,-0.9361,-0.8252,-0.802,-0.7976,-0.8043,-0.8156,-0.9504,0.0,0.0,0.0,0.0,0.0,0.0,0.0,0.0,0.0,0.0,0.0,0.0,0.0,0.0,0.0,0.0,0.0,0.0,0.0,0.0,0.0,0.0,0.0,0.0,0.0,0.0,0.0,0.0,0.0,0.0,0.0,0.0,0.0,0.0,0.0,0.0,0.0,0.0,0.0,0.0,0.0,0.0,-1.7194,-1.814,0.0,0.0,0.0,-1.9614,-2.0335,0.0,0.0,0.0,0.0,0.0,0.0,0.0,0.0,0.0,0.0,0.0,0.0,0.0,0.0,0.0,0.0,0.0,0.0,0.0,0.0,0.0,0.0,0.0,0.0,0.0,0.0,0.0,0.0,0.0,0.0,0.0,0.0,0.0,0.0,0.0,0.0,0.0,0.0,0.0,0.0,0.0,0.0,0.0,0.0,0.0,0.0,0.0,0.0,0.0,0.0,0.0,0.0,0.0,0.0,0.0,0.0,0.0,-1.1895,-1.0585,-0.9519,-0.8688,-0.875,-0.8881,-0.9006,-0.8708,0.0,0.0,0.0,0.0,0.0,0.0,0.0,0.0,0.0,0.0,0.0,0.0,0.0,0.0,0.0,0.0,0.0,0.0,0.0,0.0,0.0,0.0,0.0,0.0,0.0,0.0,0.0,-1.6184,0.0,0.0,0.0,0.0,0.0,0.0,0.0,0.0,0.0,0.0,0.0,0.0,0.0,0.0,-1.9127,-1.7492,-1.8497,-1.9256,0.0,0.0,-1.9656,-2.0662,-2.1088,-2.1439,0.0,0.0,0.0,0.0,0.0,0.0,0.0,0.0,0.0,0.0,0.0,0.0,0.0,0.0,0.0,0.0,0.0,0.0,0.0,0.0,0.0,0.0,0.0,0.0,0.0,0.0,0.0,0.0,0.0,0.0,0.0,0.0,0.0,0.0,0.0,0.0,0.0,0.0,0.0,0.0,0.0,0.0,0.0,0.0,0.0,0.0,0.0,0.0,0.0,0.0,0.0,0.0,0.0,0.0,0.0,-1.1622,-1.0199,-0.9326,-0.9069,-0.8717,-0.8786,-0.9347,-0.9413,-1.0756,0.0,0.0,0.0,0.0,0.0,0.0,0.0,0.0,0.0,0.0,0.0,0.0,0.0,0.0,0.0,0.0,0.0,0.0,0.0,0.0,0.0,0.0,0.0,0.0,0.0,0.0,0.0,0.0,0.0,0.0,0.0,0.0,0.0,0.0,0.0,0.0,0.0,0.0,0.0,0.0,0.0,-2.0413,-1.9045,-1.8945,-1.9262,0.0,0.0,-1.9479,-2.0,-2.1317,-2.1864,-2.0659,0.0,0.0,0.0,0.0,0.0,0.0,0.0,0.0,0.0,0.0,0.0,0.0,0.0,0.0,0.0,0.0,0.0,0.0,0.0,0.0,0.0,0.0,0.0,0.0,0.0,0.0,0.0,0.0,0.0,0.0,0.0,0.0,0.0,0.0,0.0,0.0,0.0,0.0,0.0,0.0,0.0,0.0,0.0,0.0,0.0,0.0,0.0,0.0,0.0,0.0,0.0,0.0,0.0,-1.3441,-1.2217,-1.0664,-0.9779,-0.9541,-0.9587,-0.9673,-0.9752,-0.9668,-1.0696,0.0,0.0,0.0,0.0,0.0,0.0,0.0,0.0,0.0,0.0,0.0,0.0,0.0,0.0,0.0,0.0,0.0,0.0,0.0,0.0,0.0,0.0,0.0,0.0,0.0,0.0,0.0,0.0,-1.6807,-1.8241,-1.9744,0.0,0.0,0.0,0.0,0.0,0.0,0.0,0.0,0.0,0.0,-2.0092,-1.9142,-1.9796,0.0,0.0,-2.0533,-2.1208,-2.1384,-2.1447,-2.1576,-2.1843,-2.2285,0.0,0.0,0.0,0.0,0.0,0.0,0.0,0.0,0.0,0.0,0.0,0.0,0.0,0.0,0.0,0.0,0.0,0.0,0.0,0.0,0.0,0.0,0.0,0.0,0.0,0.0,0.0,0.0,0.0,0.0,0.0,0.0,0.0,0.0,0.0,0.0,0.0,0.0,0.0,0.0,0.0,0.0,0.0,0.0,0.0,0.0,0.0,0.0,0.0,0.0,0.0,0.0,-1.4032,-1.3288,-1.1387,-1.0194,-0.9835,-1.007,-1.0212,-1.0248,-1.011,-1.084,0.0,0.0,0.0,0.0,0.0,0.0,0.0,0.0,0.0,0.0,0.0,0.0,0.0,0.0,0.0,0.0,0.0,0.0,0.0,0.0,0.0,0.0,0.0,0.0,0.0,0.0,0.0,0.0,-1.7394,-1.8998,-2.1042,0.0,0.0,0.0,0.0,0.0,0.0,0.0,0.0,0.0,0.0,-1.9935,-1.9269,-2.0085,-2.059,-2.0134,-2.087,-2.1506,-2.1584,-2.1524,-2.1763,-2.2698,0.0,0.0,0.0,0.0,0.0,0.0,0.0,0.0,0.0,0.0,0.0,0.0,0.0,0.0,0.0,0.0,0.0,0.0,0.0,0.0,0.0,0.0,0.0,0.0,0.0,0.0,0.0,0.0,0.0,0.0,0.0,0.0,0.0,0.0,0.0,0.0,0.0,0.0,0.0,0.0,0.0,0.0,0.0,0.0,0.0,0.0,0.0,0.0,0.0,0.0,0.0,0.0,0.0,0.0,-1.4826,-1.215,-1.0495,-0.9944,-0.9964,-1.03,-1.0743,-1.0777,-1.1388,-1.2692,0.0,0.0,0.0,0.0,0.0,0.0,0.0,0.0,0.0,0.0,0.0,0.0,0.0,0.0,0.0,0.0,0.0,0.0,0.0,0.0,0.0,0.0,0.0,0.0,0.0,0.0,-2.0233,-1.9705,-2.0027,0.0,0.0,0.0,0.0,0.0,0.0,0.0,0.0,0.0,0.0,-2.0339,-2.0164,-1.9564,-1.9536,-1.998,-2.0972,-2.0293,-1.9736,-2.0049,-2.153,-2.2685,0.0,0.0,0.0,0.0,0.0,0.0,0.0,0.0,0.0,0.0,0.0,0.0,0.0,0.0,0.0,0.0,0.0,0.0,0.0,0.0,0.0,0.0,0.0,0.0,0.0,0.0,0.0,0.0,-1.5886,0.0,0.0,0.0,0.0,0.0,0.0,0.0,0.0,0.0,0.0,0.0,-1.6053,-1.6391,0.0,0.0,0.0,0.0,0.0,0.0,0.0,0.0,0.0,0.0,0.0,0.0,-1.4905,-1.4589,-1.2437,-1.097,-1.0395,-1.1389,-1.1572,-1.0834,-1.1747,-1.2552,-1.3232,0.0,0.0,0.0,0.0,0.0,0.0,0.0,0.0,0.0,0.0,0.0,0.0,0.0,0.0,0.0,0.0,0.0,0.0,0.0,0.0,0.0,0.0,0.0,0.0,0.0,-2.0383,0.0,0.0,0.0,0.0,0.0,0.0,0.0,0.0,0.0,0.0,0.0,-2.1082,-2.014,-1.9893,-1.9811,-1.9829,-2.0107,-2.0522,0.0,0.0,0.0,0.0,0.0,0.0,0.0,0.0,0.0,0.0,0.0,0.0,0.0,0.0,-2.5612,-2.5105,-2.5028,-2.4951,-2.4652,0.0,0.0,0.0,0.0,0.0,0.0,0.0,0.0,0.0,0.0,0.0,0.0,0.0,0.0,0.0,0.0,-1.6488,0.0,0.0,0.0,0.0,0.0,0.0,0.0,0.0,-1.6257,-1.6013,-1.5564,-1.5874,-1.6244,0.0,-1.6788,-1.7049,0.0,0.0,0.0,0.0,0.0,0.0,0.0,0.0,-1.4941,-1.4712,-1.2871,-1.1779,-1.1622,-1.2242,-1.2253,-1.1585,-1.2512,-1.3331,-1.3927,-1.4352,-1.5918,0.0,0.0,0.0,0.0,0.0,0.0,0.0,0.0,0.0,0.0,0.0,0.0,0.0,0.0,0.0,0.0,0.0,0.0,0.0,0.0,0.0,0.0,0.0,-2.0427,0.0,0.0,0.0,0.0,0.0,0.0,0.0,0.0,0.0,-2.1899,-2.167,-2.1181,-2.0334,-2.009,-1.999,-2.0001,0.0,0.0,0.0,0.0,0.0,0.0,0.0,-2.2678,-2.2712,-2.2798,-2.306,-2.3606,-2.4158,-2.465,-2.5023,0.0,0.0,-2.5213,-2.5134,-2.4968,-2.4671,-2.4692,-2.4779,-2.4779,-2.4915,-2.5082,0.0,0.0,0.0,0.0,0.0,0.0,0.0,0.0,-1.3958,-1.4287,0.0,-1.5856,0.0,0.0,0.0,0.0,0.0,0.0,0.0,0.0,-1.596,-1.5524,-1.5181,-1.5864,-1.6114,-1.5958,-1.6599,-1.6996,-1.7149,-1.7271,0.0,0.0,0.0,0.0,0.0,0.0,-1.5621,-1.5049,-1.3472,-1.2862,-1.3302,-1.2549,-1.2379,-1.2941,-1.3091,-1.3633,-1.4698,-1.5319,-1.5922,-1.6425,-1.813,0.0,0.0,0.0,0.0,0.0,0.0,0.0,0.0,0.0,0.0,0.0,0.0,0.0,0.0,0.0,0.0,0.0,0.0,0.0,0.0,-1.9177,0.0,0.0,0.0,0.0,0.0,0.0,0.0,0.0,0.0,0.0,-2.1857,-2.1948,-2.1754,-2.09,0.0,0.0,0.0,0.0,-2.1309,-2.1343,-2.2063,-2.2579,-2.248,-2.2552,-2.2623,-2.2657,0.0,0.0,-2.3771,-2.4368,-2.4693,-2.4524,-2.4358,-2.4653,-2.5959,-2.5847,-2.5458,-2.4748,-2.466,-2.4753,-2.487,-2.4961,-2.5056,-1.0883,0.0,0.0,0.0,0.0,-1.3479,-1.3848,-1.3905,-1.4104,-1.4611,-1.5298,-1.5838,0.0,0.0,0.0,0.0,0.0,0.0,-1.611,-1.5316,-1.5167,-1.5043,-1.4988,-1.5197,-1.5479,-1.5895,-1.5971,-1.6206,-1.6528,-1.6214,-1.6441,-1.7144,0.0,0.0,0.0,0.0,-1.5412,-1.4869,-1.4046,-1.3496,-1.3249,-1.3622,-1.4081,-1.4601,-1.4113,-1.387,-1.3941,-1.4278,-1.5029,-1.6248,-1.6499,0.0,0.0,0.0,0.0,0.0,0.0,0.0,0.0,0.0,0.0,0.0,0.0,0.0,0.0,0.0,0.0,0.0,0.0,0.0,-2.0822,-2.0069,-2.0262,0.0,0.0,0.0,0.0,0.0,0.0,0.0,0.0,0.0,-2.1961,-2.1653,-2.1316,0.0,0.0,-2.0422,-2.0857,-2.1147,-2.1496,-2.2068,0.0,0.0,0.0,-2.2515,-2.2525,-2.2446,-2.2756,-2.3003,-2.3035,-2.3715,-2.4172,-2.4036,-2.4229,-2.4572,-2.4954,-2.5007,-2.486,-2.4601,-2.4685,-2.4851,-2.4898,-2.5032,-2.5153,-1.0565,-1.116,-1.1869,-1.2288,-1.2468,-1.3033,-1.3292,-1.3375,-1.3488,-1.4013,-1.4786,-1.529,-1.5801,-1.6392,-1.6744,0.0,0.0,0.0,-1.5748,-1.5441,-1.5008,-1.4977,-1.5252,-1.5252,-1.5594,-1.6203,-1.5854,-1.5904,-1.6366,-1.5878,-1.606,-1.682,0.0,0.0,-1.5981,-1.5957,-1.5655,-1.5011,-1.4675,-1.4327,-1.3946,-1.4415,-1.4811,-1.5072,-1.467,-1.4412,-1.4355,-1.4587,-1.5204,-1.6203,-1.5948,-1.6865,0.0,0.0,0.0,0.0,0.0,0.0,0.0,0.0,0.0,0.0,0.0,-2.1323,0.0,0.0,0.0,0.0,-1.9621,-1.9545,-1.9645,-1.9598,0.0,0.0,0.0,0.0,0.0,0.0,0.0,-2.1903,-2.1986,-2.2015,-2.1945,-2.1737,-2.1535,-2.1407,-2.1211,-2.1224,-2.1657,0.0,-2.2002,-2.2473,-2.2559,-2.2559,-2.2515,-2.2487,-2.2443,-2.2347,-2.2882,-2.3172,-2.302,-2.3631,-2.4097,-2.4051,-2.4192,-2.4392,-2.4532,-2.4615,-2.4629,-2.4594,-2.4731,-2.4861,-2.4926,-2.5088,-2.5195,-1.0377,-1.0758,-1.1822,-1.2433,-1.2792,-1.2751,-1.2771,-1.2771,-1.2503,-1.2925,-1.3939,-1.4428,-1.5215,-1.625,-1.6447,0.0,0.0,-1.5893,-1.5621,-1.6257,-1.531,-1.5223,-1.5875,-1.5875,-1.623,-1.6817,-1.6128,-1.6066,-1.6478,-1.6072,-1.6197,-1.6826,-1.6546,-1.6177,-1.5768,-1.6279,-1.614,-1.5364,-1.5355,-1.5235,-1.5027,-1.4961,-1.4882,-1.4839,-1.5008,-1.5253,-1.5477,-1.5766,-1.6067,-1.6348,-1.613,-1.6509,-1.7646,0.0,0.0,0.0,0.0,0.0,0.0,0.0,0.0,0.0,0.0,0.0,0.0,0.0,0.0,0.0,-1.709,0.0,-1.6498,-1.8566,0.0,0.0,0.0,-2.1869,-2.1827,-2.1827,-2.1811,-2.1811,0.0,0.0,0.0,0.0,-2.2225,-2.2214,-2.2487,-2.2605,-2.2432,-2.248,-2.2579,-2.2579,-2.2647,-2.262,-2.2504,-2.2432,-2.2405,-2.246,-2.3089,-2.3457,-2.3377,-2.3857,-2.4284,-2.4263,-2.421,-2.4229,-2.4482,-2.4647,-2.4723,-2.4738,-2.4794,-2.4861,-2.498,-2.5113,-2.5203,-1.0755,-1.1167,-1.1747,-1.192,-1.184,-1.2023,-1.2396,-1.2791,-1.2868,-1.3313,-1.4036,-1.4688,-1.5612,-1.6667,-1.6931,-1.6766,-1.6266,-1.6297,-1.5982,-1.5428,-1.5543,-1.5917,-1.6552,-1.6667,-1.6824,-1.7088,-1.7013,-1.69,-1.6796,-1.6429,-1.6522,-1.7,-1.7208,-1.7153,-1.6888,-1.7077,-1.665,-1.5543,-1.5745,-1.5652,-1.5281,-1.5655,-1.5576,-1.4966,-1.5717,-1.5946,-1.5536,-1.5387,-1.6105,-1.7712,-1.5454,-1.5183,-1.7568,-1.74,0.0,0.0,0.0,0.0,0.0,0.0,0.0,0.0,0.0,-2.2035,-2.1587,0.0,-2.0831,0.0,-1.9067,-1.8798,-2.0301,-1.998,0.0,0.0,-2.1827,-2.184,-2.1869,-2.1869,-2.1882,-2.1957,-2.1969,-2.2032,-2.2173,-2.2377,-2.2453,-2.2394,-2.2405,-2.246,-2.2487,-2.2497,-2.2542,-2.2569,-2.2507,-2.2479,-2.2473,-2.2411,-2.2432,-2.2573,-2.2877,-2.316,-2.3359,-2.3772,-2.4096,-2.4096,-2.4355,-2.4561,-2.4645,-2.4764,-2.4893,-2.4961,-2.4974,-2.4987,-2.5057,-2.513,-2.5206,-1.082,-1.1074,-1.1669,-1.181,-1.1733,-1.2148,-1.2589,-1.2996,-1.3135,-1.3533,-1.4067,-1.4766,-1.5611,-1.6441,-1.6426,-1.6344,-1.6255,-1.6321,-1.6244,-1.6113,-1.6388,-1.6877,-1.7456,-1.7534,-1.7664,-1.7817,-1.7576,-1.7438,-1.7312,-1.6957,-1.7027,-1.7563,-1.7848,-1.8098,-1.8236,-1.8106,-1.7596,-1.667,-1.6632,-1.6485,-1.6184,-1.6524,-1.6506,-1.603,-1.6716,-1.6918,-1.6561,-1.6485,-1.7178,-1.864,-1.644,-1.5852,-1.7541,-1.7547,-1.6959,0.0,0.0,0.0,0.0,0.0,0.0,0.0,0.0,0.0,0.0,0.0,-2.1063,0.0,-1.9738,0.0,-2.1573,-2.1126,-2.1,-2.1816,-2.1869,-2.1869,-2.1957,-2.194,-2.1969,-2.1998,-2.2044,-2.2123,-2.2247,-2.2349,-2.2443,-2.2349,-2.2377,-2.2405,-2.2487,-2.2487,-2.2515,-2.2542,-2.2507,-2.2446,-2.249,-2.2617,-2.2718,-2.279,-2.2982,-2.3224,-2.354,-2.3798,-2.4019,-2.4154,-2.4478,-2.4734,-2.4818,-2.491,-2.5031,-2.5134,-2.5145,-2.5134,-2.5153,-2.5187,-2.5201,-1.0616,-1.0718,-1.1477,-1.1877,-1.1977,-1.2578,-1.2958,-1.318,-1.3362,-1.3668,-1.4057,-1.48,-1.5424,-1.5964,-1.5738,-1.5973,-1.6629,-1.6245,-1.6507,-1.7271,-1.7446,-1.7842,-1.8344,-1.8383,-1.8475,-1.8626,-1.8152,-1.8042,-1.8194,-1.7768,-1.7851,-1.8458,-1.8643,-1.8924,-1.9362,-1.9064,-1.8607,-1.8027,-1.7554,-1.7282,-1.7166,-1.7359,-1.7359,-1.719,-1.7694,-1.7919,-1.7809,-1.7974,-1.8437,-1.9194,-1.7869,-1.7361,-1.7915,-1.8266,-1.9553,0.0,-2.228,0.0,0.0,0.0,0.0,0.0,0.0,0.0,0.0,-2.1831,-2.1035,-2.0595,-1.9903,-2.0094,-2.1592,-2.1899,-2.1998,-2.1998,-2.194,-2.194,-2.2015,-2.2027,-2.2044,-2.2027,-2.2152,-2.2197,-2.2197,-2.2254,-2.2327,-2.2338,-2.2377,-2.2432,-2.2515,-2.2515,-2.247,-2.2487,-2.2483,-2.253,-2.2829,-2.3057,-2.3163,-2.307,-2.3248,-2.3544,-2.3837,-2.3979,-2.4135,-2.4357,-2.458,-2.4775,-2.4956,-2.5041,-2.516,-2.5253,-2.5283,-2.5292,-2.5252,-2.5203,-2.5243,-1.0154,-1.0506,-1.1167,-1.1628,-1.1927,-1.2382,-1.2725,-1.2968,-1.3382,-1.38,-1.4176,-1.4834,-1.5367,-1.5832,-1.6194,-1.6323,-1.6411,-1.6778,-1.6989,-1.7076,-1.7557,-1.8042,-1.8553,-1.8774,-1.8889,-1.9011,-1.9059,-1.9388,-1.9936,-1.9561,-1.9596,-2.0039,-1.9882,-1.9662,0.0,0.0,0.0,0.0,-1.7436,-1.6996,-1.6976,-1.7448,-1.7483,-1.7015,-1.7988,0.0,-1.7824,-1.7532,-1.7992,-1.9148,-1.7438,0.0,0.0,0.0,0.0,0.0,0.0,0.0,0.0,0.0,0.0,0.0,-2.2132,-2.2055,-2.2008,-2.1258,-2.0854,-2.091,-2.1017,-2.1302,-2.1878,-2.1969,-2.1998,-2.1998,-2.1982,-2.2015,-2.2152,-2.2168,-2.218,-2.2237,-2.2265,-2.2282,-2.2316,-2.2338,-2.2394,-2.2483,-2.246,-2.2515,-2.2552,-2.2487,-2.2432,-2.2504,-2.253,-2.2881,-2.4018,-2.3749,-2.3482,-2.3529,-2.3628,-2.3858,-2.4152,-2.4247,-2.4339,-2.4519,-2.4689,-2.4842,-2.4853,-2.5065,-2.5264,-2.5303,-2.5341,-2.538,-2.5361,-2.5313,-2.5293,-0.994,0.0,-1.1006,-1.1477,0.0,-1.2323,-1.2822,-1.3142,-1.3372,-1.3836,-1.449,-1.5085,-1.5546,-1.5957,-1.6578,-1.6999,-1.7234,-1.809,-1.8596,-1.8795,-1.9013,-1.9387,-1.9962,-1.9459,-1.9388,-1.9765,-1.9598,-1.969,-2.003,-1.9874,-1.9945,-2.027,-1.9975,-1.9762,-1.9603,-1.9413,-1.9096,-1.8651,-1.8173,-1.787,-1.7738,-1.8339,-1.847,-1.8185,0.0,0.0,0.0,0.0,0.0,0.0,0.0,0.0,0.0,0.0,0.0,-2.2019,-2.2255,-2.2417,-2.2588,-2.2389,-2.2269,-2.2202,-2.2037,-2.1807,-2.143,-2.114,-2.0886,-2.0595,-2.1071,-2.1493,-2.1628,-2.1899,-2.2135,-2.2163,-2.2118,-2.2135,-2.2225,-2.2271,-2.2271,-2.2333,-2.2632,-2.2835,-2.2835,-2.288,-2.2892,-2.2932,-2.2654,-2.2477,-2.2487,-2.246,-2.2624,-2.3192,-2.3727,-2.4202,-2.489,-2.4698,-2.4229,-2.4185,-2.4091,-2.4298,-2.4838,-2.4652,-2.4592,-2.4998,-2.5047,-2.4923,-2.4854,-2.5102,-2.5351,-2.5351,-2.536,-2.5397,-2.5387,-2.5369,-2.5379,-1.0157,-1.0389,-1.1183,-1.1659,-1.1966,-1.2702,-1.3389,-1.401,0.0,0.0,0.0,-1.5539,-1.5945,-1.6259,-1.716,-1.7785,-1.8222,-1.9339,-2.0047,-2.0455,-2.0465,-2.0808,-2.1366,-2.0306,-2.0108,-2.0682,-2.0206,-1.9952,-1.9963,-1.9963,-1.9954,-2.0005,-1.9777,-1.9654,-1.9624,-1.9302,-1.9017,-1.8879,-1.8841,-1.8711,-1.8478,-1.9049,-1.9369,-1.9332,-2.001,-2.0339,-2.0304,-2.0354,-2.0339,-2.0339,-2.0339,-2.0586,-2.1111,-2.1104,-2.1559,-2.2623,-2.2586,-2.2637,-2.2948,-2.2865,-2.2738,-2.2496,-2.211,-2.1647,-2.1103,-2.1198,-2.0996,-2.0285,-2.091,-2.1401,-2.1401,-2.1903,-2.2293,-2.2451,-2.2338,-2.231,-2.262,-2.2547,-2.2535,-2.262,-2.3177,-2.3545,-2.3456,-2.3435,-2.3354,-2.3214,-2.2926,-2.275,-2.2818,-2.2873,-2.3192,-2.4259,-2.4959,-2.56,-2.583,-2.5702,-2.5368,-2.5072,-2.4897,-2.4949,-2.5338,-2.515,-2.5072,-2.5593,-2.5355,-2.5012,-2.4892,-2.5135,-2.5378,-2.5434,-2.555,-2.5578,-2.5451,-2.5548,-2.5616,-1.1166,-1.1573,-1.2132,-1.2773,-1.3537,-1.3983,-1.5001,-1.6293,-1.5208,-1.4903,-1.5289,-1.6272,-1.6785,-1.6921,-1.828,-1.8715,-1.8422,-1.9537,-1.9993,0.0,-2.0407,-2.0968,-2.1465,-2.1287,-2.1337,-2.1491,-2.1455,-2.125,-2.1002,-2.092,-2.066,-2.0142,-1.9929,-1.9609,-1.9153,-1.9325,-1.9049,-1.8321,-1.8307,-1.8268,-1.8242,-1.8683,-1.8974,-1.9176,-1.9797,-2.022,-2.0388,-2.0457,-2.046,-2.046,-2.0444,-2.0506,-2.0634,-2.1631,-2.2198,-2.2104,-2.2798,-2.3252,-2.3248,-2.2981,-2.2932,-2.3162,-2.2699,-2.2011,-2.1327,-2.1286,-2.1135,-2.0761,-2.1356,-2.1721,-2.1751,-2.2116,-2.2603,-2.3105,-2.2699,-2.2801,-2.3947,-2.3596,-2.3342,-2.3557,-2.4039,-2.4215,-2.3905,-2.3726,-2.3465,-2.2965,-2.3339,-2.3818,-2.4265,-2.3979,-2.4207,-2.5317,-2.5674,-2.5993,-2.6531,-2.6694,-2.6531,-2.642,-2.6366,-2.6134,-2.5913,-2.5744,-2.5722,-2.5814,-2.5525,-2.5126,-2.5025,-2.5201,-2.5418,-2.553,-2.5944,-2.6213,-2.5595,-2.5912,-2.621,-1.2189,-1.2526,-1.329,-1.3916,-1.4485,-1.5598,-1.6787,-1.7875,-1.7584,-1.7338,-1.7297,-1.7938,-1.8479,-1.8936,-1.9795,-2.0318,-2.05,-2.1282,-2.1715,-2.1806,-2.1818,-2.2079,-2.2554,-2.1943,-2.1834,-2.2188,-2.1779,-2.1515,-2.137,-2.1432,-2.1174,-2.0645,-2.0303,-1.9859,-1.9325,-1.931,-1.9072,-1.8528,-1.8425,-1.8307,-1.8202,-1.8745,-1.9124,-1.931,-2.033,-2.0949,-2.1035,-2.1428,-2.1479,-2.1105,-2.1089,-2.1089,-2.1105,-2.1469,-2.1745,-2.1895,-2.2322,-2.2471,-2.2216,-2.2069,-2.2231,-2.2783,-2.2409,-2.21,-2.1979,-2.1907,-2.1827,-2.1713,-2.2113,-2.2573,-2.2938,-2.3298,-2.363,-2.3981,-2.3693,-2.3808,-2.4381,-2.436,-2.4207,-2.4364,-2.4887,-2.5156,-2.4948,-2.4906,-2.4752,-2.4423,-2.4494,-2.4723,-2.5471,-2.5286,-2.5222,-2.5924,-2.613,-2.6533,-2.7197,-2.7261,-2.7164,-2.7193,-2.6999,-2.6952,-2.6898,-2.6804,-2.6727,-2.708,-2.6714,-2.5991,-2.5367,-2.5611,-2.5784,-2.5595,-2.6144,-2.6288,-2.5785,-2.5812,-2.5859,-1.3626,-1.3858,-1.4877,-1.559,-1.6233,-1.7776,-1.8858,-1.96,-2.0079,-2.0093,-1.9854,-1.9849,-2.018,-2.0656,-2.1308,-2.183,-2.2276,-2.2864,-2.3201,-2.3355,-2.3041,-2.3146,-2.3475,-2.2547,-2.2398,-2.2787,-2.2271,-2.1917,-2.1798,-2.1929,-2.178,-2.1279,-2.0844,-2.0349,-1.9775,-1.9516,-1.9169,-1.886,-1.8825,-1.8714,-1.8516,-1.9267,-1.9796,-2.0042,-2.1209,-2.1862,-2.1894,-2.2379,-2.241,-2.1945,-2.1898,-2.1914,-2.1878,-2.1655,-2.1646,-2.1965,-2.2259,-2.2322,-2.2123,-2.1897,-2.2209,-2.3095,-2.2798,-2.2759,-2.319,-2.3045,-2.2752,-2.2541,-2.2942,-2.3527,-2.3929,-2.4301,-2.4605,-2.474,-2.47,-2.4781,-2.5088,-2.5081,-2.5159,-2.533,-2.5794,-2.6085,-2.5931,-2.5928,-2.5826,-2.575,-2.5549,-2.5633,-2.6251,-2.6502,-2.6556,-2.6586,-2.6713,-2.7088,-2.7794,-2.7839,-2.7802,-2.7926,-2.774,-2.7752,-2.7979,-2.7698,-2.7641,-2.807,-2.7756,-2.7205,-2.6346,-2.6213,-2.6391,-2.6232,-2.6749,-2.6837,-2.6381,-2.6246,-2.603,-1.5862,-1.6266,-1.7185,-1.8449,-1.9781,-2.0738,-2.142,-2.1953,-2.2314,-2.2613,-2.2585,-2.1785,-2.1352,-2.1525,-2.2513,-2.276,-2.2448,-2.3268,-2.3438,-2.3002,-2.3323,-2.3535,-2.3595,-2.3445,-2.3445,-2.3475,-2.3385,-2.3056,-2.2634,-2.2656,-2.2445,-2.1934,-2.1522,-2.1111,-2.0632,-2.0186,-1.9617,-1.8921,-1.9483,-1.9601,-1.9428,-2.0629,-2.1282,-2.1322,-2.2223,-2.2671,-2.2692,-2.2812,-2.2848,-2.2785,-2.2785,-2.2785,-2.2769,-2.2955,-2.2822,-2.2293,-2.3308,-2.4135,-2.4343,-2.3811,-2.3969,-2.5309,-2.4764,-2.4675,-2.536,-2.4853,-2.3914,-2.3187,-2.3771,-2.4377,-2.4303,-2.4543,-2.5019,-2.5627,-2.5265,-2.5282,-2.6358,-2.6187,-2.6034,-2.6734,-2.6719,-2.6601,-2.6133,-2.6045,-2.6042,-2.623,-2.6394,-2.6654,-2.728,-2.7657,-2.7834,-2.7806,-2.7607,-2.7664,-2.8319,-2.8603,-2.865,-2.8966,-2.9128,-2.8892,-2.8577,-2.8409,-2.8371,-2.8463,-2.8058,-2.7911,-2.8286,-2.7992,-2.69,-2.74,-2.7686,-2.7793,-2.7763,-2.7636,-2.7381,-1.8213,-1.8524,-1.9271,-2.0289,-2.1389,-2.2055,-2.2593,-2.3069,-2.3348,-2.3651,-2.3948,-2.3465,-2.3206,-2.3093,-2.349,-2.3546,-2.3435,-2.3676,-2.3704,-2.3504,-2.3591,-2.3638,-2.3696,-2.3595,-2.3595,-2.3595,-2.3566,-2.3533,-2.35,-2.3391,-2.3313,-2.3215,-2.2624,-2.2186,-2.192,-2.1761,-2.1351,-2.0804,-2.1391,-2.1664,-2.1554,-2.1744,-2.2034,-2.2474,-2.3317,-2.3791,-2.3839,-2.4116,-2.4185,-2.3859,-2.3628,-2.3343,-2.3092,-2.3253,-2.3298,-2.3193,-2.4026,-2.4414,-2.4103,-2.4206,-2.4564,-2.5145,-2.4983,-2.515,-2.587,-2.5678,-2.5261,-2.4856,-2.5122,-2.5493,-2.5807,-2.5956,-2.6173,-2.6444,-2.6319,-2.6402,-2.6935,-2.6879,-2.6877,-2.7152,-2.7154,-2.7068,-2.684,-2.6891,-2.6996,-2.7051,-2.7296,-2.7617,-2.7974,-2.812,-2.8316,-2.8492,-2.8207,-2.8178,-2.868,-2.8956,-2.9151,-2.9373,-2.9491,-2.9344,-2.9195,-2.9158,-2.9176,-2.9157,-2.8852,-2.8903,-2.9617,-2.8945,-2.8053,-2.8435,-2.8208,-2.8131,-2.8644,-2.8343,-2.805,-2.0165,-2.0388,-2.1192,-2.2002,-2.2772,-2.3157,-2.3492,-2.3852,-2.4063,-2.4328,-2.4589,-2.4564,-2.4565,-2.4522,-2.4242,-2.4242,-2.4438,-2.4101,-2.4031,-2.4225,-2.4025,-2.3981,-2.4025,-2.4132,-2.4148,-2.4148,-2.4282,-2.4465,-2.4642,-2.4531,-2.4481,-2.4452,-2.3754,-2.3294,-2.3226,-2.3063,-2.2718,-2.2362,-2.2784,-2.3161,-2.3336,-2.3088,-2.3139,-2.3665,-2.4406,-2.4827,-2.479,-2.5196,-2.5191,-2.4822,-2.4532,-2.4196,-2.3831,-2.3942,-2.417,-2.4464,-2.4585,-2.4718,-2.4589,-2.4979,-2.5236,-2.5407,-2.5335,-2.5554,-2.6151,-2.6216,-2.623,-2.6371,-2.6344,-2.6539,-2.6952,-2.704,-2.704,-2.7072,-2.7137,-2.7135,-2.7166,-2.725,-2.7282,-2.7282,-2.725,-2.7296,-2.7373,-2.7577,-2.7759,-2.7787,-2.8057,-2.829,-2.835,-2.8453,-2.8652,-2.8952,-2.8776,-2.878,-2.9027,-2.9267,-2.945,-2.9491,-2.9569,-2.9588,-2.9607,-2.9664,-2.9701,-2.9457,-2.9663,-2.9713,-2.9734,-2.9251,-2.8798,-2.8835,-2.8743,-2.8685,-2.9033,-2.8791,-2.8904,-2.1431,-2.1655,-2.2906,-2.3797,-2.4416,-2.4513,-2.4539,-2.4663,-2.4764,-2.4733,-2.4739,-2.482,-2.5051,-2.5369,-2.4744,-2.4687,-2.509,-2.4575,-2.4508,-2.4952,-2.4821,-2.4687,-2.4627,-2.5211,-2.548,-2.5392,-2.5727,-2.6013,-2.6134,-2.6134,-2.5972,-2.5503,-2.477,-2.4398,-2.4297,-2.3654,-2.3112,-2.3195,-2.3266,-2.3608,-2.4402,-2.4729,-2.483,-2.5,-2.5373,-2.5545,-2.5524,-2.5572,-2.5589,-2.5556,-2.547,-2.5422,-2.5287,-2.5373,-2.5668,-2.6013,-2.519,-2.532,-2.6582,-2.6385,-2.6316,-2.6851,-2.6385,-2.6385,-2.6957,-2.6575,-2.6523,-2.7144,-2.7144,-2.7181,-2.7233,-2.7169,-2.7152,-2.725,-2.7299,-2.7299,-2.7299,-2.7313,-2.7299,-2.7313,-2.7261,-2.7321,-2.7565,-2.7869,-2.8102,-2.8228,-2.8456,-2.8658,-2.8761,-2.9016,-2.9265,-2.9272,-2.9316,-2.9454,-2.9491,-2.9527,-2.9586,-2.9625,-2.9607,-2.9607,-2.9645,-2.9701,-2.9701,-2.9719,-2.9792,-2.9748,-2.9639,-2.9391,-2.9069,-2.9154,-2.966,-2.9778,-2.9573,-3.0076,-3.0105,-2.3024,-2.3334,-2.4478,-2.5033,-2.5222,-2.5869,-2.6141,-2.6099,-2.6215,-2.6257,-2.6199,-2.6141,-2.6213,-2.6243,-2.5877,-2.5821,-2.5949,-2.5557,-2.5499,-2.5712,-2.5455,-2.5317,-2.5393,-2.5571,-2.56,-2.5661,-2.5786,-2.6195,-2.6735,-2.6744,-2.6655,-2.639,-2.5668,-2.531,-2.533,-2.519,-2.4971,-2.479,-2.4794,-2.5003,-2.5314,-2.5447,-2.5668,-2.599,-2.601,-2.601,-2.6007,-2.5844,-2.5844,-2.597,-2.5717,-2.5626,-2.5721,-2.5868,-2.6033,-2.6333,-2.6249,-2.6296,-2.6567,-2.6853,-2.6866,-2.6615,-2.6826,-2.6985,-2.7195,-2.704,-2.7006,-2.723,-2.7299,-2.7299,-2.7282,-2.7233,-2.7233,-2.7299,-2.7299,-2.7299,-2.7345,-2.7452,-2.7504,-2.7382,-2.742,-2.767,-2.7946,-2.8281,-2.8489,-2.8572,-2.885,-2.9048,-2.9233,-2.9699,-3.0008,-2.9602,-2.9491,-2.9531,-2.9608,-2.9644,-2.9701,-2.9683,-2.9683,-2.9683,-2.9701,-2.9701,-2.9701,-2.9701,-2.9792,-2.9841,-2.9718,-2.9753,-2.9436,-2.9666,-3.0194,-3.0163,-3.0123,-3.0366,-3.0395,-2.4258,-2.4694,-2.5621,-2.5987,-2.6049,-2.6749,-2.7056,-2.6997,-2.7056,-2.7115,-2.7056,-2.6938,-2.6961,-2.7001,-2.6882,-2.7087,-2.7257,-2.6719,-2.6504,-2.6732,-2.6497,-2.6497,-2.6623,-2.6434,-2.6514,-2.6826,-2.6995,-2.7381,-2.7814,-2.784,-2.763,-2.7172,-2.657,-2.6224,-2.6165,-2.6222,-2.617,-2.5957,-2.5852,-2.5852,-2.6013,-2.5924,-2.6066,-2.6434,-2.6468,-2.6347,-2.6222,-2.6079,-2.6043,-2.6132,-2.5934,-2.586,-2.6007,-2.6154,-2.6314,-2.6539,-2.6873,-2.6974,-2.6744,-2.717,-2.7239,-2.6692,-2.7078,-2.7376,-2.733,-2.7299,-2.7299,-2.7316,-2.7558,-2.7609,-2.7454,-2.7713,-2.7799,-2.7437,-2.7299,-2.7345,-2.7421,-2.7582,-2.766,-2.7699,-2.7914,-2.8156,-2.8358,-2.8658,-2.8973,-2.9255,-2.9385,-2.9418,-3.0118,-3.0385,-3.0613,-3.0056,-2.9756,-2.9663,-2.9664,-2.9683,-2.9683,-2.9702,-2.9683,-2.9701,-2.9701,-2.9701,-2.9701,-2.972,-2.9756,-2.9808,-2.9891,-2.9981,-3.0061,-3.019,-3.0263,-3.024,-3.0325,-3.0492,-3.0453,-2.5175,-2.5515,-2.6336,-2.6792,-2.6926,-2.7154,-2.7194,-2.7273,-2.7257,-2.7383,-2.751,-2.7142,-2.7541,-2.7795,-2.7937,-2.8293,-2.9005,-2.8073,-2.7682,-2.8039,-2.8008,-2.8094,-2.8354,-2.7923,-2.8199,-2.9019,-2.9653,-2.9756,-2.9586,-2.937,-2.8798,-2.7858,-2.7537,-2.7102,-2.6535,-2.6535,-2.6468,-2.6314,-2.6049,-2.6085,-2.6401,-2.6191,-2.6243,-2.6572,-2.6589,-2.6486,-2.6347,-2.6222,-2.622,-2.6203,-2.622,-2.622,-2.6203,-2.6345,-2.6572,-2.6758,-2.6989,-2.7213,-2.7413,-2.7491,-2.7496,-2.7365,-2.7438,-2.7393,-2.7397,-2.7348,-2.733,-2.74,-2.79,-2.8125,-2.7762,-2.8556,-2.8815,-2.7609,-2.7451,-2.7591,-2.7717,-2.7748,-2.7858,-2.8166,-2.8471,-2.8682,-2.8803,-2.9113,-2.9625,-3.0194,-2.9962,-2.9951,-3.1022,-3.1027,-3.0824,-3.0581,-3.0356,-3.0245,-2.9945,-2.9701,-2.9701,-2.9701,-2.9701,-2.9701,-2.9701,-2.9701,-2.9701,-2.9701,-2.9399,-2.9468,-2.9765,-2.9845,-2.9943,-3.0037,-3.0164,-3.0337,-3.0422,-3.0492,-3.0492,-2.5877,-2.6236,-2.702,-2.748,-2.7693,-2.8239,-2.846,-2.8505,-2.8489,-2.8758,-2.9153,-2.9216,-2.9626,-3.0196,-3.0339,-3.0593,-3.1118,-3.0545,-3.0016,-2.9557,-2.9258,-2.9208,-2.9277,-2.9046,-2.9104,-2.9406,-2.9865,-3.0041,-3.0013,-2.9842,-2.9482,-2.9013,-2.8115,-2.7545,-2.7207,-2.6859,-2.6607,-2.6521,-2.6469,-2.6505,-2.6624,-2.6539,-2.6556,-2.664,-2.664,-2.6589,-2.6503,-2.645,-2.6364,-2.6277,-2.6277,-2.6258,-2.6203,-2.6256,-2.6417,-2.6725,-2.6923,-2.7166,-2.7465,-2.7569,-2.7617,-2.7561,-2.75,-2.7469,-2.7459,-2.7445,-2.7428,-2.7508,-2.8146,-2.8476,-2.8494,-2.9101,-2.9242,-2.8194,-2.8279,-2.843,-2.8553,-2.8433,-2.846,-2.8808,-2.898,-2.9292,-2.9843,-3.016,-3.0519,-3.1278,-3.0837,-3.0671,-3.101,-3.1125,-3.0602,-3.0152,-3.0434,-3.0678,-3.0039,-2.9683,-2.9701,-2.9701,-2.9701,-2.9701,-2.9701,-2.9701,-2.9701,-2.9607,-2.9323,-2.917,-2.9468,-2.972,-2.9817,-3.0066,-3.0318,-3.0406,-3.0413,-3.0414,-3.0395,-2.6857,-2.7425,-2.8202,-2.8795,-2.9171,-2.969,-2.9864,-2.9848,-2.9848,-3.0164,-3.056,-3.072,-3.107,-3.1566,-3.1726,-3.2013,-3.2302,-3.195,-3.1709,-3.1381,-3.038,-3.0291,-3.0544,-3.0226,-2.9935,-2.9848,-3.0208,-3.0435,-3.0502,-3.0323,-3.0146,-2.9732,-2.8747,-2.7988,-2.7666,-2.7029,-2.6674,-2.6657,-2.6674,-2.6708,-2.6708,-2.6708,-2.6708,-2.6691,-2.664,-2.6623,-2.6623,-2.6606,-2.6486,-2.633,-2.6277,-2.6258,-2.6203,-2.6132,-2.6293,-2.6657,-2.6808,-2.7004,-2.7448,-2.76,-2.7817,-2.8002,-2.801,-2.7997,-2.8021,-2.8094,-2.8178,-2.7687,-2.8876,-2.946,-2.9127,-3.0237,-3.0483,-2.9822,-2.9532,-2.9568,-2.9658,-2.9748,-2.9853,-3.0165,-3.025,-3.0538,-3.0937,-3.1145,-3.1504,-3.2131,-3.1517,-3.1238,-3.1352,-3.1278,-3.0677,-3.049,-3.1148,-3.0866,-2.9908,-2.9702,-2.9683,-2.9683,-2.9702,-2.9701,-2.9701,-2.9701,-2.9701,-2.9664,-2.9456,-2.8707,-2.8874,-2.9466,-2.9751,-3.01,-3.0482,-3.0507,-3.0501,-3.0337,-3.0308,-2.8093,-2.8982,-2.972,-3.0366,-3.0968,-3.1081,-3.1049,-3.1144,-3.1162,-3.1227,-3.142,-3.1742,-3.195,-3.1982,-3.2392,-3.27,-3.2869,-3.2154,-3.2544,-3.2757,-3.1804,-3.1167,-3.1896,-3.1441,-3.089,-3.0518,-3.0881,-3.1099,-3.1055,-3.0931,-3.0718,-3.0171,-2.9428,-2.867,-2.7975,-2.7165,-2.6793,-2.6725,-2.6708,-2.6708,-2.6708,-2.6708,-2.6708,-2.6708,-2.6708,-2.6708,-2.6691,-2.6674,-2.6538,-2.633,-2.6258,-2.6203,-2.6132,-2.6007,-2.6154,-2.6725,-2.6624,-2.6954,-2.7417,-2.7774,-2.8067,-2.8662,-2.8819,-2.8876,-2.8903,-2.9263,-2.9103,-2.8106,-2.9894,-3.0787,-3.0184,-3.1369,-3.2343,-3.2007,-3.1088,-3.0808,-3.1236,-3.1431,-3.1426,-3.1626,-3.1856,-3.1952,-3.1976,-3.2072,-3.2486,-3.2828,-3.2062,-3.1877,-3.231,-3.1991,-3.1128,-3.111,-3.1336,-3.0791,-2.9758,-2.9702,-2.9701,-2.9701,-2.9702,-2.9739,-2.972,-2.972,-2.9701,-2.9664,-2.9439,-2.8671,-2.8535,-2.9251,-2.9865,-3.0337,-3.0556,-3.0598,-3.0482,-3.0288,-3.0248,-2.989,-3.0326,-3.0597,-3.0935,-3.1158,-3.1207,-3.1223,-3.1272,-3.1662,-3.2128,-3.2515,-3.293,-3.3491,-3.4107,-3.3594,-3.3793,-3.3736,-3.2438,-3.2451,-3.3343,-3.2126,-3.1805,-3.232,-3.2181,-3.1641,-3.119,-3.1601,-3.1698,-3.1224,-3.1151,-3.1033,-3.0903,-3.0125,-2.9397,-2.867,-2.7892,-2.7232,-2.6776,-2.6708,-2.6708,-2.6725,-2.6708,-2.6708,-2.6708,-2.6708,-2.6708,-2.6708,-2.6589,-2.6537,-2.6434,-2.6274,-2.6132,-2.6007,-2.597,-2.617,-2.6589,-2.6708,-2.694,-2.7587,-2.8237,-2.8658,-2.8921,-2.946,-2.9662,-2.9767,-3.0074,-2.9761,-2.9361,-3.0749,-3.1867,-3.1653,-3.2524,-3.3193,-3.335,-3.251,-3.1905,-3.1895,-3.1853,-3.1936,-3.1976,-3.2032,-3.2353,-3.2788,-3.3016,-3.328,-3.3698,-3.3004,-3.2066,-3.2743,-3.2198,-3.109,-3.0695,-3.0658,-3.0227,-2.9814,-2.972,-2.9701,-2.9701,-2.9739,-2.9814,-2.9795,-2.9758,-2.972,-2.9683,-2.9345,-2.8726,-2.89,-2.9383,-2.995,-3.0522,-3.0574,-3.0588,-3.0394,-3.0201,-3.0227,-3.0794,-3.1228,-3.1448,-3.1773,-3.2076,-3.2328,-3.2428,-3.2512,-3.2902,-3.3273,-3.3712,-3.411,-3.4592,-3.5048,-3.4318,-3.4184,-3.4347,-3.2536,-3.258,-3.3757,-3.3222,-3.2908,-3.2899,-3.2788,-3.2381,-3.1811,-3.211,-3.1833,-3.1309,-3.119,-3.119,-3.1038,-3.048,-2.9888,-2.9414,-2.8349,-2.7807,-2.7554,-2.7114,-2.6826,-2.7131,-2.6843,-2.6708,-2.6708,-2.6725,-2.6826,-2.7129,-2.7023,-2.6733,-2.6447,-2.6222,-2.6079,-2.6082,-2.601,-2.6341,-2.7114,-2.7301,-2.7653,-2.8485,-2.9158,-2.9589,-3.0004,-3.0508,-3.0774,-3.0995,-3.1315,-3.1319,-3.0458,-3.192,-3.2592,-3.2653,-3.3283,-3.3887,-3.411,-3.3709,-3.325,-3.3047,-3.3103,-3.3088,-3.3072,-3.3109,-3.3243,-3.3789,-3.3827,-3.4092,-3.4207,-3.3494,-3.3137,-3.3156,-3.2086,-3.1297,-3.1034,-3.0527,-3.0152,-3.0171,-3.019,-3.0641,-3.0584,-3.0771,-3.0658,-3.0151,-3.0095,-3.0019,-2.9887,-2.9362,-2.9115,-2.9387,-2.9674,-3.0075,-3.0483,-3.0559,-3.0565,-3.0427,-3.0312,-3.03,-3.1353,-3.193,-3.2273,-3.2792,-3.3355,-3.3848,-3.3905,-3.4119,-3.4365,-3.4574,-3.4703,-3.5052,-3.5174,-3.5131,-3.4516,-3.4225,-3.4307,-3.265,-3.3038,-3.3883,-3.4182,-3.4083,-3.3795,-3.3575,-3.3143,-3.2551,-3.2432,-3.2019,-3.1546,-3.1309,-3.119,-3.1072,-3.0548,-3.0209,-2.9837,-2.8789,-2.8448,-2.8397,-2.7689,-2.7571,-2.7791,-2.7402,-2.7063,-2.7232,-2.7181,-2.7483,-2.7847,-2.7754,-2.7297,-2.6649,-2.633,-2.6432,-2.6564,-2.6286,-2.7006,-2.8066,-2.8356,-2.8746,-2.9715,-3.011,-3.0641,-3.1262,-3.1781,-3.2112,-3.2238,-3.2773,-3.2776,-3.1722,-3.3117,-3.3543,-3.3393,-3.3925,-3.4401,-3.4588,-3.4508,-3.4498,-3.4539,-3.4517,-3.4539,-3.4583,-3.4567,-3.4626,-3.4623,-3.4604,-3.4626,-3.4433,-3.3813,-3.355,-3.3441,-3.2918,-3.2202,-3.1713,-3.1054,-3.0284,-3.0471,-3.0678,-3.1374,-3.1808,-3.22,-3.2067,-3.1012,-3.0748,-3.0538,-3.0273,-2.9895,-2.9766,-2.9894,-3.0177,-3.0389,-3.0501,-3.063,-3.0658,-3.0639,-3.0569,-3.0531,-3.24,-3.2663,-3.2861,-3.3308,-3.3882,-3.3949,-3.4184,-3.4545,-3.4927,-3.5068,-3.5178,-3.547,-3.5622,-3.5588,-3.4817,-3.4341,-3.3946,-3.31,-3.3184,-3.3851,-3.4341,-3.481,-3.4844,-3.4539,-3.3905,-3.3405,-3.3211,-3.2747,-3.2104,-3.1512,-3.119,-3.114,-3.097,-3.0683,-3.0108,-2.9736,-2.9087,-2.8578,-2.8381,-2.8691,-2.8863,-2.8164,-2.7824,-2.8281,-2.8294,-2.8501,-2.8791,-2.8548,-2.8269,-2.8246,-2.8142,-2.7851,-2.7364,-2.7724,-2.8454,-2.8991,-2.9297,-2.9615,-3.0233,-3.0982,-3.1523,-3.193,-3.2564,-3.3002,-3.3203,-3.3587,-3.3769,-3.3543,-3.4093,-3.4367,-3.4327,-3.4517,-3.4732,-3.4812,-3.4711,-3.4626,-3.4751,-3.4668,-3.4583,-3.4623,-3.471,-3.4791,-3.4645,-3.4751,-3.4693,-3.4513,-3.4229,-3.3832,-3.3708,-3.36,-3.3148,-3.258,-3.2368,-3.1707,-3.1143,-3.1629,-3.2604,-3.3048,-3.3391,-3.3508,-3.2436,-3.1599,-3.1476,-3.1044,-3.051,-3.0428,-3.024,-3.0347,-3.0474,-3.0587,-3.0658,-3.065,-3.0654,-3.0667,-3.0762,-3.2834,-3.3245,-3.3346,-3.3745,-3.4317,-3.4464,-3.4658,-3.4927,-3.5316,-3.547,-3.5515,-3.5728,-3.5817,-3.5705,-3.4905,-3.4341,-3.4229,-3.3943,-3.3927,-3.4364,-3.481,-3.5294,-3.5559,-3.5304,-3.4745,-3.41,-3.3956,-3.3355,-3.2425,-3.1918,-3.1546,-3.1207,-3.1224,-3.1004,-3.0581,-3.0311,-2.9968,-2.9627,-2.9141,-2.9265,-2.959,-2.8926,-2.8431,-2.88,-2.8861,-2.8946,-2.9332,-2.9293,-2.9257,-2.9424,-2.985,-2.9598,-2.8537,-2.885,-2.9489,-3.0193,-3.0495,-3.09,-3.1511,-3.2109,-3.26,-3.2728,-3.3405,-3.3755,-3.4025,-3.426,-3.4416,-3.4505,-3.4612,-3.4791,-3.4908,-3.483,-3.4869,-3.487,-3.4751,-3.4687,-3.4728,-3.4687,-3.4602,-3.4623,-3.4668,-3.4751,-3.4771,-3.4962,-3.4868,-3.4749,-3.4695,-3.4374,-3.4433,-3.432,-3.403,-3.3663,-3.371,-3.3233,-3.2257,-3.2641,-3.3969,-3.4321,-3.4472,-3.4505,-3.4015,-3.3218,-3.2525,-3.1833,-3.1097,-3.0482,-3.0341,-3.0447,-3.0501,-3.0505,-3.0526,-3.0585,-3.0579,-3.0512,-3.0711,-3.3018,-3.3598,-3.3729,-3.4134,-3.469,-3.5038,-3.5178,-3.5316,-3.5622,-3.5711,-3.5773,-3.5773,-3.5817,-3.562,-3.504,-3.4822,-3.4934,-3.4738,-3.4652,-3.5018,-3.5426,-3.5681,-3.5783,-3.5637,-3.5237,-3.4556,-3.4404,-3.3694,-3.2983,-3.2517,-3.2239,-3.1681,-3.1596,-3.1596,-3.1292,-3.0835,-3.0649,-3.0751,-3.0006,-2.9736,-3.0091,-2.9567,-2.9211,-2.9251,-2.9559,-2.9739,-3.0176,-3.0247,-3.0309,-3.0384,-3.1443,-3.122,-3.0523,-3.0105,-3.0462,-3.1547,-3.1805,-3.2187,-3.2679,-3.3205,-3.3515,-3.3742,-3.4165,-3.4502,-3.4612,-3.4694,-3.4812,-3.4889,-3.4946,-3.4964,-3.5075,-3.4907,-3.4925,-3.5078,-3.4977,-3.4889,-3.4983,-3.498,-3.5108,-3.4943,-3.5348,-3.5639,-3.5433,-3.5416,-3.519,-3.5002,-3.4965,-3.4964,-3.502,-3.4992,-3.4671,-3.462,-3.4623,-3.4575,-3.3722,-3.3369,-3.4746,-3.4892,-3.5115,-3.5023,-3.4842,-3.3903,-3.2904,-3.2316,-3.1631,-3.1011,-3.0488,-3.043,-3.0447,-3.0399,-3.0386,-3.0386,-3.0365,-3.0306,-3.0663,-3.3198,-3.3491,-3.3968,-3.4578,-3.5021,-3.5118,-3.535,-3.5667,-3.5622,-3.5622,-3.5667,-3.5773,-3.5817,-3.5749,-3.595,-3.5874,-3.5711,-3.5318,-3.5241,-3.5617,-3.589,-3.5898,-3.5817,-3.58,-3.5338,-3.4718,-3.4539,-3.432,-3.3863,-3.3541,-3.3068,-3.3,-3.2899,-3.2638,-3.2198,-3.1911,-3.1534,-3.1387,-3.0879,-3.0811,-3.0764,-3.0445,-3.0114,-3.0331,-3.0835,-3.127,-3.1478,-3.1671,-3.1847,-3.2071,-3.2362,-3.2438,-3.2299,-3.2179,-3.2349,-3.2536,-3.2871,-3.3151,-3.3496,-3.3752,-3.4068,-3.4353,-3.4548,-3.4693,-3.4793,-3.4889,-3.5021,-3.519,-3.519,-3.517,-3.5111,-3.5173,-3.5343,-3.5684,-3.5886,-3.5926,-3.6446,-3.6572,-3.631,-3.5953,-3.6346,-3.6585,-3.6285,-3.6004,-3.5856,-3.5609,-3.5358,-3.5373,-3.5408,-3.54,-3.5276,-3.5322,-3.5465,-3.5403,-3.5154,-3.4883,-3.519,-3.5025,-3.5061,-3.4971,-3.4632,-3.3914,-3.3192,-3.2812,-3.2177,-3.1429,-3.1011,-3.0648,-3.0412,-3.0414,-3.0318,-3.0229,-3.0393,-3.0551,-3.0749,-3.3564,-3.435,-3.4496,-3.4991,-3.5605,-3.5441,-3.5503,-3.5756,-3.5667,-3.5639,-3.5684,-3.5817,-3.5905,-3.5975,-3.6148,-3.6251,-3.6045,-3.5814,-3.5771,-3.6088,-3.6045,-3.5985,-3.5905,-3.58,-3.5542,-3.5165,-3.5064,-3.4607,-3.4032,-3.3981,-3.3761,-3.3423,-3.3389,-3.3178,-3.284,-3.2425,-3.2315,-3.1969,-3.1722,-3.1596,-3.1748,-3.1407,-3.1411,-3.1638,-3.1933,-3.2195,-3.2247,-3.2364,-3.253,-3.2755,-3.2978,-3.3196,-3.339,-3.3494,-3.3437,-3.3327,-3.353,-3.3734,-3.391,-3.4111,-3.4439,-3.4653,-3.4792,-3.4908,-3.5019,-3.511,-3.5319,-3.5756,-3.6291,-3.6406,-3.6482,-3.6119,-3.6324,-3.657,-3.6613,-3.6776,-3.7156,-3.7525,-3.7408,-3.7107,-3.7096,-3.7109,-3.6967,-3.6726,-3.6578,-3.6269,-3.5876,-3.5802,-3.5882,-3.5797,-3.5747,-3.5576,-3.5584,-3.5333,-3.5125,-3.4787,-3.4913,-3.4897,-3.4735,-3.4642,-3.4516,-3.3851,-3.373,-3.3635,-3.288,-3.1843,-3.1485,-3.113,-3.08,-3.046,-3.054,-3.0602,-3.0704,-3.0843,-3.0962,-3.3886,-3.5128,-3.5052,-3.5453,-3.5993,-3.5773,-3.5684,-3.5728,-3.5622,-3.5639,-3.5622,-3.5888,-3.5993,-3.6062,-3.6174,-3.6276,-3.6191,-3.6174,-3.6191,-3.6165,-3.6079,-3.6019,-3.5932,-3.5827,-3.5593,-3.5165,-3.5453,-3.4979,-3.4421,-3.4506,-3.4353,-3.4184,-3.3914,-3.3702,-3.3541,-3.3345,-3.3111,-3.29,-3.2708,-3.251,-3.2563,-3.2732,-3.2692,-3.2634,-3.2648,-3.2677,-3.2723,-3.288,-3.3064,-3.3288,-3.3524,-3.377,-3.3965,-3.4321,-3.4321,-3.399,-3.4046,-3.408,-3.4255,-3.4439,-3.4807,-3.5268,-3.5323,-3.5412,-3.5465,-3.5618,-3.5808,-3.6629,-3.7034,-3.7318,-3.7184,-3.7211,-3.7238,-3.7404,-3.7393,-3.7502,-3.7928,-3.8331,-3.8678,-3.8373,-3.7947,-3.7888,-3.7979,-3.7829,-3.7773,-3.7603,-3.7224,-3.654,-3.6551,-3.6267,-3.6101,-3.5719,-3.5474,-3.5102,-3.464,-3.3883,-3.4074,-3.4318,-3.4049,-3.3864,-3.391,-3.3821,-3.3753,-3.3537,-3.3091,-3.2158,-3.1875,-3.1469,-3.0896,-3.0628,-3.081,-3.0937,-3.1018,-3.0957,-3.0951,-3.4247,-3.5068,-3.565,-3.5888,-3.5861,-3.5773,-3.5711,-3.5622,-3.5622,-3.5639,-3.5622,-3.5888,-3.6019,-3.6088,-3.6241,-3.6301,-3.6301,-3.6276,-3.6251,-3.6225,-3.614,-3.5993,-3.5861,-3.5817,-3.5467,-3.5142,-3.5402,-3.5476,-3.5243,-3.5328,-3.5402,-3.5199,-3.5064,-3.5053,-3.4523,-3.4445,-3.4565,-3.4227,-3.4284,-3.4093,-3.373,-3.3898,-3.3646,-3.3436,-3.34,-3.3532,-3.3468,-3.3597,-3.3733,-3.3787,-3.4049,-3.4218,-3.4377,-3.5136,-3.5506,-3.5289,-3.4955,-3.4567,-3.4883,-3.5001,-3.5439,-3.6024,-3.6228,-3.632,-3.6209,-3.6328,-3.6653,-3.7357,-3.7485,-3.7494,-3.7608,-3.7348,-3.7539,-3.7939,-3.8267,-3.8712,-3.918,-3.905,-3.9416,-3.9585,-3.9163,-3.9281,-3.9433,-3.9199,-3.8981,-3.8822,-3.8481,-3.7754,-3.7072,-3.671,-3.6075,-3.5562,-3.5066,-3.4697,-3.4317,-3.3542,-3.3644,-3.388,-3.3777,-3.3478,-3.3524,-3.3629,-3.3105,-3.2829,-3.2541,-3.252,-3.2336,-3.1793,-3.1028,-3.0825,-3.1034,-3.1212,-3.1355,-3.1217,-3.1027,-3.4425,-3.547,-3.5756,-3.5888,-3.5888,-3.5756,-3.5728,-3.5667,-3.5622,-3.5639,-3.5711,-3.5932,-3.6174,-3.6433,-3.6661,-3.6661,-3.6597,-3.6409,-3.6276,-3.6165,-3.6122,-3.5949,-3.5817,-3.5756,-3.5484,-3.5591,-3.5579,-3.581,-3.5827,-3.5756,-3.5639,-3.5622,-3.5694,-3.5674,-3.5463,-3.5451,-3.5545,-3.5421,-3.5187,-3.4793,-3.4582,-3.4306,-3.4,-3.3716,-3.385,-3.3921,-3.4023,-3.4148,-3.4245,-3.4321,-3.4524,-3.4898,-3.5298,-3.5833,-3.6234,-3.6784,-3.6558,-3.6368,-3.633,-3.6007,-3.6365,-3.6742,-3.6816,-3.6417,-3.6537,-3.7167,-3.7697,-3.8172,-3.848,-3.8546,-3.8587,-3.8659,-3.8871,-3.912,-3.9153,-3.9482,-3.9906,-3.9998,-4.008,-4.0255,-4.0327,-4.0178,-4.0002,-3.9626,-3.9422,-3.9513,-3.9064,-3.832,-3.7506,-3.6832,-3.6048,-3.5153,-3.4661,-3.4189,-3.3836,-3.332,-3.3683,-3.3979,-3.43,-3.3962,-3.3565,-3.3357,-3.3034,-3.2666,-3.2426,-3.2477,-3.259,-3.2221,-3.1538,-3.137,-3.1305,-3.1409,-3.1479,-3.1429,-3.1244,-3.4185,-3.5467,-3.5732,-3.5905,-3.5932,-3.5711,-3.5756,-3.5888,-3.5667,-3.5756,-3.5975,-3.6174,-3.6474,-3.6781,-3.696,-3.6999,-3.6776,-3.6574,-3.6343,-3.6191,-3.6019,-3.5888,-3.5773,-3.5711,-3.5871,-3.6326,-3.602,-3.6199,-3.6333,-3.6249,-3.6079,-3.581,-3.6165,-3.6357,-3.6486,-3.6488,-3.6595,-3.7134,-3.6559,-3.6048,-3.556,-3.5008,-3.4559,-3.4266,-3.4154,-3.4179,-3.4321,-3.4458,-3.4607,-3.4689,-3.5153,-3.559,-3.6027,-3.6786,-3.7375,-3.7851,-3.7831,-3.7985,-3.7757,-3.7508,-3.7408,-3.7523,-3.7602,-3.7337,-3.7528,-3.836,-3.8911,-3.8988,-3.9385,-3.9681,-3.9845,-3.9873,-3.984,-3.989,-4.0001,-4.021,-4.0353,-4.0333,-4.0304,-4.0334,-4.0348,-4.0267,-4.0037,-3.9745,-3.9746,-4.0057,-3.9619,-3.8844,-3.7964,-3.7069,-3.6126,-3.5248,-3.5177,-3.4676,-3.4104,-3.3845,-3.4004,-3.4076,-3.4388,-3.4351,-3.3898,-3.367,-3.3526,-3.3071,-3.2599,-3.2528,-3.2703,-3.2388,-3.2109,-3.1759,-3.1513,-3.1522,-3.1548,-3.1517,-3.1419,-3.3362,-3.4684,-3.5564,-3.5854,-3.5817,-3.5817,-3.5975,-3.6131,-3.58,-3.5898,-3.6333,-3.6661,-3.6759,-3.6816,-3.7228,-3.7228,-3.6609,-3.6759,-3.6516,-3.6216,-3.5975,-3.5915,-3.5871,-3.5915,-3.6071,-3.6457,-3.6498,-3.6724,-3.7111,-3.7276,-3.6856,-3.6516,-3.7058,-3.7188,-3.7379,-3.7594,-3.7889,-3.8327,-3.8061,-3.7452,-3.6803,-3.6226,-3.5683,-3.4809,-3.4599,-3.4647,-3.4812,-3.4851,-3.4983,-3.5021,-3.5719,-3.6417,-3.6913,-3.7825,-3.8548,-3.8856,-3.8932,-3.9163,-3.9221,-3.8497,-3.819,-3.8554,-3.8747,-3.8671,-3.8858,-3.8802,-3.9202,-3.9699,-3.9967,-4.0177,-4.0253,-4.0307,-4.0435,-4.0737,-4.0884,-4.0871,-4.0844,-4.052,-4.0483,-4.042,-4.0306,-4.0116,-4.0034,-3.9723,-3.9699,-3.9972,-3.9809,-3.9056,-3.8171,-3.7277,-3.6311,-3.5679,-3.5854,-3.5537,-3.4907,-3.4689,-3.4508,-3.4425,-3.4579,-3.4414,-3.4064,-3.3943,-3.4085,-3.3682,-3.3283,-3.3031,-3.2748,-3.255,-3.2293,-3.194,-3.1743,-3.1682,-3.1602,-3.1504,-3.1443,-3.2652,-3.3245,-3.4016,-3.4864,-3.5667,-3.5667,-3.5756,-3.5827,-3.5756,-3.6054,-3.6586,-3.7117,-3.734,-3.7395,-3.7703,-3.7738,-3.7226,-3.686,-3.6724,-3.658,-3.6308,-3.6224,-3.6266,-3.6399,-3.6643,-3.7079,-3.7173,-3.7268,-3.7703,-3.8221,-3.8508,-3.8402,-3.8348,-3.8385,-3.8594,-3.8666,-3.8881,-3.8897,-3.8674,-3.7958,-3.766,-3.6879,-3.6249,-3.5458,-3.5334,-3.5122,-3.4983,-3.5038,-3.5358,-3.5829,-3.6367,-3.7031,-3.7795,-3.8769,-3.9306,-3.971,-3.9766,-3.9991,-4.0089,-3.9272,-3.8762,-3.9006,-3.9374,-3.9605,-3.9624,-3.9547,-3.9833,-4.0157,-4.0294,-4.05,-4.0951,-4.1063,-4.1234,-4.1635,-4.1735,-4.1597,-4.1367,-4.1007,-4.08,-4.079,-4.0265,-3.9815,-3.9756,-3.9697,-3.9755,-3.9832,-3.9604,-3.9226,-3.8309,-3.7561,-3.6685,-3.5996,-3.6116,-3.5758,-3.5142,-3.4948,-3.4861,-3.4852,-3.4895,-3.4775,-3.4696,-3.4708,-3.4708,-3.434,-3.3973,-3.3731,-3.3404,-3.2904,-3.2469,-3.207,-3.1857,-3.1781,-3.1645,-3.1562,-3.1534,-3.2127,-3.2364,-3.2865,-3.3931,-3.5199,-3.5284,-3.5508,-3.5783,-3.5817,-3.6088,-3.6626,-3.725,-3.7487,-3.7559,-3.7895,-3.7738,-3.7246,-3.6939,-3.6843,-3.662,-3.6409,-3.6409,-3.658,-3.6843,-3.702,-3.7649,-3.7843,-3.7895,-3.8751,-3.9374,-3.9932,-4.0156,-3.9999,-3.9991,-3.9937,-3.9737,-3.9535,-3.9261,-3.892,-3.8303,-3.8116,-3.7336,-3.661,-3.596,-3.568,-3.5647,-3.5566,-3.5758,-3.6173,-3.6661,-3.7222,-3.7862,-3.865,-3.9327,-3.9637,-4.0088,-4.0423,-4.0444,-4.026,-3.9977,-3.9346,-3.9218,-3.9817,-3.9706,-3.9546,-3.9831,-4.0222,-4.0343,-4.0524,-4.0925,-4.1511,-4.1538,-4.1707,-4.2015,-4.2013,-4.1898,-4.1755,-4.1471,-4.1281,-4.1146,-4.0521,-3.9964,-4.0016,-3.9986,-3.9552,-3.9524,-3.9245,-3.8904,-3.8319,-3.7686,-3.721,-3.6608,-3.6292,-3.5782,-3.5235,-3.5359,-3.5462,-3.5542,-3.5547,-3.5648,-3.5604,-3.5542,-3.5439,-3.5232,-3.4904,-3.4525,-3.4093,-3.3623,-3.2913,-3.2166,-3.1987,-3.1803,-3.1879,-3.1755,-3.1788,-3.163,-3.228,-3.229,-3.3136,-3.4404,-3.4523,-3.5095,-3.5797,-3.5727,-3.5925,-3.644,-3.6964,-3.7076,-3.7052,-3.765,-3.7505,-3.7073,-3.6917,-3.69,-3.6719,-3.658,-3.6426,-3.6661,-3.702,-3.756,-3.7702,-3.8129,-3.8885,-3.9852,-4.0155,-4.1059,-4.1771,-4.1549,-4.1344,-4.1511,-4.0877,-4.0192,-3.9614,-3.9494,-3.9104,-3.8452,-3.7764,-3.7167,-3.6344,-3.6028,-3.6105,-3.629,-3.6607,-3.7109,-3.7816,-3.797,-3.8554,-3.9322,-3.9475,-3.982,-4.0382,-4.0509,-4.0546,-4.0526,-4.0498,-4.0017,-3.946,-4.0024,-3.9948,-3.9468,-3.9784,-4.039,-4.0521,-4.1003,-4.1338,-4.1645,-4.188,-4.2164,-4.2465,-4.2513,-4.2398,-4.2297,-4.1728,-4.1464,-4.1126,-4.0712,-4.0372,-4.0459,-4.0294,-3.959,-3.919,-3.8884,-3.8504,-3.8122,-3.7659,-3.722,-3.6915,-3.6438,-3.6147,-3.5769,-3.5897,-3.6036,-3.6156,-3.6122,-3.6104,-3.6086,-3.6025,-3.5973,-3.6008,-3.5697,-3.5214,-3.4794,-3.4335,-3.3642,-3.2929,-3.211,-3.1839,-3.193,-3.2161,-3.229,-3.1343,-3.1546,-3.1546,-3.2121,-3.3051,-3.3575,-3.4117,-3.4455,-3.4682,-3.5417,-3.6554,-3.6693,-3.6838,-3.7197,-3.747,-3.7488,-3.7324,-3.7152,-3.7152,-3.7738,-3.7288,-3.7524,-3.7736,-3.7965,-3.8321,-3.8755,-3.9163,-3.9376,-3.9982,-4.0502,-4.1106,-4.1753,-4.2022,-4.1963,-4.126,-4.0608,-4.0084,-3.9937,-3.983,-3.9567,-3.8785,-3.8395,-3.7775,-3.6698,-3.6745,-3.6871,-3.7012,-3.7362,-3.8038,-3.8719,-3.8825,-3.913,-3.9773,-3.9953,-3.9969,-4.0235,-4.0244,-4.0213,-4.0141,-4.0059,-4.0176,-4.0029,-4.0068,-4.0103,-3.9774,-4.0435,-4.0715,-4.0866,-4.1414,-4.1888,-4.255,-4.2564,-4.2848,-4.3442,-4.354,-4.3248,-4.2946,-4.2018,-4.1389,-4.098,-4.0576,-4.0269,-4.0183,-4.0366,-3.9823,-3.9192,-3.8885,-3.8379,-3.7918,-3.745,-3.7008,-3.6855,-3.6584,-3.6429,-3.6335,-3.6569,-3.6595,-3.6595,-3.6448,-3.6207,-3.6266,-3.6542,-3.6387,-3.637,-3.6146,-3.5845,-3.5249,-3.4704,-3.4387,-3.3748,-3.2899,-3.2647,-3.3035,-3.3212,-3.3254,-3.1227,-3.1562,-3.1562,-3.1836,-3.2385,-3.2963,-3.3488,-3.4012,-3.43,-3.5217,-3.6201,-3.6096,-3.6202,-3.6665,-3.698,-3.7061,-3.7081,-3.728,-3.7368,-3.8138,-3.8076,-3.8151,-3.8561,-3.8945,-3.9062,-3.9458,-3.968,-3.99,-4.0372,-4.0729,-4.0924,-4.1119,-4.1558,-4.1069,-4.0602,-4.0333,-4.0246,-3.9995,-3.9702,-3.9669,-3.9024,-3.8555,-3.8261,-3.7596,-3.7393,-3.7526,-3.7633,-3.8046,-3.8671,-3.9179,-3.9332,-3.9385,-3.9852,-3.9819,-3.9706,-3.9708,-3.982,-3.9816,-3.9792,-3.9665,-3.9786,-3.9867,-4.0167,-4.0165,-4.0137,-4.0705,-4.1066,-4.1355,-4.1768,-4.2217,-4.2748,-4.2772,-4.3225,-4.3788,-4.348,-4.3138,-4.2832,-4.1865,-4.1548,-4.1047,-4.0902,-4.0465,-4.007,-4.0081,-4.0042,-3.9447,-3.8868,-3.8412,-3.8008,-3.7611,-3.7248,-3.7032,-3.7071,-3.7068,-3.7103,-3.7249,-3.7267,-3.7129,-3.6948,-3.6724,-3.7146,-3.7525,-3.7111,-3.6646,-3.6344,-3.6031,-3.5509,-3.502,-3.4331,-3.4024,-3.3665,-3.3739,-3.4181,-3.3957,-3.3638,-3.1255,-3.2212,-3.2281,-3.2297,-3.2439,-3.2915,-3.3741,-3.48,-3.4868,-3.5139,-3.5584,-3.5612,-3.5737,-3.5724,-3.5884,-3.6087,-3.6229,-3.6915,-3.7403,-3.7746,-3.8257,-3.8583,-3.8892,-3.9252,-3.9345,-3.948,-3.9596,-3.9775,-4.0682,-4.0285,-4.0067,-4.0053,-4.019,-3.989,-3.9828,-3.9937,-3.992,-3.9504,-3.9608,-3.9313,-3.8552,-3.8401,-3.8112,-3.765,-3.7452,-3.7591,-3.7819,-3.8257,-3.8771,-3.8986,-3.8859,-3.8963,-3.8907,-3.8518,-3.8762,-3.9061,-3.9375,-3.958,-3.9627,-3.9548,-3.9614,-3.9909,-4.0422,-4.0169,-4.0213,-4.0802,-4.14,-4.1731,-4.21,-4.2216,-4.2411,-4.2766,-4.3137,-4.2978,-4.2621,-4.2404,-4.2244,-4.1896,-4.1729,-4.1551,-4.1499,-4.1227,-4.0727,-4.0552,-4.0297,-4.0071,-3.9599,-3.926,-3.885,-3.8482,-3.8053,-3.7525,-3.7593,-3.7806,-3.7892,-3.7785,-3.7644,-3.745,-3.7678,-3.7661,-3.8105,-3.8105,-3.7467,-3.6927,-3.6557,-3.6038,-3.5188,-3.451,-3.4007,-3.3795,-3.3843,-3.3889,-3.4107,-3.3614,-3.3304,-3.12,-3.1982,-3.2109,-3.2546,-3.3185,-3.362,-3.4173,-3.4615,-3.4348,-3.4774,-3.5991,-3.5522,-3.5567,-3.6179,-3.6189,-3.6616,-3.6933,-3.73,-3.8008,-3.8416,-3.8575,-3.8789,-3.9015,-3.9243,-3.9305,-3.9138,-3.9111,-3.9085,-3.9284,-3.9106,-3.8947,-3.8892,-3.8707,-3.8577,-3.87,-3.8955,-3.8844,-3.8947,-3.9256,-3.8733,-3.8085,-3.7849,-3.7574,-3.719,-3.7335,-3.7506,-3.7698,-3.8252,-3.8728,-3.8842,-3.8839,-3.9026,-3.9429,-3.9072,-3.9044,-3.9021,-3.9413,-3.9788,-3.9727,-4.0148,-4.0345,-4.0244,-4.0884,-4.0634,-4.0551,-4.0977,-4.1866,-4.2151,-4.2328,-4.2413,-4.2432,-4.2667,-4.2752,-4.2462,-4.2157,-4.199,-4.1821,-4.1561,-4.1401,-4.1453,-4.1475,-4.1331,-4.0874,-4.073,-4.0487,-4.0481,-4.0319,-3.989,-3.9551,-3.9112,-3.8631,-3.806,-3.8023,-3.8214,-3.8085,-3.7973,-3.7874,-3.781,-3.8122,-3.8221,-3.8041,-3.7908,-3.7545,-3.695,-3.6158,-3.5333,-3.4497,-3.3955,-3.3598,-3.3772,-3.3841,-3.3925,-3.386,-3.3356,-3.2934,-3.1063,-3.1899,-3.2355,-3.3097,-3.3892,-3.3873,-3.4108,-3.4565,-3.4337,-3.4816,-3.5509,-3.5187,-3.5339,-3.5622,-3.5654,-3.5959,-3.6551,-3.6904,-3.7414,-3.7688,-3.8594,-3.8707,-3.8864,-3.8724,-3.8537,-3.8347,-3.806,-3.7785,-3.7819,-3.7555,-3.7268,-3.7119,-3.7023,-3.722,-3.7327,-3.741,-3.7473,-3.7841,-3.8124,-3.7986,-3.7627,-3.7336,-3.7156,-3.6879,-3.7229,-3.7359,-3.747,-3.8136,-3.8294,-3.8339,-3.8324,-3.8387,-3.8711,-3.8504,-3.9215,-3.9333,-3.9855,-4.0068,-4.0112,-4.0404,-4.0577,-4.0745,-4.1234,-4.1197,-4.134,-4.1718,-4.214,-4.2414,-4.2499,-4.2559,-4.2519,-4.2458,-4.2239,-4.2032,-4.1821,-4.1666,-4.1401,-4.11,-4.1071,-4.1134,-4.1105,-4.0982,-4.0853,-4.0745,-4.0631,-4.0397,-4.0182,-3.9883,-3.9597,-3.9359,-3.8851,-3.8331,-3.8386,-3.8589,-3.8405,-3.8305,-3.8455,-3.8572,-3.889,-3.8807,-3.8271,-3.7918,-3.7663,-3.6659,-3.5477,-3.4651,-3.3862,-3.3588,-3.3338,-3.3488,-3.3309,-3.2902,-3.2839,-3.2872,-3.2567,-3.0916,-3.1928,-3.2815,-3.3593,-3.4387,-3.3551,-3.3726,-3.4686,-3.4519,-3.4686,-3.4736,-3.4761,-3.4822,-3.5003,-3.4941,-3.4992,-3.5614,-3.6195,-3.6511,-3.6439,-3.7698,-3.8101,-3.7769,-3.7647,-3.737,-3.711,-3.6761,-3.6378,-3.6143,-3.5935,-3.5647,-3.5245,-3.5491,-3.577,-3.6027,-3.6143,-3.6269,-3.6509,-3.7099,-3.7351,-3.6946,-3.709,-3.7665,-3.7309,-3.7345,-3.7417,-3.747,-3.7542,-3.7524,-3.7396,-3.7342,-3.736,-3.7603,-3.7919,-3.8933,-3.9691,-4.0129,-4.0273,-4.0399,-4.0652,-4.0726,-4.0887,-4.1251,-4.1445,-4.1659,-4.2009,-4.2332,-4.2345,-4.2382,-4.2198,-4.2098,-4.2032,-4.1864,-4.1587,-4.1383,-4.1157,-4.0913,-4.0745,-4.0768,-4.0817,-4.0734,-4.0637,-4.0451,-4.032,-4.0221,-4.0121,-3.9901,-3.961,-3.9439,-3.9237,-3.8937,-3.847,-3.855,-3.8664,-3.8735,-3.8768,-3.9137,-3.9391,-3.9323,-3.8977,-3.8133,-3.7938,-3.7932,-3.6422,-3.4867,-3.4026,-3.3295,-3.3172,-3.297,-3.2673,-3.2349,-3.1732,-3.1685,-3.2038,-3.1875,-3.0798,-3.1672,-3.2534,-3.2994,-3.3025,-3.2781,-3.2947,-3.3455,-3.3432,-3.3923,-3.4652,-3.4785,-3.48,-3.4678,-3.44,-3.4501,-3.5149,-3.5072,-3.5687,-3.5843,-3.6623,-3.6534,-3.6353,-3.5989,-3.5884,-3.5758,-3.5386,-3.4757,-3.4572,-3.444,-3.4525,-3.4624,-3.4671,-3.4767,-3.5128,-3.5283,-3.527,-3.5475,-3.5797,-3.6162,-3.5877,-3.6104,-3.6464,-3.662,-3.6741,-3.7091,-3.7185,-3.7185,-3.7013,-3.6838,-3.6838,-3.7176,-3.7742,-3.8219,-3.8854,-3.9554,-4.0081,-4.0334,-4.0529,-4.0819,-4.1103,-4.1162,-4.141,-4.1492,-4.1718,-4.2126,-4.2279,-4.2139,-4.2015,-4.1743,-4.1569,-4.1499,-4.1428,-4.1111,-4.0879,-4.0611,-4.0402,-4.0407,-4.0426,-4.0409,-4.0375,-4.0172,-3.9969,-3.9885,-3.9782,-3.9644,-3.9382,-3.9115,-3.8936,-3.8745,-3.8696,-3.833,-3.8444,-3.8559,-3.8635,-3.8602,-3.8657,-3.8684,-3.8509,-3.8246,-3.7863,-3.7155,-3.646,-3.5477,-3.4271,-3.3593,-3.3171,-3.3095,-3.2837,-3.2494,-3.2047,-3.1645,-3.1125,-3.1263,-3.0938,-3.0022,-3.0436,-3.1149,-3.1744,-3.201,-3.1644,-3.184,-3.24,-3.2373,-3.2752,-3.3515,-3.394,-3.4226,-3.4074,-3.368,-3.3571,-3.4031,-3.3806,-3.3683,-3.4056,-3.4569,-3.4359,-3.421,-3.399,-3.3387,-3.3206,-3.2894,-3.2521,-3.2908,-3.313,-3.3287,-3.3646,-3.3713,-3.4101,-3.4513,-3.4464,-3.4643,-3.4982,-3.4899,-3.4866,-3.4991,-3.5571,-3.6097,-3.6326,-3.6632,-3.6948,-3.7027,-3.7027,-3.693,-3.6655,-3.6557,-3.7196,-3.7755,-3.8134,-3.8614,-3.9265,-3.9898,-4.0358,-4.0543,-4.0885,-4.1375,-4.1348,-4.1115,-4.1021,-4.0868,-4.1136,-4.0983,-4.0909,-4.0897,-4.0664,-4.0394,-4.0266,-4.0268,-4.0086,-4.0053,-3.9969,-3.9935,-3.9952,-3.9985,-3.9985,-3.9749,-3.9209,-3.9157,-3.9335,-3.9246,-3.9152,-3.8843,-3.8383,-3.8214,-3.8026,-3.801,-3.8059,-3.8049,-3.787,-3.761,-3.7594,-3.7674,-3.7679,-3.7738,-3.7175,-3.6614,-3.5674,-3.4801,-3.4367,-3.4002,-3.3602,-3.3269,-3.3167,-3.303,-3.2815,-3.2353,-3.1782,-3.1272,-3.0777,-3.062,-2.9098,-2.9022,-2.9463,-3.0226,-3.1043,-3.0254,-3.0425,-3.1286,-3.1181,-3.1155,-3.139,-3.2158,-3.2683,-3.2811,-3.241,-3.2133,-3.2074,-3.2314,-3.2072,-3.1943,-3.246,-3.2401,-3.201,-3.1436,-3.1328,-3.1104,-3.0852,-3.1166,-3.1652,-3.1977,-3.2351,-3.2547,-3.3049,-3.3642,-3.3813,-3.3965,-3.4333,-3.4448,-3.4464,-3.4448,-3.4897,-3.5453,-3.5881,-3.6284,-3.676,-3.7071,-3.7206,-3.7302,-3.7206,-3.6823,-3.6631,-3.7224,-3.7829,-3.8255,-3.8763,-3.9356,-3.9973,-4.0269,-4.0436,-4.0637,-4.0926,-4.0932,-4.0629,-4.0326,-4.0131,-4.0033,-3.9884,-3.9733,-3.9716,-3.9699,-3.9423,-3.9351,-3.9332,-3.9365,-3.9418,-3.9365,-3.9418,-3.947,-3.9418,-3.9435,-3.903,-3.8474,-3.8533,-3.8739,-3.869,-3.859,-3.8214,-3.7679,-3.7266,-3.7055,-3.6964,-3.7136,-3.7308,-3.7032,-3.6784,-3.6383,-3.6381,-3.6859,-3.6843,-3.6119,-3.5389,-3.4706,-3.4215,-3.4025,-3.3631,-3.3383,-3.334,-3.3318,-3.3202,-3.3057,-3.2587,-3.1997,-3.1624,-3.1189,-3.0898,-2.8912,-2.9041,-2.8854,-2.8834,-2.8851,-2.8515,-2.8767,-2.9202,-2.8912,-2.8887,-2.9225,-2.8882,-2.9475,-3.1496,-3.1124,-3.0835,-3.0667,-3.0898,-3.0798,-3.0605,-3.0878,-3.0678,-3.0381,-2.9986,-3.0129,-3.0018,-3.0048,-3.0624,-3.1012,-3.1405,-3.1977,-3.2625,-3.2803,-3.3351,-3.4,-3.4151,-3.4201,-3.4316,-3.4415,-3.4464,-3.4789,-3.5228,-3.5436,-3.6112,-3.7064,-3.7603,-3.8003,-3.833,-3.8178,-3.7707,-3.7015,-3.7332,-3.7767,-3.8243,-3.8725,-3.9325,-3.9903,-3.9932,-4.0021,-3.9982,-4.0085,-3.9902,-3.9527,-3.9265,-3.9176,-3.9212,-3.8999,-3.8728,-3.8745,-3.9016,-3.8941,-3.9119,-3.9206,-3.9206,-3.9222,-3.8952,-3.8805,-3.8733,-3.8623,-3.8606,-3.8398,-3.8107,-3.8068,-3.8133,-3.8051,-3.787,-3.7488,-3.6966,-3.6508,-3.6182,-3.5852,-3.6128,-3.6356,-3.6739,-3.6677,-3.5182,-3.5014,-3.5628,-3.5948,-3.529,-3.4662,-3.4002,-3.3585,-3.3604,-3.3525,-3.3334,-3.3291,-3.3364,-3.3132,-3.2922,-3.2602,-3.2213,-3.1864,-3.1569,-3.118]}]]